[[{"header":{"parameterUnit":"m.s-1","parameterCategory":1,"la1":30.6,"la2":28.766,"lo1":-90.7593,"lo2":-88.6598,"dy":0.0162,"dx":0.0183,"nx":116,"ny":114,"refTime":"2023-04-04T12:00:00:Z","depth":0,"parameterNumber":2,"parameterNumberName":"U-component_of_WINDS"},"data":[0.0,0.0,0.0,0.0,0.0,0.0,0.0,0.0,0.0,0.0,0.0,0.0,0.0,0.0,0.0,0.0,0.0,0.0,0.0,0.0,0.0,0.0,0.0,0.0,0.0,0.0,0.0,0.0,0.0,0.0,0.0,0.0,0.0,0.0,0.0,0.0,0.0,0.0,0.0,0.0,0.0,0.0,0.0,0.0,0.0,0.0,0.0,0.0,0.0,0.0,0.0,0.0,0.0,0.0,0.0,0.0,0.0,0.0,0.0,0.0,0.0,0.0,0.0,0.0,0.0,0.0,0.0,0.0,0.0,0.0,0.0,0.0,0.0,0.0,0.0,0.0,0.0,0.0,0.0,0.0,0.0,0.0,0.0,0.0,0.0,0.0,0.0,0.0,0.0,0.0,0.0,0.0,0.0,0.0,0.0,0.0,0.0,0.0,0.0,0.0,0.0,0.0,0.0,0.0,0.0,0.0,0.0,0.0,0.0,0.0,0.0,0.0,0.0,0.0,0.0,0.0,0.0,0.0,0.0,0.0,0.0,0.0,0.0,0.0,0.0,0.0,0.0,0.0,0.0,0.0,0.0,0.0,0.0,0.0,0.0,0.0,0.0,0.0,0.0,0.0,0.0,0.0,0.0,0.0,0.0,0.0,0.0,0.0,0.0,0.0,0.0,0.0,0.0,0.0,0.0,0.0,0.0,0.0,0.0,0.0,0.0,0.0,0.0,0.0,0.0,0.0,0.0,0.0,0.0,0.0,0.0,0.0,0.0,0.0,0.0,0.0,0.0,0.0,0.0,0.0,0.0,0.0,0.0,0.0,0.0,0.0,0.0,0.0,0.0,0.0,0.0,0.0,0.0,0.0,0.0,0.0,0.0,0.0,0.0,0.0,0.0,0.0,0.0,0.0,0.0,0.0,0.0,0.0,0.0,0.0,0.0,0.0,0.0,0.0,0.0,0.0,0.0,0.0,0.0,0.0,0.0,0.0,0.0,0.0,0.0,0.0,0.0,0.0,0.0,0.0,0.0,0.0,0.0,0.0,0.0,0.0,0.0,0.0,0.0,0.0,0.0,0.0,0.0,0.0,0.0,0.0,0.0,0.0,0.0,0.0,0.0,0.0,0.0,0.0,0.0,0.0,0.0,0.0,0.0,0.0,0.0,0.0,0.0,0.0,0.0,0.0,0.0,0.0,0.0,0.0,0.0,0.0,0.0,0.0,0.0,0.0,0.0,0.0,0.0,0.0,0.0,0.0,0.0,0.0,0.0,0.0,0.0,0.0,0.0,0.0,0.0,0.0,0.0,0.0,0.0,0.0,0.0,0.0,0.0,0.0,0.0,0.0,0.0,0.0,0.0,0.0,0.0,0.0,0.0,0.0,0.0,0.0,0.0,0.0,0.0,0.0,0.0,0.0,0.0,0.0,0.0,0.0,0.0,0.0,0.0,0.0,0.0,0.0,0.0,0.0,0.0,0.0,0.0,0.0,0.0,0.0,0.0,0.0,0.0,0.0,0.0,0.0,0.0,0.0,0.0,0.0,0.0,0.0,0.0,0.0,0.0,0.0,0.0,0.0,0.0,0.0,0.0,0.0,0.0,0.0,0.0,0.0,0.0,0.0,0.0,0.0,0.0,0.0,0.0,0.0,0.0,0.0,0.0,0.0,0.0,0.0,0.0,0.0,0.0,0.0,0.0,0.0,0.0,0.0,0.0,0.0,0.0,0.0,0.0,0.0,0.0,0.0,0.0,0.0,0.0,0.0,0.0,0.0,0.0,0.0,0.0,0.0,0.0,0.0,0.0,0.0,0.0,0.0,0.0,0.0,0.0,0.0,0.0,0.0,0.0,0.0,0.0,0.0,0.0,0.0,0.0,0.0,0.0,0.0,0.0,0.0,0.0,0.0,0.0,0.0,0.0,0.0,0.0,0.0,0.0,0.0,0.0,0.0,0.0,0.0,0.0,0.0,0.0,0.0,0.0,0.0,0.0,0.0,0.0,0.0,0.0,0.0,0.0,0.0,0.0,0.0,0.0,0.0,0.0,0.0,0.0,0.0,0.0,0.0,0.0,0.0,0.0,0.0,0.0,0.0,0.0,0.0,0.0,0.0,0.0,0.0,0.0,0.0,0.0,0.0,0.0,0.0,0.0,0.0,0.0,0.0,0.0,0.0,0.0,0.0,0.0,0.0,0.0,0.0,0.0,0.0,0.0,0.0,0.0,0.0,0.0,0.0,0.0,0.0,0.0,0.0,0.0,0.0,0.0,0.0,0.0,0.0,0.0,0.0,0.0,0.0,0.0,0.0,0.0,0.0,0.0,0.0,0.0,0.0,0.0,0.0,0.0,0.0,0.0,0.0,0.0,0.0,0.0,0.0,0.0,0.0,0.0,0.0,0.0,0.0,0.0,0.0,0.0,0.0,0.0,0.0,0.0,0.0,0.0,0.0,0.0,0.0,0.0,0.0,0.0,0.0,0.0,0.0,0.0,0.0,0.0,0.0,0.0,0.0,0.0,0.0,0.0,0.0,0.0,0.0,0.0,0.0,0.0,0.0,0.0,0.0,0.0,0.0,0.0,0.0,0.0,0.0,0.0,0.0,0.0,0.0,0.0,0.0,0.0,0.0,0.0,0.0,0.0,0.0,0.0,0.0,0.0,0.0,0.0,0.0,0.0,0.0,0.0,0.0,0.0,0.0,0.0,0.0,0.0,0.0,0.0,0.0,0.0,0.0,0.0,0.0,0.0,0.0,0.0,0.0,0.0,0.0,0.0,0.0,0.0,0.0,0.0,0.0,0.0,0.0,0.0,0.0,0.0,0.0,0.0,0.0,0.0,0.0,0.0,0.0,0.0,0.0,0.0,0.0,0.0,0.0,0.0,0.0,0.0,0.0,0.0,0.0,0.0,0.0,0.0,0.0,0.0,0.0,0.0,0.0,0.0,0.0,0.0,0.0,0.0,0.0,0.0,0.0,0.0,0.0,0.0,0.0,0.0,0.0,0.0,0.0,0.0,0.0,0.0,0.0,0.0,0.0,0.0,0.0,0.0,0.0,0.0,0.0,0.0,0.0,0.0,0.0,0.0,0.0,0.0,0.0,0.0,0.0,0.0,0.0,0.0,0.0,0.0,0.0,0.0,0.0,0.0,0.0,0.0,0.0,0.0,0.0,0.0,0.0,0.0,0.0,0.0,0.0,0.0,0.0,0.0,0.0,0.0,0.0,0.0,0.0,0.0,0.0,0.0,0.0,0.0,0.0,0.0,0.0,0.0,0.0,0.0,0.0,0.0,0.0,0.0,0.0,0.0,0.0,0.0,0.0,0.0,0.0,0.0,0.0,0.0,0.0,0.0,0.0,0.0,0.0,0.0,0.0,0.0,0.0,0.0,0.0,0.0,0.0,0.0,0.0,0.0,0.0,0.0,0.0,0.0,0.0,0.0,0.0,0.0,0.0,0.0,0.0,0.0,0.0,0.0,0.0,0.0,0.0,0.0,0.0,0.0,0.0,0.0,0.0,0.0,0.0,0.0,0.0,0.0,0.0,0.0,0.0,0.0,0.0,0.0,0.0,0.0,0.0,0.0,0.0,0.0,0.0,0.0,0.0,0.0,0.0,0.0,0.0,0.0,0.0,0.0,0.0,0.0,0.0,0.0,0.0,0.0,0.0,0.0,0.0,0.0,0.0,0.0,0.0,0.0,0.0,0.0,0.0,0.0,0.0,0.0,0.0,0.0,0.0,0.0,0.0,0.0,0.0,0.0,0.0,0.0,0.0,0.0,0.0,0.0,0.0,0.0,0.0,0.0,0.0,0.0,0.0,0.0,0.0,0.0,0.0,0.0,0.0,0.0,0.0,0.0,0.0,0.0,0.0,0.0,0.0,0.0,0.0,0.0,0.0,0.0,0.0,0.0,0.0,0.0,0.0,0.0,0.0,0.0,0.0,0.0,0.0,0.0,0.0,0.0,0.0,0.0,0.0,0.0,0.0,0.0,0.0,0.0,0.0,0.0,0.0,0.0,0.0,0.0,0.0,0.0,0.0,0.0,0.0,0.0,0.0,0.0,0.0,0.0,0.0,0.0,0.0,0.0,0.0,0.0,0.0,0.0,0.0,0.0,0.0,0.0,0.0,0.0,0.0,0.0,0.0,0.0,0.0,0.0,0.0,0.0,0.0,0.0,0.0,0.0,0.0,0.0,0.0,0.0,0.0,0.0,0.0,0.0,0.0,0.0,0.0,0.0,0.0,0.0,0.0,0.0,0.0,0.0,0.0,0.0,0.0,0.0,0.0,0.0,0.0,0.0,0.0,0.0,0.0,0.0,0.0,0.0,0.0,0.0,0.0,0.0,0.0,0.0,0.0,0.0,0.0,0.0,0.0,0.0,0.0,0.0,0.0,0.0,0.0,0.0,0.0,0.0,0.0,0.0,0.0,0.0,0.0,0.0,0.0,0.0,0.0,0.0,0.0,0.0,0.0,0.0,0.0,0.0,0.0,0.0,0.0,0.0,0.0,0.0,0.0,0.0,0.0,0.0,0.0,0.0,0.0,0.0,0.0,0.0,0.0,0.0,0.0,0.0,0.0,0.0,0.0,0.0,0.0,0.0,0.0,0.0,0.0,0.0,0.0,0.0,0.0,0.0,0.0,0.0,0.0,0.0,0.0,0.0,0.0,0.0,0.0,0.0,0.0,0.0,0.0,0.0,0.0,0.0,0.0,0.0,0.0,0.0,0.0,0.0,0.0,0.0,0.0,0.0,0.0,0.0,0.0,0.0,0.0,0.0,0.0,0.0,0.0,0.0,0.0,0.0,0.0,0.0,0.0,0.0,0.0,0.0,0.0,0.0,0.0,0.0,0.0,0.0,0.0,0.0,0.0,0.0,0.0,0.0,0.0,0.0,0.0,0.0,0.0,0.0,0.0,0.0,0.0,0.0,0.0,0.0,0.0,0.0,0.0,0.0,0.0,0.0,0.0,0.0,0.0,0.0,0.0,0.0,0.0,0.0,0.0,0.0,0.0,0.0,0.0,0.0,0.0,0.0,0.0,0.0,0.0,0.0,0.0,0.0,0.0,0.0,0.0,0.0,0.0,0.0,0.0,0.0,0.0,0.0,0.0,0.0,0.0,0.0,0.0,0.0,0.0,0.0,0.0,0.0,0.0,0.0,0.0,0.0,0.0,0.0,0.0,0.0,0.0,0.0,0.0,0.0,0.0,0.0,0.0,0.0,0.0,0.0,0.0,0.0,0.0,0.0,0.0,0.0,0.0,0.0,0.0,0.0,0.0,0.0,0.0,0.0,0.0,0.0,0.0,0.0,0.0,0.0,0.0,0.0,0.0,0.0,0.0,0.0,0.0,0.0,0.0,0.0,0.0,0.0,0.0,0.0,0.0,0.0,0.0,0.0,0.0,0.0,0.0,0.0,0.0,0.0,0.0,0.0,0.0,0.0,0.0,0.0,0.0,0.0,0.0,0.0,0.0,0.0,0.0,0.0,0.0,0.0,0.0,0.0,0.0,0.0,0.0,0.0,0.0,0.0,0.0,0.0,0.0,0.0,0.0,0.0,0.0,0.0,0.0,0.0,0.0,0.0,0.0,0.0,0.0,0.0,0.0,0.0,0.0,0.0,0.0,0.0,0.0,0.0,0.0,0.0,0.0,0.0,0.0,0.0,0.0,0.0,0.0,0.0,0.0,0.0,0.0,0.0,0.0,0.0,0.0,0.0,0.0,0.0,0.0,0.0,0.0,0.0,0.0,0.0,0.0,0.0,0.0,0.0,0.0,0.0,0.0,0.0,0.0,0.0,0.0,0.0,0.0,0.0,0.0,0.0,0.0,0.0,0.0,0.0,0.0,0.0,0.0,0.0,0.0,0.0,0.0,0.0,0.0,0.0,0.0,0.0,0.0,0.0,0.0,0.0,0.0,0.0,0.0,0.0,0.0,0.0,0.0,0.0,0.0,0.0,0.0,0.0,0.0,0.0,0.0,0.0,0.0,0.0,0.0,0.0,0.0,0.0,0.0,0.0,0.0,0.0,0.0,0.0,0.0,0.0,0.0,0.0,0.0,0.0,0.0,0.0,0.0,0.0,0.0,0.0,0.0,0.0,0.0,0.0,0.0,0.0,0.0,0.0,0.0,1.6535,0.0,0.0,0.0,0.0,0.0,0.0,0.0,0.0,0.0,0.0,0.0,0.0,0.0,0.0,0.0,0.0,0.0,0.0,0.0,0.0,0.0,0.0,0.0,0.0,0.0,0.0,0.0,0.0,0.0,0.0,0.0,0.0,0.0,0.0,0.0,0.0,0.0,0.0,0.0,2.3844,2.3588,2.3355,2.2232,2.1077,1.9878,0.0,0.0,0.0,0.0,0.0,0.0,0.0,0.0,0.0,0.0,0.0,0.0,0.0,0.0,0.0,0.0,0.0,0.0,0.0,0.0,0.0,0.0,0.0,0.0,0.0,0.0,0.0,0.0,0.0,0.0,0.0,0.0,0.0,0.0,0.0,0.0,0.0,0.0,0.0,0.0,0.0,0.0,0.0,0.0,0.0,0.0,0.0,0.0,0.0,0.0,0.0,0.0,0.0,0.0,0.0,0.0,0.0,0.0,0.0,0.0,0.0,0.0,0.0,0.0,0.0,0.0,0.0,0.0,0.0,0.0,0.0,1.6596,0.0,0.0,0.0,0.0,0.0,0.0,0.0,0.0,0.0,0.0,0.0,0.0,0.0,0.0,0.0,0.0,0.0,0.0,0.0,0.0,0.0,0.0,0.0,0.0,2.772,2.7331,2.7544,2.7478,0.0,0.0,0.0,0.0,0.0,0.0,0.0,0.0,0.0,2.4898,2.5097,2.4838,2.4162,2.3679,2.3068,2.2335,2.0986,0.0,0.0,0.0,0.0,0.0,0.0,0.0,0.0,0.0,0.0,0.0,0.0,0.0,0.0,0.0,0.0,0.0,0.0,0.0,0.0,0.0,0.0,0.0,0.0,0.0,0.0,0.0,0.0,0.0,0.0,0.0,0.0,0.0,0.0,0.0,0.0,0.0,0.0,0.0,0.0,0.0,0.0,0.0,0.0,0.0,0.0,0.0,0.0,0.0,0.0,0.0,0.0,0.0,0.0,0.0,0.0,0.0,0.0,0.0,0.0,0.0,0.0,0.0,1.5158,1.5376,1.5534,1.5697,1.5634,1.543,1.6178,1.6491,1.653,1.6687,0.0,0.0,0.0,0.0,0.0,0.0,0.0,0.0,0.0,0.0,0.0,0.0,0.0,0.0,0.0,0.0,0.0,0.0,0.0,0.0,0.0,2.8255,2.8535,2.8476,2.7998,2.7612,0.0,0.0,0.0,0.0,0.0,0.0,0.0,2.5303,2.5591,2.6083,2.678,2.6762,2.605,2.5727,2.5135,2.4214,2.1574,2.0126,1.959,0.0,0.0,0.0,0.0,0.0,0.0,0.0,0.0,0.0,0.0,0.0,0.0,0.0,0.0,0.0,0.0,0.0,0.0,0.0,0.0,0.0,0.0,0.0,0.0,0.0,0.0,0.0,0.0,0.0,0.0,0.0,0.0,0.0,0.0,0.0,0.0,0.0,0.0,0.0,0.0,0.0,1.4541,1.5175,0.0,0.0,0.0,0.0,0.0,0.0,0.0,0.0,0.0,0.0,0.0,0.0,0.0,1.481,1.5078,1.5345,1.5478,1.5478,1.5289,1.5223,1.5238,1.521,1.497,1.4586,1.5113,0.0,1.5361,1.5903,0.0,0.0,0.0,0.0,0.0,0.0,0.0,0.0,0.0,0.0,0.0,0.0,0.0,0.0,0.0,0.0,0.0,0.0,0.0,0.0,0.0,2.8958,2.9203,2.8483,2.9116,2.9072,2.7968,2.754,0.0,0.0,0.0,2.5591,2.5594,2.5546,2.5934,2.6811,2.7348,2.736,2.6901,2.6593,2.6039,2.5237,2.3522,2.1936,2.0448,1.9049,0.0,0.0,0.0,0.0,0.0,0.0,0.0,0.0,0.0,0.0,0.0,0.0,0.0,0.0,0.0,0.0,0.0,0.0,0.0,0.0,0.0,0.0,0.0,0.0,0.0,0.0,0.0,0.0,0.0,0.0,0.0,0.0,0.0,0.0,0.0,0.0,0.0,0.0,0.0,1.4192,1.4739,1.4832,1.4926,1.4825,0.0,0.0,0.0,0.0,0.0,0.0,0.0,0.0,0.0,1.4805,1.4821,1.4885,1.5021,1.5291,1.5189,1.4751,1.4937,1.493,1.4744,1.4722,1.4522,1.4256,1.4721,1.4603,1.4164,1.5101,1.5678,1.5906,0.0,0.0,0.0,0.0,1.5592,1.5644,0.0,0.0,0.0,0.0,0.0,0.0,0.0,0.0,0.0,0.0,0.0,0.0,2.8771,2.987,3.018,2.9239,3.0138,3.0151,2.8724,2.8179,0.0,0.0,0.0,2.5986,2.6178,2.6381,2.6882,2.7651,2.8213,2.8239,2.7797,2.7392,2.6793,2.6032,2.5113,2.3452,2.131,2.0002,1.8704,1.7487,0.0,0.0,0.0,0.0,0.0,0.0,0.0,0.0,0.0,0.0,0.0,0.0,0.0,0.0,0.0,0.0,0.0,0.0,0.0,0.0,0.0,0.0,0.0,0.0,0.0,0.0,0.0,0.0,0.0,0.0,0.0,0.0,0.0,0.0,0.0,0.0,0.0,1.4551,1.4939,1.4783,1.5081,1.5094,0.0,0.0,0.0,0.0,0.0,0.0,1.4281,1.4612,1.4889,1.5048,1.4891,1.4855,1.4917,1.4972,1.4773,1.4342,1.4459,1.4465,1.433,1.4147,1.3993,1.3872,1.429,1.4053,1.3432,1.4497,1.5096,1.5365,1.5199,1.5576,1.6127,1.5499,1.5389,1.5587,0.0,0.0,0.0,0.0,0.0,0.0,0.0,0.0,0.0,0.0,0.0,2.9489,2.9969,3.1092,3.1773,3.1732,3.0751,3.0064,2.9826,2.8499,2.7646,2.7456,2.7119,2.6926,2.6939,2.8242,2.8919,2.8914,3.002,3.0096,2.9185,2.8521,2.772,2.6798,2.548,2.3872,2.2046,2.0653,1.9188,1.7642,1.6144,0.0,0.0,0.0,0.0,0.0,0.0,0.0,0.0,0.0,0.0,0.0,0.0,0.0,0.0,0.0,0.0,0.0,0.0,0.0,0.0,0.0,0.0,0.0,0.0,0.0,0.0,0.0,0.0,0.0,0.0,0.0,0.0,0.0,0.0,0.0,0.0,0.0,0.0,1.5405,1.553,0.0,0.0,0.0,0.0,1.4863,1.4615,1.4411,1.4228,1.4479,1.4615,1.4638,1.4624,1.474,1.4998,1.4446,1.4418,1.4941,1.4012,1.3793,1.4179,1.349,1.3156,1.3169,1.3449,1.354,1.3543,1.4167,1.4681,1.4961,1.4389,1.4901,1.5835,1.5174,1.5054,1.5292,0.0,0.0,0.0,0.0,0.0,0.0,0.0,0.0,2.6988,2.7684,2.8523,2.9478,3.055,3.1144,3.1504,3.162,3.1847,3.144,3.0245,2.9675,2.8889,2.7808,2.7062,2.6923,2.7452,2.8875,2.9573,2.9507,3.0652,3.0735,2.9811,2.9477,2.8866,2.8017,2.7062,2.5622,2.3825,2.1962,2.0352,1.8941,1.7999,1.6709,0.0,0.0,0.0,0.0,0.0,0.0,0.0,0.0,0.0,0.0,0.0,0.0,0.0,0.0,0.0,0.0,0.0,0.0,0.0,0.0,0.0,0.0,0.0,0.0,0.0,0.0,0.0,0.0,0.0,0.0,0.0,0.0,0.0,0.0,0.0,0.0,0.0,1.5776,1.5882,0.0,1.5429,1.5322,1.5173,1.4969,1.4883,1.4794,1.4728,1.485,1.4826,1.4623,1.4604,1.4472,1.4234,1.4143,1.3964,1.372,1.3531,1.3434,1.3433,1.3165,1.304,1.305,1.3352,1.3204,1.278,1.3514,1.4066,1.4399,1.4191,1.4366,1.4722,1.4678,1.4655,1.4704,0.0,0.0,0.0,0.0,0.0,0.0,0.0,0.0,2.7216,2.7982,2.8902,2.9918,3.095,3.168,3.2138,3.2207,3.2632,3.2302,3.0901,3.0428,2.9635,2.8366,2.784,2.787,2.8501,2.9817,3.0403,3.017,3.1294,3.134,3.0397,3.0302,2.9779,2.8899,2.8168,2.7043,2.5541,2.3699,2.1863,2.0137,1.9295,1.8101,1.6753,0.0,0.0,0.0,0.0,0.0,0.0,0.0,0.0,0.0,0.0,0.0,0.0,0.0,0.0,0.0,0.0,0.0,0.0,0.0,0.0,0.0,0.0,0.0,0.0,0.0,0.0,0.0,0.0,0.0,0.0,0.0,0.0,0.0,0.0,0.0,1.5659,1.587,1.6058,1.5998,1.5547,1.5428,1.5314,1.5191,1.4899,1.4718,1.4718,1.4677,1.4576,1.4444,1.432,1.4168,1.4007,1.3773,1.3499,1.3193,1.3122,1.3112,1.3106,1.2946,1.2915,1.3003,1.3127,1.2918,1.248,1.2907,1.3315,1.366,1.3832,1.3905,1.3909,1.3997,1.4,1.3946,0.0,0.0,0.0,0.0,0.0,0.0,0.0,2.6259,2.7059,2.7721,2.9486,3.0817,3.1193,3.2813,3.3775,3.3634,3.3077,3.2457,3.184,3.069,2.9751,2.9107,2.9474,2.9828,3.0123,3.1157,3.1447,3.0951,3.1983,3.1992,3.1011,3.1011,3.0429,2.9388,2.8645,2.7921,2.713,2.5777,2.3693,2.1231,1.9913,1.9365,1.9179,0.0,0.0,0.0,0.0,0.0,0.0,0.0,0.0,0.0,0.0,0.0,0.0,0.0,0.0,0.0,0.0,0.0,0.0,0.0,0.0,0.0,0.0,0.0,0.0,0.0,0.0,0.0,0.0,0.0,0.0,0.0,0.0,0.0,1.4831,1.5389,1.5704,1.5693,1.6053,1.6162,1.591,1.5619,1.5474,1.5492,1.4693,1.4208,1.4188,1.3957,1.3901,1.4067,1.3753,1.3834,1.436,1.3321,1.3046,1.3555,1.2842,1.278,1.3256,1.2823,1.2732,1.2971,1.2697,1.2603,1.265,1.2379,1.245,1.2718,1.3261,1.3461,1.3426,1.3182,1.3073,1.3009,0.0,0.0,0.0,0.0,0.0,0.0,0.0,2.6523,2.7465,2.7894,2.9333,3.076,3.1887,3.2498,3.3207,3.4167,3.356,3.2773,3.1852,3.0927,2.996,2.8932,2.9359,3.0041,3.0875,3.1226,3.161,3.2065,3.2557,3.2354,3.1502,3.1354,3.0786,2.9877,2.914,2.8475,2.7878,2.7287,2.6074,2.4346,2.2406,2.0973,2.0023,0.0,0.0,0.0,0.0,0.0,0.0,0.0,0.0,0.0,0.0,0.0,0.0,0.0,0.0,0.0,0.0,0.0,0.0,0.0,0.0,0.0,0.0,0.0,0.0,0.0,0.0,0.0,0.0,0.0,0.0,0.0,1.3905,1.3973,1.4302,1.5133,1.5725,1.5777,1.565,1.5555,1.5466,1.5062,1.4833,1.4982,1.4407,1.4113,1.4245,1.3982,1.3742,1.3589,1.3507,1.3458,1.3464,1.2923,1.2719,1.2861,1.2664,1.2679,1.2866,1.2792,1.2686,1.2558,1.2341,1.2033,1.1688,1.1819,1.1933,1.2094,1.2522,1.2681,1.2643,1.2609,1.2327,1.1926,0.0,0.0,0.0,0.0,0.0,0.0,0.0,2.6668,2.7537,2.8086,2.9539,3.0876,3.1868,3.2455,3.3142,3.4093,3.3325,3.2455,3.1651,3.0769,3.0067,2.95,3.0194,3.0961,3.1738,3.2321,3.2771,3.3135,3.348,3.3314,3.2619,3.2179,3.1706,3.1158,3.0194,2.938,2.8748,2.8421,2.7507,2.6187,2.4839,2.3279,2.1679,2.1423,2.108,2.0725,2.0497,2.0573,2.0688,2.0358,0.0,0.0,0.0,0.0,0.0,0.0,0.0,0.0,0.0,0.0,0.0,0.0,0.0,0.0,0.0,0.0,0.0,0.0,0.0,0.0,0.0,0.0,0.0,0.0,1.3842,1.3837,1.3962,1.4783,1.5395,1.5418,1.5329,1.5205,1.5113,1.4823,1.4662,1.4797,1.4273,1.3948,1.3929,1.3535,1.3208,1.299,1.299,1.2974,1.2945,1.266,1.2532,1.2528,1.2442,1.2401,1.2457,1.2399,1.2298,1.2147,1.1968,1.1675,1.1305,1.1476,1.1557,0.0,0.0,0.0,0.0,0.0,1.1355,1.1053,0.0,0.0,0.0,0.0,0.0,0.0,0.0,2.6711,2.7419,2.8358,2.9868,3.1038,3.1484,3.2582,3.3361,3.3565,3.2611,3.1736,3.1131,3.033,3.0074,3.0439,3.1447,3.222,3.2659,3.378,3.4271,3.4142,3.4469,3.4381,3.3853,3.3156,3.2757,3.2583,3.1438,3.0507,2.9792,2.9356,2.8433,2.7231,2.7116,2.5796,2.3761,2.2691,2.2311,2.2348,2.1807,2.142,2.1243,2.1715,0.0,0.0,0.0,0.0,0.0,0.0,0.0,0.0,0.0,0.0,0.0,0.0,0.0,0.0,0.0,0.0,0.0,0.0,0.0,0.0,0.0,0.0,0.0,0.0,1.3541,1.3627,1.3809,1.4382,1.4807,1.4877,1.5005,1.5003,1.4776,1.4634,1.4616,1.4671,1.4056,1.357,1.3332,0.0,0.0,0.0,0.0,1.2493,1.2689,1.2497,1.2385,1.2381,1.2177,1.2081,1.2084,1.1833,1.1733,1.1742,1.1568,1.1358,1.1188,1.1188,1.1162,1.1193,1.1779,1.1867,1.1563,1.0568,1.022,1.0142,0.0,0.0,0.0,0.0,0.0,0.0,0.0,2.6623,2.7554,2.8813,2.9948,3.0927,3.1663,3.2579,3.3074,3.2922,3.2017,3.0963,2.9845,2.9861,3.0159,3.0782,3.1576,3.2525,3.3681,3.3943,3.4363,3.4962,3.4577,3.4091,3.3573,3.3154,3.2716,3.2281,3.1814,3.14,3.1047,3.0954,3.0091,2.8759,2.8748,2.7264,2.503,2.4631,2.4171,2.3722,2.3609,2.3517,2.3345,2.2542,2.2167,2.1886,2.0993,2.0309,0.0,0.0,0.0,0.0,0.0,0.0,0.0,0.0,0.0,0.0,0.0,0.0,0.0,0.0,0.0,0.0,0.0,0.0,0.0,1.4201,1.4112,1.3997,1.4047,1.404,1.4215,1.4756,1.456,1.4385,1.4322,1.3693,1.3445,1.3882,1.291,1.2447,1.2809,1.229,1.2038,1.2243,1.2243,1.2384,1.2689,1.2384,1.2243,1.2243,0.0,0.0,1.1913,1.1381,1.1265,1.1442,1.0932,1.0616,1.0479,1.0479,1.0343,1.0136,1.057,1.0559,1.0188,0.9343,0.8803,0.8444,0.0,0.0,0.0,0.0,0.0,0.0,0.0,2.6779,2.7384,2.8907,2.9575,3.0166,3.0864,3.1332,3.1477,3.1174,3.0404,2.9777,2.9388,3.0094,3.0722,3.1075,3.223,3.3193,3.3968,3.4403,3.4858,3.5337,3.5005,3.4629,3.4223,3.3497,3.3154,3.3106,3.2393,3.1968,3.173,3.1563,3.0481,2.8873,2.9189,2.8009,2.6062,2.5586,2.5106,2.4683,2.4497,2.4146,2.3756,2.3763,2.3247,2.2514,2.192,2.1244,2.0491,0.0,0.0,0.0,0.0,0.0,0.0,0.0,0.0,0.0,0.0,0.0,0.0,0.0,0.0,1.4045,0.0,0.0,1.3719,1.404,1.3997,1.3965,1.4171,1.3962,1.3907,1.4259,1.3951,1.37,1.37,1.3143,1.2921,1.3165,1.2631,1.2354,1.2444,1.2275,1.2146,1.2103,1.2045,1.2106,1.2351,1.1859,1.1663,1.1756,1.1454,1.132,1.1353,1.0944,1.0817,1.0936,1.0449,1.0214,1.0131,0.9763,0.9309,0.8885,0.8838,0.9131,0.948,0.8426,0.8024,0.7904,0.0,0.0,0.0,0.0,0.0,0.0,0.0,2.6934,2.7239,2.8841,2.9109,2.9319,2.9819,2.9939,2.9743,2.9146,2.8725,2.8667,2.9128,3.0411,3.1255,3.1526,3.2923,3.3873,3.4231,3.4878,3.532,3.555,3.5456,3.5229,3.4886,3.3898,3.3643,3.3963,3.298,3.2438,3.2196,3.1876,3.0604,2.8847,2.9211,2.8333,2.6708,2.5922,2.5486,2.5239,2.4819,2.4013,2.3319,2.4228,2.3636,2.2491,2.237,2.1824,2.1038,1.9831,1.8995,0.0,0.0,0.0,0.0,0.0,0.0,0.0,0.0,0.0,1.4314,1.417,1.4094,1.404,1.4037,1.371,1.3523,1.3663,1.3698,1.3806,1.4061,1.3874,1.3663,1.3605,1.3372,1.3174,1.3114,1.281,1.2629,1.2689,1.2574,1.2384,1.2172,1.2229,1.2116,1.1864,1.1725,1.1732,1.1837,1.1305,1.1098,1.1232,1.0898,1.0762,1.0785,1.0356,1.0224,1.0295,0.9774,0.9571,0.9529,0.8665,0.81,0.7711,0.702,0.7559,0.8552,0.7502,0.7321,0.745,0.0,0.0,0.0,0.0,0.0,0.0,0.0,0.0,2.7364,2.8738,2.8939,2.8952,2.9031,2.9342,2.8952,2.7428,2.7767,2.8217,2.8558,3.0067,3.1358,3.2313,3.3219,3.4136,3.5049,3.5168,3.5376,3.5781,3.5516,3.5107,3.4551,3.4173,3.3892,3.3653,3.3272,3.2939,3.2626,3.2358,3.1358,2.9963,2.9414,2.8201,2.6608,2.57,2.5293,2.5123,2.4433,2.338,2.2351,2.2481,2.2047,2.1367,2.0772,2.0667,2.0455,1.8844,1.8302,1.805,1.7248,1.71,1.708,1.6667,1.6046,1.5425,0.0,0.0,1.4232,1.4271,1.386,1.356,1.3794,1.3545,1.3398,1.3585,1.3705,1.3698,1.346,1.333,1.3168,1.2864,1.3041,1.3084,1.2779,1.2449,1.2384,1.2689,1.2028,1.1753,1.2,1.1576,1.1325,1.1294,1.1281,1.1281,1.1294,1.1231,1.1145,1.104,1.0703,1.0627,1.0759,0.9532,0.9242,0.9637,0.8471,0.8024,0.8035,0.6763,0.6521,0.6834,0.5695,0.5749,0.6433,0.6242,0.6104,0.6018,0.0,0.0,0.0,0.0,0.0,0.0,0.0,0.0,0.0,2.7966,2.7934,2.7754,2.763,2.7387,2.7072,2.6685,2.7083,2.7818,2.8895,3.0468,3.1773,3.2704,3.3517,3.4339,3.5186,3.5045,3.5146,3.5566,3.5439,3.5091,3.4496,3.4227,3.3918,3.3597,3.3335,3.3022,3.2669,3.2402,3.1287,2.9642,2.9332,2.8071,2.628,2.5254,2.4493,2.3987,2.3685,2.2727,0.0,2.2102,2.1531,2.0607,2.0637,2.0321,1.9773,1.887,1.8194,1.7566,1.6793,1.6323,1.6081,1.6253,1.5782,1.5234,1.5086,1.4758,1.4411,1.4089,1.3811,1.3613,1.3534,1.3491,1.3435,0.0,1.3413,1.339,1.3004,1.294,1.2779,1.2449,1.2389,1.2328,1.2178,1.1877,1.1675,1.1723,1.1398,1.1301,1.1525,1.1245,1.1077,1.1077,1.0779,1.0652,1.072,1.0591,1.042,1.0234,0.9681,0.942,0.9421,0.8236,0.7771,0.7888,0.7343,0.6913,0.6516,0.5951,0.5675,0.5526,0.4985,0.4955,0.524,0.5456,0.5581,0.5566,0.0,0.0,0.0,0.0,0.0,0.0,0.0,0.0,0.0,0.0,2.7001,2.6769,2.6553,2.5934,2.5663,2.6063,2.6582,2.7529,2.8979,3.0588,3.193,3.298,3.3587,3.4271,3.5072,3.4898,3.493,3.5182,3.5328,3.5091,3.4496,3.4227,3.3918,3.3597,3.3335,3.2926,3.243,3.1954,3.069,2.9,2.8587,2.7259,2.5496,2.4515,2.3496,2.2562,2.2525,2.162,2.0532,2.1029,2.0332,1.9355,1.9821,1.9409,1.8704,1.8411,1.7697,1.6881,1.6291,1.5748,1.5455,1.5927,1.5538,1.5065,1.5183,1.4826,1.4355,1.4,1.3731,1.3485,1.3306,1.3389,1.3355,1.3031,1.3154,1.3104,1.2642,1.2509,1.2328,1.1997,1.1696,1.1454,1.1273,1.1225,1.1122,1.0876,1.084,1.0847,1.0838,1.07,1.0652,1.0652,1.0267,1.0006,0.9898,0.9702,0.9405,0.9038,0.8502,0.8174,0.8043,0.7059,0.6481,0.6202,0.6174,0.5873,0.539,0.5278,0.5031,0.4701,0.448,0.4468,0.4606,0.4727,0.4895,0.5003,0.0,0.0,0.0,0.0,0.0,0.0,0.0,0.0,0.0,0.0,0.0,0.0,0.0,2.5624,2.5312,2.5324,2.6291,2.7354,2.8442,3.0034,3.1635,3.3224,3.3303,3.3805,3.4791,3.4791,3.4747,3.4607,3.5149,3.5091,3.4496,3.4227,3.3918,3.3597,3.3335,3.2698,3.1757,3.0793,2.9623,2.8316,2.6952,2.5464,2.4011,2.3508,2.2343,2.0947,2.081,1.9843,1.8572,1.8454,1.7875,1.7248,1.752,1.7395,1.7131,1.6926,1.6477,0.0,1.5785,1.5701,1.5722,1.5877,1.5494,1.5181,1.5427,1.4621,1.39,1.4137,1.3516,1.2989,1.3168,1.3135,1.3069,1.293,1.3067,1.2955,1.2324,1.1997,1.1696,1.1363,1.1031,1.0577,0.0,1.0569,1.088,1.0543,1.0441,1.0285,0.9964,0.9809,0.9755,0.9755,0.9728,0.9389,0.8648,0.8648,0.8221,0.738,0.7345,0.7241,0.7012,0.6258,0.5571,0.4957,0.4883,0.4892,0.4891,0.4512,0.4515,0.4719,0.4084,0.4136,0.4527,0.3888,0.3768,0.3976,0.0,0.0,0.0,0.0,0.0,0.0,0.0,0.0,0.0,0.0,0.0,0.0,0.0,0.0,0.0,0.0,2.6291,2.716,2.7738,2.9568,3.0969,3.1739,3.2242,3.2812,3.3525,3.3191,3.3226,3.3686,3.3681,3.3632,3.3579,3.3301,3.299,3.2661,3.2397,3.1677,3.0639,3.0294,2.9364,2.7951,2.6731,2.5611,2.4493,2.2896,2.1697,2.0666,0.0,1.8601,1.8144,1.7867,1.7201,1.6566,1.6909,1.6845,1.661,1.6383,1.6405,0.0,0.0,0.0,1.5793,1.5675,1.5377,1.507,1.4932,1.4478,1.3965,1.3673,1.3118,1.2588,1.2278,1.2293,1.2274,1.1968,1.2008,1.1954,1.1649,1.1152,1.0759,1.0637,1.0152,0.0,0.0,0.0,0.0,0.9737,0.9682,0.9686,0.978,0.9465,0.9089,0.8659,0.8387,0.7886,0.7154,0.7419,0.7267,0.6701,0.6382,0.581,0.5006,0.4931,0.4561,0.3978,0.3957,0.3837,0.3638,0.3495,0.3518,0.3575,0.3309,0.3286,0.3379,0.3098,0.2906,0.2833,0.0,0.0,0.0,0.0,0.0,0.0,0.0,0.0,0.0,0.0,0.0,0.0,0.0,0.0,0.0,0.0,0.0,2.6788,2.7181,2.884,3.0053,3.0648,3.1219,3.1751,3.2218,3.1881,3.1924,3.2373,3.2334,3.2399,3.2558,3.2199,3.1907,3.1684,3.1122,3.0276,2.9284,2.8853,2.7938,2.6656,2.543,2.45,2.367,2.2065,2.0825,0.0,1.8478,1.7736,1.734,1.7088,1.6531,1.6014,1.6373,1.6389,1.6221,1.5904,1.6089,1.6248,0.0,1.5588,1.5532,1.5367,1.5042,1.4724,1.4513,1.4089,1.3609,1.3133,1.2634,1.217,1.1766,1.1711,1.1607,1.1304,1.1298,1.1244,1.0932,1.045,1.0092,0.9943,0.9488,0.9083,0.0,0.0,0.0,0.8915,0.8986,0.8881,0.8545,0.8282,0.7815,0.7149,0.688,0.6412,0.5646,0.5912,0.5778,0.5242,0.4934,0.4459,0.3874,0.4015,0.3856,0.3486,0.3486,0.3301,0.2992,0.2992,0.2992,0.2987,0.2941,0.2875,0.2812,0.2493,0.2229,0.2149,0.0,0.0,0.0,0.0,0.0,0.0,0.0,0.0,0.0,0.0,0.0,0.0,0.0,0.0,0.0,0.0,0.0,0.0,2.6807,2.7827,2.8891,2.9923,3.0229,3.0547,3.089,3.087,3.0854,3.0791,3.1089,3.1271,3.1367,3.0874,3.0601,3.0518,2.9479,2.8532,2.7636,2.6466,2.5441,2.4478,2.3182,2.2296,2.1692,2.0989,1.9782,1.8442,1.8068,1.7236,1.6305,1.6149,1.5826,1.5555,1.5806,1.5976,1.5966,1.5464,1.554,1.5668,1.5183,1.5049,1.5027,1.5001,1.4599,1.4213,1.4142,1.3489,1.2807,1.2612,1.2071,1.1633,0.0,0.0,1.1086,1.0951,1.0996,1.0817,1.0183,0.9884,0.964,0.0,0.0,0.0,0.0,0.0,0.0,0.8002,0.0,0.7838,0.6441,0.6343,0.6042,0.5372,0.5339,0.5004,0.4266,0.4234,0.3899,0.3193,0.3142,0.3259,0.3574,0.3506,0.3458,0.3455,0.3425,0.324,0.293,0.293,0.29,0.2895,0.2853,0.2835,0.2733,0.2009,0.1755,0.1865,0.0,0.0,0.0,0.0,0.0,0.0,0.0,0.0,0.0,0.0,0.0,0.0,0.0,0.0,0.0,0.0,0.0,0.0,2.5867,2.6864,2.7667,2.8149,2.8605,2.9067,2.9504,2.9218,2.9127,2.9249,2.8991,2.874,2.8471,2.8479,2.8035,2.7205,2.6887,2.6148,2.5109,2.4594,2.3915,2.3131,2.2232,2.1736,2.1365,2.0086,1.9143,1.8356,1.7324,1.6838,1.6607,1.6113,1.5771,1.5603,1.5713,1.5643,1.5541,1.5636,1.5632,1.5576,1.5599,1.5612,1.5435,1.4783,1.4532,1.4204,1.3405,1.2776,1.2297,1.2001,1.1419,1.0831,1.0437,1.0381,1.0316,1.0134,1.0123,0.0,0.9914,0.9438,0.0,0.8671,0.0,0.7795,0.6882,0.6873,0.0,0.0,0.629,0.6435,0.57,0.5638,0.5339,0.4602,0.4568,0.4234,0.3496,0.3496,0.3396,0.3194,0.3141,0.313,0.3223,0.3164,0.2993,0.2745,0.2498,0.2191,0.1883,0.1883,0.1729,0.1542,0.1752,0.1828,0.1715,0.1298,0.1279,0.1492,0.0,0.0,0.0,0.0,0.0,0.0,0.0,0.0,0.0,0.0,0.0,0.0,0.0,0.0,0.0,0.0,0.0,0.0,0.0,2.6078,2.661,2.6745,2.7412,2.7848,2.8036,2.7922,2.7948,2.8097,2.7316,2.6864,2.6645,2.6247,2.569,2.498,2.4486,2.3871,2.3117,2.2694,2.2277,0.0,0.0,2.0826,2.0679,1.9312,1.8426,1.777,1.6908,1.6458,1.6263,1.6186,1.5924,1.5674,1.591,1.578,1.5575,1.5665,1.5568,1.5429,1.5299,1.5354,1.5194,1.4351,1.4152,1.3921,1.2974,1.2303,1.1783,1.1417,1.0851,1.0279,0.9768,0.9725,0.97,0.0,0.0,0.0,0.928,0.8955,0.8485,0.0,0.7564,0.0,0.5943,0.5867,0.5369,0.0,0.496,0.522,0.4465,0.4434,0.41,0.3396,0.3194,0.2926,0.249,0.249,0.259,0.2759,0.2555,0.2527,0.2669,0.258,0.2386,0.2055,0.0,0.1604,0.1266,0.1266,0.1173,0.1019,0.1204,0.1259,0.1186,0.0838,0.0854,0.0957,0.0,0.0,0.0,0.0,0.0,0.0,0.0,0.0,0.0,0.0,2.533,2.5312,0.0,0.0,0.0,0.0,0.0,0.0,0.0,0.0,2.5637,2.5726,2.6407,2.673,2.6666,2.6832,2.6901,2.6883,2.5853,2.5285,2.5154,2.4198,2.3555,2.3206,2.232,2.1756,2.1474,2.0914,2.0637,2.0543,1.9929,1.9766,1.9772,0.0,0.0,1.7012,1.6694,1.614,1.5651,1.6345,1.6198,1.5794,1.6195,1.6118,1.5847,1.561,1.5479,1.53,1.4883,1.4823,1.4704,1.3941,1.3667,1.3404,1.2622,1.1864,1.1195,1.0822,1.0307,0.9783,0.938,0.9251,0.9178,0.9029,0.0,0.8958,0.8608,0.8448,0.7986,0.7023,0.6797,0.6251,0.5063,0.485,0.4305,0.3153,0.3929,0.4026,0.3127,0.306,0.2792,0.2222,0.1818,0.1616,0.1616,0.1548,0.1717,0.2053,0.1695,0.1682,0.1937,0.1888,0.1704,0.1445,0.1395,0.1203,0.0926,0.0926,0.0895,0.0864,0.0926,0.0926,0.0894,0.0546,0.0448,0.0441,0.0,0.0,0.0,0.0,0.0,0.0,0.0,0.0,0.0,0.0,2.5576,2.5312,0.0,0.0,0.0,0.0,0.0,0.0,0.0,0.0,0.0,2.5363,2.5201,2.5356,2.5873,2.5607,2.5235,2.4734,2.4315,2.3478,2.2301,2.2449,2.1906,2.0795,2.0627,2.0305,1.9868,1.9601,1.9341,1.9075,1.9126,1.8988,1.8729,1.8175,0.0,0.0,1.6528,1.5977,1.5508,1.6556,1.6449,1.5921,1.6202,1.613,1.5888,1.5764,1.5581,1.5424,1.549,1.5223,1.4756,1.4112,1.354,1.2854,1.1838,1.0947,0.0,0.9974,0.9398,0.8906,0.8764,0.8785,0.8744,0.8548,0.8758,0.8829,0.8487,0.7941,0.7403,0.0,0.6156,0.5268,0.428,0.3938,0.0,0.0,0.2477,0.2526,0.2388,0.2389,0.2323,0.2188,0.1818,0.1616,0.1616,0.1313,0.1212,0.1279,0.1209,0.1192,0.1197,0.1191,0.1141,0.1085,0.0803,0.0,0.0587,0.0587,0.0432,0.0216,0.0463,0.0587,0.0555,0.0212,0.0269,0.0441,0.0,0.0,0.0,0.0,0.0,0.0,0.0,2.542,2.6202,2.6472,2.6291,2.6027,2.5745,2.5242,2.4975,0.0,0.0,0.0,0.0,0.0,0.0,0.0,0.0,0.0,2.5013,2.5073,0.0,0.0,0.0,2.2558,2.1431,0.0,2.0394,1.9573,1.9478,1.9168,1.8721,1.8778,1.8603,1.8341,1.8435,1.8437,0.0,0.0,0.0,0.0,0.0,1.6045,1.5645,1.6532,1.6326,1.5772,1.6168,1.6218,1.6071,1.5863,1.5768,1.5716,1.5539,1.5178,1.47,1.4007,1.3392,1.2663,1.1552,0.0,0.0,0.9414,0.8914,0.8517,0.8288,0.8409,0.8497,0.8361,0.8308,0.8145,0.7807,0.7256,0.6556,0.5696,0.5174,0.445,0.3332,0.3098,0.2759,0.2149,0.2148,0.2172,0.2188,0.1986,0.1818,0.1649,0.1447,0.1245,0.1043,0.0875,0.0909,0.1111,0.0875,0.0765,0.075,0.0744,0.0638,0.0468,0.031,0.0247,0.0247,0.0247,0.0154,0.0031,0.0185,0.0247,0.0216,0.0061,0.0091,0.0179,0.0,0.0,0.0,0.0,0.0,0.0,2.4446,2.5498,2.646,2.6994,2.7066,2.6849,2.6279,2.5467,2.4943,0.0,0.0,0.0,0.0,0.0,0.0,0.0,0.0,0.0,0.0,0.0,0.0,0.0,0.0,0.0,0.0,0.0,0.0,0.0,0.0,0.0,1.7953,1.8154,1.8097,0.0,0.0,1.8024,0.0,0.0,0.0,0.0,0.0,1.6042,1.5647,1.6296,1.6029,1.5469,1.5849,1.6079,1.6163,1.5871,1.5897,1.5879,1.5291,1.4882,1.4466,1.3773,1.3019,1.2184,1.1201,1.0362,0.9571,0.8818,0.8497,0.8257,0.7911,0.8076,0.8252,0.0,0.784,0.7452,0.7172,0.6508,0.5639,0.4508,0.4215,0.0,0.259,0.249,0.0,0.2127,0.2153,0.2155,0.2087,0.1784,0.1447,0.1111,0.101,0.0808,0.0505,0.0437,0.0538,0.0875,0.0538,0.0401,0.0395,0.039,0.0256,0.0,0.0,0.0,0.0,0.0,-0.0093,-0.0216,-0.0216,-0.0309,-0.0432,-0.0432,-0.0427,-0.0479,0.0,0.0,0.0,0.0,0.0,0.0,2.4446,2.5817,2.7024,2.7565,2.7637,2.7344,2.6635,2.5938,2.5405,0.0,0.0,0.0,0.0,0.0,0.0,0.0,0.0,0.0,0.0,0.0,0.0,0.0,0.0,0.0,0.0,0.0,0.0,0.0,0.0,0.0,0.0,1.7747,0.0,0.0,0.0,0.0,0.0,0.0,0.0,0.0,0.0,1.5661,1.5146,1.5691,1.5551,1.5097,1.4919,1.5335,1.5911,1.5835,1.5773,1.5557,1.4774,1.4339,1.3929,1.3392,1.2057,1.0768,1.0319,0.0,0.8359,0.7986,0.7919,0.7905,0.7746,0.7796,0.7859,0.0,0.0,0.7071,0.6857,0.5739,0.4799,0.4346,0.0,0.0,0.2529,0.2228,0.2069,0.2092,0.2153,0.2054,0.1683,0.1616,0.1447,0.1111,0.074,0.0538,0.0505,0.0202,0.0067,0.0101,0.0067,0.0033,0.0033,0.0032,0.0032,0.0,0.0,0.0,0.0,0.0,-0.037,-0.0895,-0.0895,-0.1265,-0.1819,-0.1819,-0.1787,-0.1742,0.0,0.0,0.0,0.0,0.0,0.0,2.4446,2.5871,2.709,2.7637,2.7974,2.7776,2.6724,2.6243,2.5671,2.4801,0.0,0.0,0.0,0.0,0.0,0.0,0.0,0.0,0.0,0.0,2.1454,2.0905,0.0,0.0,0.0,0.0,0.0,0.0,0.0,0.0,0.0,0.0,0.0,0.0,0.0,0.0,0.0,0.0,0.0,0.0,0.0,0.0,1.4822,1.5235,1.4929,1.4412,1.4622,1.4696,1.4745,1.5003,1.5144,1.5032,1.4192,1.3602,1.3046,1.2347,1.1167,1.0025,0.9494,0.0,0.7893,0.7111,0.6985,0.692,0.6654,0.6576,0.6541,0.6542,0.0,0.0,0.5452,0.4777,0.4114,0.3512,0.3151,0.2749,0.0,0.0,0.199,0.1817,0.1639,0.1346,0.0976,0.1178,0.1111,0.074,0.0404,0.0202,0.0202,0.0067,0.0,0.0,0.0,0.0,0.0,0.0,-0.0223,-0.0592,-0.0588,-0.0833,0.0,-0.1203,-0.1357,-0.1604,-0.1604,-0.1758,-0.2004,-0.2004,-0.1947,-0.1938,0.0,0.0,0.0,0.0,0.0,2.3815,2.4422,2.5607,2.6639,2.7296,2.7704,2.7499,2.634,2.6045,2.5487,2.4426,2.3906,0.0,0.0,0.0,0.0,0.0,0.0,0.0,0.0,0.0,2.1031,2.0595,2.0284,1.9804,0.0,0.0,0.0,0.0,0.0,0.0,0.0,0.0,0.0,0.0,0.0,0.0,0.0,0.0,0.0,0.0,0.0,0.0,0.0,0.0,0.0,1.3939,0.0,0.0,0.0,0.0,1.4271,1.4129,1.3471,1.2758,1.2056,1.1462,1.0348,0.923,0.8655,0.0,0.7326,0.6385,0.6296,0.6281,0.5901,0.5737,0.5666,0.5686,0.0,0.4783,0.4553,0.4167,0.3634,0.2931,0.0,0.2604,0.19,0.1802,0.1691,0.1427,0.1206,0.0909,0.0505,0.0774,0.074,0.037,0.0135,0.0,0.0,0.0,0.0,0.0,-0.0236,-0.0333,-0.0327,-0.0518,-0.0894,-0.1313,-0.1301,-0.1573,0.0,-0.2004,-0.2127,-0.2281,-0.2281,-0.2405,-0.256,-0.256,-0.2535,-0.2555,0.0,0.0,0.0,0.0,0.0,0.0,2.4362,2.4958,2.5637,2.6509,2.6633,2.6281,2.5408,2.5126,2.4714,2.3979,2.3426,0.0,0.0,0.0,0.0,0.0,0.0,0.0,0.0,0.0,2.0372,1.9902,1.932,1.9022,1.9002,1.8594,1.8262,0.0,0.0,0.0,0.0,0.0,0.0,0.0,0.0,0.0,0.0,0.0,0.0,0.0,0.0,0.0,0.0,0.0,0.0,0.0,0.0,0.0,0.0,0.0,1.3182,1.2783,1.2663,1.1841,1.1006,1.0913,0.9656,0.8282,0.7729,0.7087,0.6437,0.5836,0.6074,0.6251,0.5788,0.5639,0.5616,0.5685,0.504,0.0,0.4589,0.4091,0.3449,0.0,0.281,0.2502,0.1509,0.1163,0.1,0.1,0.106,0.0,0.0505,0.0505,0.0337,0.0,0.0,0.0,0.0,0.0,0.0,0.0,-0.074,-0.1077,-0.1109,-0.1765,-0.2096,-0.2092,-0.203,-0.2004,0.0,-0.2004,-0.2405,-0.2992,-0.2992,-0.3363,-0.3889,-0.3889,-0.3882,-0.3882,0.0,0.0,0.0,0.0,0.0,0.0,2.3457,2.4444,2.5266,2.554,2.6046,2.6068,2.5191,2.504,2.4591,2.3582,2.3209,0.0,0.0,0.0,0.0,0.0,0.0,0.0,0.0,2.0088,1.9784,1.9479,1.9575,1.9273,1.8583,1.8562,1.8271,1.776,1.7253,0.0,0.0,0.0,0.0,0.0,0.0,0.0,0.0,0.0,0.0,0.0,0.0,0.0,0.0,0.0,0.0,0.0,0.0,0.0,0.0,1.1351,1.1496,1.1682,1.091,1.0274,0.9698,0.9133,0.8175,0.731,0.7052,0.6432,0.5783,0.5322,0.5235,0.5146,0.481,0.4618,0.4484,0.4415,0.406,0.3804,0.3786,0.3467,0.3096,0.2794,0.2495,0.2061,0.1522,0.1198,0.0897,0.0686,0.0462,0.03,0.0168,0.0168,0.0101,0.0,0.0,0.0,0.0,-0.0505,-0.074,-0.0774,-0.1466,-0.1782,-0.1797,-0.1955,-0.2274,-0.2721,-0.2694,-0.293,-0.3301,-0.3301,-0.3425,-0.3611,-0.3611,-0.3734,-0.3889,-0.3889,-0.3913,-0.3882,0.0,0.0,0.0,0.0,0.0,0.0,2.2879,2.3625,2.4214,2.4294,2.4689,2.4704,2.4084,2.3766,2.3332,2.2604,2.2336,0.0,0.0,0.0,0.0,0.0,0.0,0.0,1.9794,1.9597,1.9404,1.927,1.9348,1.9121,1.8551,1.8408,1.8054,1.752,1.6958,1.6566,0.0,0.0,0.0,0.0,0.0,0.0,1.4466,0.0,0.0,0.0,0.0,0.0,0.0,0.0,0.0,0.0,0.0,0.0,0.0,0.0,0.9772,1.0071,0.9891,0.9425,0.8842,0.816,0.7431,0.0,0.6237,0.5745,0.5275,0.4958,0.4792,0.4614,0.4344,0.4051,0.3827,0.3798,0.3559,0.3381,0.339,0.331,0.3152,0.286,0.2094,0.1512,0.1323,0.0884,0.0542,0.0326,-0.0131,-0.0362,-0.0367,-0.0631,-0.0762,-0.0762,-0.0499,-0.0501,-0.0801,-0.1229,-0.1424,-0.1457,-0.2134,-0.2473,-0.2482,-0.2667,-0.298,-0.3389,-0.334,-0.3549,0.0,-0.3889,-0.3889,-0.3889,-0.3889,-0.3889,-0.3889,-0.3889,-0.3896,-0.3913,0.0,0.0,0.0,0.0,0.0,0.0,0.0,2.263,2.2713,2.2844,2.2758,2.2571,2.2332,2.1705,2.1269,2.1206,2.098,0.0,0.0,0.0,0.0,0.0,0.0,0.0,1.9547,1.935,1.9202,1.9168,1.8785,1.8668,1.8753,1.8177,1.7675,1.7262,1.6814,1.6216,1.5505,1.5145,1.4725,1.4315,1.4309,1.4054,0.0,0.0,0.0,0.0,0.0,0.0,0.0,0.0,0.0,0.0,0.0,0.0,0.0,0.0,0.0,0.0,0.0,0.9054,0.8247,0.7797,0.7183,0.6445,0.5424,0.5087,0.0,0.475,0.4683,0.4592,0.4322,0.3926,0.3666,0.3767,0.3472,0.3274,0.3395,0.3546,0.3433,0.2915,0.1738,0.0979,0.0943,0.0378,-0.0032,-0.0129,-0.0708,-0.1069,-0.1085,-0.1657,-0.2032,-0.2064,-0.1469,-0.1446,-0.2073,-0.2078,-0.2064,-0.2096,-0.2803,-0.3156,-0.3188,-0.3741,-0.3997,0.0,-0.3942,-0.3889,-0.3889,-0.3889,-0.3889,-0.3889,-0.3889,-0.3889,-0.3889,-0.3889,-0.3887,-0.3927,0.0,0.0,0.0,0.0,0.0,0.0,0.0,0.0,0.0,0.0,2.2019,2.2085,2.1466,2.1255,2.0921,0.0,0.0,0.0,0.0,0.0,0.0,0.0,0.0,0.0,1.892,1.8703,1.8646,1.8738,1.8757,1.8657,1.8486,1.8029,1.753,1.6964,1.6092,1.5047,1.3935,1.3836,1.3338,1.258,1.243,1.2416,0.0,0.0,0.0,0.0,1.1706,1.17,0.0,0.0,0.0,0.0,0.0,0.0,0.0,0.0,0.7714,0.7587,0.778,0.0,0.6888,0.6589,0.6199,0.5769,0.0,0.0,0.0,0.0,0.0,0.0,0.0,0.395,0.3816,0.3536,0.3497,0.3478,0.3422,0.319,0.2827,0.2278,0.1927,0.134,0.0341,0.0093,-0.0437,-0.1457,-0.168,-0.1755,-0.1749,-0.1906,-0.2257,-0.2838,-0.2625,-0.2371,-0.2042,-0.252,-0.2806,-0.2838,-0.3474,-0.3803,-0.3802,-0.3871,-0.3939,-0.3908,-0.3895,-0.3889,-0.3889,-0.3889,-0.3889,-0.3889,-0.3889,-0.3889,-0.3889,-0.3889,-0.389,-0.3901,0.0,0.0,0.0,0.0,0.0,0.0,0.0,0.0,0.0,0.0,2.1133,2.1033,2.0473,2.011,1.9678,0.0,0.0,0.0,0.0,0.0,0.0,0.0,0.0,1.8973,1.8571,1.8233,1.8182,1.8362,1.8232,1.8187,1.824,1.7756,1.7213,1.6623,1.5459,1.4482,1.3695,1.3349,1.2811,1.2165,1.1822,0.0,0.0,0.0,0.0,0.0,1.0671,1.0718,0.0,1.0321,1.0208,1.0176,0.0,0.0,0.0,0.0,0.713,0.6915,0.6825,0.6745,0.6555,0.6033,0.5764,0.5473,0.494,0.0,0.0,0.0,0.0,0.0,0.0,0.3807,0.364,0.3462,0.3443,0.3396,0.3158,0.267,0.2081,0.1398,0.1029,0.0468,-0.0561,-0.0681,-0.1055,-0.1921,-0.2131,-0.2293,-0.2457,-0.2728,-0.3066,-0.3447,-0.342,-0.3239,-0.2935,-0.3235,-0.3447,-0.3478,-0.3793,-0.3965,-0.3963,-0.3903,-0.3889,-0.3889,-0.3889,-0.3889,-0.3889,-0.3889,-0.3889,-0.3889,-0.3889,-0.3889,-0.3916,-0.4041,-0.4098,-0.4115,0.0,0.0,0.0,0.0,0.0,0.0,0.0,0.0,0.0,0.0,0.0,0.0,0.0,0.0,0.0,0.0,0.0,0.0,0.0,0.0,0.0,0.0,1.8827,1.8663,1.8262,1.784,1.7755,1.7983,1.7663,1.771,1.8109,1.7459,1.6731,1.594,1.4665,1.3942,1.3631,1.2982,1.2443,1.1999,1.1607,0.0,0.0,0.0,0.0,0.0,0.0,0.0,0.0,0.9862,0.9591,0.9204,0.8765,0.0,0.0,0.0,0.0,0.0,0.6238,0.6432,0.6511,0.5816,0.5564,0.5314,0.4595,0.0,0.0,0.0,0.0,0.0,0.0,0.3623,0.0,0.3431,0.3271,0.2945,0.2484,0.1954,0.1295,0.0532,-0.0093,-0.0683,-0.135,-0.146,-0.1705,-0.2198,-0.2485,-0.2792,-0.3111,-0.3636,-0.3889,-0.3889,-0.3889,-0.3938,-0.3976,-0.3939,-0.3889,-0.3889,-0.3889,-0.3915,-0.3905,-0.3905,-0.3901,-0.3892,0.0,0.0,-0.3892,-0.3892,-0.3892,-0.3892,-0.3892,-0.3922,-0.3977,-0.4192,-0.4314,-0.4407,0.0,0.0,0.0,0.0,0.0,0.0,0.0,0.0,0.0,0.0,0.0,0.0,0.0,0.0,0.0,0.0,0.0,0.0,0.0,0.0,0.0,1.7739,1.8,1.7979,1.7554,1.7357,1.7352,1.7517,1.778,1.8008,1.8164,1.7325,1.5957,1.416,1.3142,1.2336,1.1714,1.1435,1.0939,1.0359,1.0294,0.0,0.0,0.0,0.0,0.0,0.0,0.0,0.0,0.8668,0.8637,0.8608,0.7985,0.0,0.0,0.0,0.0,0.0,0.5855,0.5751,0.566,0.5423,0.5171,0.4924,0.4645,0.0,0.0,0.0,0.0,0.0,0.0,0.3591,0.343,0.3281,0.271,0.1919,0.0923,0.0668,0.0491,0.0124,0.0,-0.0438,-0.1393,-0.1482,-0.2006,-0.3188,-0.3306,-0.3459,-0.3747,-0.3863,-0.3889,-0.3889,-0.3889,-0.39,-0.3917,-0.3899,-0.3889,-0.3889,-0.3889,-0.3893,-0.3904,-0.3904,-0.3876,-0.3827,0.0,-0.3827,-0.3827,-0.3827,-0.3827,-0.3827,-0.3827,-0.3942,-0.4146,-0.4195,-0.436,-0.4557,0.0,0.0,0.0,0.0,0.0,0.0,0.0,0.0,0.0,0.0,0.0,0.0,0.0,0.0,0.0,0.0,0.0,0.0,0.0,0.0,1.6879,1.6968,1.7065,1.7241,1.7436,1.7167,1.7201,1.7508,1.714,1.7113,1.7306,1.6038,1.4738,1.3427,1.2679,1.2038,1.1478,1.0982,1.0533,1.0125,0.0,0.0,0.0,0.0,0.0,0.0,0.0,0.0,0.0,0.0,0.8108,0.817,0.7496,0.0,0.0,0.0,0.0,0.0,0.5771,0.5544,0.5367,0.5264,0.5074,0.4864,0.4682,0.0,0.0,0.0,0.0,0.0,0.0,0.3128,0.2962,0.247,0.1675,0.0884,0.021,-0.0152,-0.055,-0.1017,-0.1396,-0.1864,-0.2531,-0.259,-0.2889,-0.366,-0.3535,-0.3552,-0.3824,-0.3853,-0.3853,-0.3853,-0.3853,-0.3839,-0.384,-0.3838,-0.3853,-0.3853,-0.3853,-0.3838,-0.384,-0.3988,-0.4059,-0.4032,0.0,-0.4178,-0.4002,-0.4002,-0.3943,-0.3829,-0.3973,-0.4089,-0.4229,-0.4369,-0.4569,-0.4699,0.0,0.0,0.0,0.0,0.0,0.0,0.0,0.0,0.0,0.0,0.0,0.0,0.0,0.0,0.0,0.0,0.0,0.0,0.0,1.613,1.6222,1.6244,1.6297,1.6599,1.7167,1.6842,1.684,1.7169,1.6464,1.6139,1.6125,1.4546,1.3467,1.2814,1.2143,1.1658,1.1327,1.0657,1.0272,1.0098,0.0,0.0,0.0,0.0,0.0,0.0,0.0,0.0,0.0,0.0,0.0,0.0,0.0,0.0,0.0,0.6174,0.5994,0.595,0.5629,0.5411,0.5272,0.5112,0.4921,0.4745,0.0,0.0,0.0,0.0,0.0,0.0,0.0,0.2768,0.2372,0.1519,0.0676,-0.0029,-0.045,-0.0998,-0.1553,-0.2063,-0.2613,-0.3069,-0.3346,-0.3334,-0.3462,-0.3752,-0.3509,-0.3489,-0.3773,-0.3799,-0.3799,-0.3799,-0.3799,-0.3822,-0.3865,-0.3865,-0.3843,-0.3799,-0.3857,-0.3879,-0.3894,-0.4154,-0.4289,-0.4274,-0.4536,-0.4507,-0.4274,-0.4274,-0.4101,-0.3873,-0.4072,-0.4159,-0.4182,-0.4473,-0.4616,-0.4623,0.0,0.0,0.0,0.0,0.0,0.0,0.0,0.0,0.0,0.0,0.0,0.0,0.0,0.0,0.0,0.0,0.0,0.0,0.0,1.5634,1.5859,1.5505,1.5885,1.6177,1.6291,1.6077,1.5934,1.5842,1.609,1.5725,1.481,1.3314,1.2338,1.1772,1.0843,1.0439,1.0381,0.9886,0.9668,0.9624,0.9388,0.0,0.0,0.0,0.0,0.0,0.0,0.0,0.0,0.0,0.0,0.0,0.0,0.0,0.6421,0.5888,0.5733,0.5624,0.5163,0.5177,0.519,0.4754,0.4537,0.0,0.4429,0.4223,0.0,0.4017,0.0,0.0,0.0,0.2774,0.1763,0.06,-0.0085,-0.0738,-0.1655,-0.2137,-0.2402,-0.2466,-0.2741,-0.2928,-0.2928,-0.2889,-0.2981,-0.3332,-0.3332,-0.3449,-0.3768,-0.3799,-0.3799,-0.3799,-0.3799,-0.3889,-0.4089,-0.4089,-0.3975,-0.3799,-0.4059,-0.4145,-0.4089,-0.4431,-0.4534,-0.4468,-0.4496,-0.4496,-0.4468,-0.4468,-0.4273,-0.3996,-0.3996,-0.4024,-0.405,-0.4379,-0.4318,-0.4064,0.0,0.0,0.0,0.0,0.0,0.0,0.0,0.0,0.0,0.0,0.0,0.0,0.0,0.0,0.0,0.0,0.0,0.0,0.0,1.4667,1.4706,1.4599,1.4566,1.4727,1.5132,1.5358,1.5411,1.5264,1.4918,1.4234,1.3195,1.2199,1.1418,1.0797,1.0159,0.9834,0.9767,0.9354,0.9235,0.9308,0.8817,0.8508,0.0,0.0,0.0,0.0,0.0,0.0,0.0,0.0,0.6796,0.6643,0.6282,0.6209,0.6184,0.5805,0.5621,0.5456,0.5137,0.5053,0.4985,0.4739,0.4404,0.0,0.0,0.4259,0.4039,0.3904,0.3367,0.0,0.0,0.1214,0.0188,0.0083,-0.0712,-0.1518,-0.2077,-0.2449,-0.2696,-0.2696,-0.313,-0.3386,-0.3177,-0.3309,-0.3518,-0.3773,-0.3799,-0.3927,-0.4227,-0.4027,-0.3913,-0.3913,-0.3913,-0.3959,-0.4048,-0.4242,-0.4312,-0.4224,-0.4338,-0.4268,-0.4048,-0.4553,-0.4762,-0.4761,-0.4959,-0.4931,-0.4761,-0.4761,-0.4454,-0.401,-0.401,-0.412,-0.4314,-0.4231,-0.412,-0.398,0.0,0.0,0.0,0.0,0.0,0.0,0.0,0.0,0.0,0.0,0.0,0.0,0.0,0.0,0.0,0.0,0.0,0.0,1.4057,1.3959,1.3949,1.3999,1.3601,1.3589,1.405,1.3999,1.4149,1.4523,1.3616,1.2766,1.1959,1.1216,1.0599,1.014,0.9732,0.9582,0.9562,0.9165,0.9023,0.903,0.8448,0.8113,0.0,0.0,0.0,0.0,0.0,0.0,0.0,0.0,0.6487,0.6314,0.6053,0.6,0.5978,0.5696,0.5394,0.5139,0.501,0.4779,0.4558,0.455,0.0,0.0,0.3899,0.3659,0.3389,0.3075,0.2459,0.1837,0.1358,0.0,-0.0727,-0.0526,-0.1332,-0.2079,-0.2394,-0.273,-0.2972,-0.2972,-0.3517,-0.38,-0.3565,-0.3838,-0.4068,-0.4222,-0.4115,-0.4175,-0.448,-0.4154,-0.3976,-0.3976,-0.4081,-0.4137,-0.4117,-0.447,-0.462,-0.462,-0.4733,-0.4622,-0.4288,-0.4819,-0.4987,-0.4901,-0.5156,-0.507,-0.4761,-0.4761,-0.4454,-0.3982,-0.3896,-0.4007,-0.4201,-0.3951,-0.3868,-0.3841,0.0,0.0,0.0,0.0,0.0,0.0,0.0,0.0,0.0,0.0,0.0,0.0,0.0,0.0,0.0,0.0,0.0,0.0,1.3492,1.3605,1.3713,1.3783,1.3204,1.2932,1.3085,1.1915,1.2001,1.3471,1.2204,1.1487,1.1282,1.0334,0.9858,0.9773,0.9594,0.9616,0.9778,0.9376,0.9046,0.8763,0.8359,0.7918,0.7507,0.0,0.0,0.0,0.0,0.0,0.0,0.0,0.6192,0.623,0.5816,0.5789,0.5831,0.5494,0.5077,0.4696,0.4703,0.4248,0.3854,0.4118,0.0,0.0,0.2716,0.2289,0.1954,0.1389,0.1078,0.0772,0.0373,-0.016,-0.0696,-0.1308,-0.1913,-0.2386,-0.2675,-0.3059,-0.3293,-0.3294,-0.3772,-0.4109,-0.4082,-0.4329,-0.4508,-0.4507,-0.4137,-0.4073,-0.4474,-0.4134,-0.3906,-0.3906,-0.4301,-0.4471,-0.4402,-0.4722,-0.4899,-0.4899,-0.5238,-0.521,-0.4901,-0.524,-0.5212,-0.4901,-0.4901,-0.4761,-0.4508,-0.4508,-0.4314,-0.398,-0.3699,-0.3587,-0.3587,-0.3587,-0.3587,-0.3587,0.0,0.0,0.0,0.0,0.0,0.0,0.0,0.0,0.0,0.0,0.0,0.0,0.0,0.0,0.0,0.0,0.0,0.0,1.2881,1.2366,1.2202,1.2454,1.171,1.1539,1.2098,1.1262,1.1014,1.1472,1.1033,1.0647,1.0311,0.9837,0.9526,0.938,0.9259,0.9323,0.9492,0.8931,0.871,0.8679,0.7986,0.7613,0.7484,0.0,0.0,0.0,0.0,0.0,0.0,0.0,0.0,0.0,0.5788,0.5735,0.5709,0.5471,0.5169,0.4893,0.479,0.4156,0.3559,0.3678,0.0,0.0,0.0,0.1713,0.0,0.0,0.019,0.0108,-0.0453,-0.1022,-0.1461,-0.1585,-0.2107,-0.261,-0.2944,-0.3037,-0.3173,-0.3405,-0.3757,-0.3902,-0.3751,-0.3991,-0.4128,-0.4077,-0.4137,-0.4303,-0.462,-0.4516,-0.445,-0.445,-0.4579,-0.4529,-0.4322,-0.4609,-0.4674,-0.4489,-0.457,-0.4709,-0.4901,-0.524,-0.5212,-0.4901,-0.4901,-0.4761,-0.4479,-0.4258,-0.4092,-0.398,-0.3699,-0.3587,-0.3587,-0.3587,-0.3587,-0.3587,0.0,0.0,0.0,0.0,0.0,0.0,0.0,0.0,0.0,0.0,0.0,0.0,0.0,0.0,0.0,0.0,0.0,0.0,1.2378,1.1688,1.1429,1.1736,1.0829,1.0418,1.0573,1.0178,0.9881,0.968,1.0005,0.9972,0.9627,0.9466,0.9311,0.9167,0.9097,0.9187,0.936,0.8703,0.8444,0.8406,0.7871,0.7525,0.7323,0.0,0.0,0.0,0.0,0.0,0.0,0.0,0.0,0.0,0.5777,0.5688,0.5621,0.524,0.481,0.4381,0.4112,0.3354,0.268,0.2828,0.2356,0.1594,0.0702,0.0,0.0,0.0,-0.0815,-0.0782,-0.1147,-0.1603,-0.1952,-0.2052,-0.2446,-0.287,-0.3169,-0.3194,-0.3245,-0.3462,-0.3747,-0.384,-0.374,-0.3972,-0.4104,-0.4061,-0.4085,-0.4274,-0.468,-0.4571,-0.4554,-0.4659,-0.4797,-0.472,-0.4429,-0.4612,-0.4629,-0.4471,-0.434,-0.4416,-0.4669,-0.4897,-0.4829,-0.4495,-0.4414,-0.4286,-0.4117,-0.3923,-0.3841,-0.3813,-0.3671,-0.3587,-0.3587,-0.3587,-0.3587,-0.3587,0.0,0.0,0.0,0.0,0.0,0.0,0.0,0.0,0.0,0.0,0.0,0.0,0.0,0.0,0.0,0.0,0.0,0.0,0.0,1.1279,1.1042,1.129,1.0329,0.9524,0.8899,0.8905,0.87,0.8247,0.909,0.9351,0.9086,0.9137,0.9117,0.9034,0.9017,0.914,0.932,0.8581,0.8213,0.8113,0.7901,0.7544,0.7165,0.737,0.0,0.0,0.0,0.0,0.0,0.0,0.0,0.0,0.5802,0.5694,0.5561,0.4937,0.4225,0.3574,0.3131,0.2279,0.1582,0.1809,0.162,0.1113,0.0152,-0.0721,-0.1417,-0.172,-0.1749,-0.1703,-0.1754,-0.1969,-0.2246,-0.2598,-0.2871,-0.3111,-0.335,-0.3399,-0.3417,-0.35,-0.3753,-0.3931,-0.392,-0.4166,-0.431,-0.4277,-0.4029,-0.4093,-0.4654,-0.4406,-0.437,-0.4604,-0.491,-0.4914,-0.458,-0.465,-0.4657,-0.4605,-0.4344,-0.4214,-0.4217,-0.4327,-0.4203,-0.3884,-0.3661,-0.3578,-0.3587,-0.358,-0.3582,-0.3587,-0.3587,-0.3587,-0.3587,-0.3587,-0.3587,-0.3587,0.0,0.0,0.0,0.0,0.0,0.0,0.0,0.0,0.0,0.0,0.0,0.0,0.0,0.0,0.0,0.0,0.0,0.0,0.0,1.0011,0.9707,0.9771,0.9344,0.8992,0.8756,0.8385,0.811,0.7915,0.836,0.8449,0.8198,0.8605,0.8699,0.8488,0.8846,0.902,0.9024,0.825,0.8109,0.8336,0.7582,0.7323,0.7393,0.7257,0.7121,0.0,0.0,0.0,0.0,0.0,0.0,0.0,0.5933,0.5719,0.548,0.5174,0.4638,0.4107,0.3887,0.2801,0.1731,0.1665,0.0636,-0.0414,-0.0657,-0.1173,-0.1635,-0.1713,-0.172,-0.183,-0.2249,-0.242,-0.2641,-0.3084,-0.321,-0.3262,-0.3315,-0.3274,-0.3343,-0.3635,-0.3945,-0.4123,-0.4144,-0.4427,-0.4471,-0.4176,-0.4261,-0.4387,-0.4467,-0.4597,-0.4688,-0.4764,-0.4833,-0.4733,-0.4441,-0.4456,-0.4262,-0.3831,-0.378,-0.3627,-0.3451,-0.4039,-0.4155,-0.3879,-0.3573,-0.3501,-0.3583,-0.3536,-0.3544,-0.3587,-0.3587,-0.3587,-0.3587,-0.3587,-0.3587,-0.3587,0.0,0.0,0.0,0.0,0.0,0.0,0.0,0.0,0.0,0.0,0.0,0.0,0.0,0.0,0.0,0.0,0.0,0.0,0.0,0.0,0.8776,0.8553,0.8472,0.8344,0.8182,0.7862,0.7575,0.733,0.7471,0.7654,0.791,0.8329,0.8475,0.844,0.8333,0.8425,0.8594,0.7673,0.7484,0.777,0.7199,0.686,0.6733,0.682,0.6798,0.6733,0.6932,0.0,0.0,0.0,0.0,0.0,0.0,0.0,0.5654,0.5225,0.4746,0.4174,0.3438,0.254,0.1634,0.0999,0.0,-0.0375,-0.0758,-0.0961,-0.116,-0.14,-0.1592,-0.1827,-0.2184,-0.2369,-0.2587,-0.2995,-0.3153,-0.3202,-0.3205,-0.3282,-0.341,-0.3627,-0.3915,-0.4123,-0.4145,-0.4276,-0.4272,-0.4018,-0.414,-0.4248,-0.4356,-0.4476,-0.4625,-0.475,-0.4789,-0.4716,-0.4554,-0.4445,-0.4262,-0.3987,-0.371,-0.3534,-0.3411,-0.3689,-0.3772,-0.3644,-0.3479,-0.3447,-0.3501,-0.3469,-0.3474,-0.3503,-0.3503,-0.3521,-0.3544,-0.3544,-0.3563,-0.3587,0.0,0.0,0.0,0.0,0.0,0.0,0.0,0.0,0.0,0.0,0.0,0.0,0.0,0.0,0.0,0.0,0.0,0.0,0.0,0.0,0.0,0.7555,0.763,0.7577,0.7392,0.7239,0.696,0.6603,0.66,0.6921,0.7503,0.7862,0.8122,0.8225,0.7598,0.7563,0.7901,0.6942,0.6693,0.6962,0.67,0.6348,0.5964,0.631,0.6387,0.6328,0.665,0.6879,0.6999,0.6827,0.0,0.0,0.0,0.0,0.575,0.5188,0.4744,0.4163,0.2891,0.2121,0.1425,0.0403,0.0238,0.0,-0.0572,-0.062,-0.0667,-0.1092,-0.141,-0.17,-0.1991,-0.2197,-0.2429,-0.2791,-0.2993,-0.3091,-0.3092,-0.332,-0.3512,-0.362,-0.3822,-0.4021,-0.4186,-0.4093,-0.4031,-0.4028,-0.4034,-0.4135,-0.4341,-0.4341,-0.4465,-0.4685,-0.4728,-0.473,-0.4685,-0.4525,-0.4418,-0.4368,-0.3857,-0.3611,-0.3587,-0.3386,-0.3338,-0.3448,-0.3438,-0.3419,-0.3412,-0.3401,-0.3402,-0.3413,-0.3413,-0.3441,-0.3481,-0.3481,-0.3514,-0.3557,0.0,0.0,0.0,0.0,0.0,0.0,0.0,0.0,0.0,0.0,0.0,0.0,0.0,0.0,0.0,0.0,0.0,0.0,0.0,0.0,0.0,0.6843,0.6797,0.6708,0.6559,0.6251,0.5992,0.5762,0.6094,0.6133,0.5924,0.6663,0.6959,0.6864,0.67,0.6638,0.6629,0.6065,0.6091,0.6451,0.603,0.5935,0.6057,0.5874,0.5985,0.6218,0.6282,0.6494,0.6738,0.6718,0.6228,0.0,0.0,0.0,0.5292,0.5211,0.4884,0.4424,0.3785,0.2419,0.1116,0.0,0.0381,-0.0024,0.0,0.0,-0.1091,-0.1119,-0.1185,-0.147,-0.2133,-0.2275,-0.2467,-0.2976,-0.3084,-0.3099,-0.3108,-0.3276,-0.3497,-0.3746,-0.3796,-0.4015,-0.4482,-0.4367,-0.4321,-0.45,-0.4566,-0.4576,-0.457,-0.4566,-0.4566,-0.4613,-0.4626,-0.4626,-0.4613,-0.4633,-0.4553,-0.4307,-0.3832,-0.3611,-0.3586,-0.3341,-0.3376,-0.3664,-0.361,-0.3497,-0.3409,-0.3329,-0.3339,-0.3413,-0.3413,-0.3417,-0.3424,-0.3424,-0.3428,-0.3436,0.0,0.0,0.0,0.0,0.0,0.0,0.0,0.0,0.0,0.0,0.0,0.0,0.0,0.0,0.0,0.0,0.0,0.0,0.0,0.0,0.0,0.6268,0.6299,0.6267,0.6125,0.5981,0.5746,0.544,0.5829,0.5757,0.5213,0.5639,0.5907,0.6029,0.5926,0.5939,0.5968,0.5506,0.5522,0.5811,0.5453,0.5264,0.5209,0.5316,0.548,0.569,0.5981,0.6153,0.6241,0.6205,0.5884,0.5474,0.537,0.0,0.0,0.0,0.4626,0.4128,0.3196,0.2108,0.1095,0.0,0.0454,0.025,-0.0276,-0.0576,-0.0781,-0.0865,-0.1008,-0.1364,-0.2106,-0.2252,-0.2425,-0.2996,-0.304,-0.3008,-0.304,-0.3351,-0.361,-0.3727,-0.4047,-0.4336,-0.4571,-0.4512,-0.4474,-0.4478,-0.4509,-0.4515,-0.4498,-0.4496,-0.4496,-0.4496,-0.457,-0.4572,-0.4496,-0.4587,-0.4536,-0.429,-0.3974,-0.3833,-0.381,-0.3558,-0.3422,-0.342,-0.3393,-0.3338,-0.3282,-0.3256,-0.3261,-0.3285,-0.3285,-0.3305,-0.3335,-0.3335,-0.3357,-0.3413,0.0,0.0,0.0,0.0,0.0,0.0,0.0,0.0,0.0,0.0,0.0,0.0,0.0,0.0,0.0,0.0,0.0,0.0,0.0,0.0,0.0,0.5729,0.5767,0.5752,0.5655,0.5616,0.5393,0.499,0.541,0.5241,0.4535,0.4778,0.4947,0.5033,0.5087,0.5232,0.5407,0.5013,0.4992,0.5193,0.5013,0.4811,0.4657,0.4896,0.5075,0.5231,0.5635,0.5767,0.0,0.0,0.0,0.5287,0.5131,0.512,0.0,0.0,0.0,0.3697,0.2739,0.1979,0.1299,0.0682,0.0645,0.0608,0.0,-0.0356,-0.0513,-0.0672,-0.0964,-0.1397,-0.2083,-0.2205,-0.2378,-0.2951,-0.2955,-0.2933,-0.3043,-0.3418,-0.3695,-0.374,-0.4139,-0.4457,-0.4527,-0.4501,-0.4453,-0.4385,-0.4399,-0.4401,-0.4379,-0.4377,-0.4377,-0.4377,-0.4467,-0.4471,-0.4379,-0.4491,-0.4498,-0.4388,-0.4177,-0.4041,-0.3982,-0.371,-0.3458,-0.3205,-0.3281,-0.3256,-0.3205,-0.3205,-0.3205,-0.3205,-0.3205,-0.3234,-0.3273,-0.3273,-0.3301,-0.334,0.0,0.0,0.0,0.0,0.0,0.0,0.0,0.0,0.0,0.0,0.0,0.0,0.7811,0.769,0.7043,0.5468,0.5662,0.5708,0.5361,0.5462,0.5451,0.5247,0.5056,0.0,0.4952,0.4824,0.457,0.4157,0.4622,0.4385,0.3485,0.4065,0.4056,0.3539,0.4108,0.4458,0.4636,0.4492,0.4538,0.4728,0.4725,0.481,0.4956,0.4783,0.4878,0.5112,0.5126,0.0,0.0,0.0,0.0,0.0,0.0,0.0,0.4804,0.0,0.0,0.0,0.3035,0.2437,0.0,0.1266,0.1059,0.0849,0.0369,-0.0218,-0.068,-0.0692,-0.1054,-0.1548,-0.2089,-0.2203,-0.2361,-0.2837,-0.2901,-0.2963,-0.3165,-0.3435,-0.3683,-0.3864,-0.3913,-0.4027,-0.4291,-0.4207,-0.4173,-0.4289,-0.4363,-0.4375,-0.431,-0.4306,-0.4306,-0.4306,-0.431,-0.431,-0.4306,-0.4373,-0.4509,-0.4683,-0.4417,-0.4187,-0.3982,-0.371,-0.3458,-0.3205,-0.3458,-0.3433,-0.3205,-0.3205,-0.3205,-0.3205,-0.3205,-0.3208,-0.3211,-0.3211,-0.3212,-0.3215,0.0,0.0,0.0,0.0,0.0,0.0,0.0,0.0,0.0,0.0,0.0,0.0,0.0,0.7046,0.6335,0.5407,0.5218,0.5042,0.4744,0.4894,0.4898,0.4695,0.4619,0.4464,0.4207,0.4271,0.4038,0.3466,0.4055,0.3958,0.3216,0.373,0.3791,0.3482,0.4059,0.4262,0.4223,0.4356,0.4406,0.4456,0.4636,0.4766,0.0,0.0,0.0,0.0,0.0,0.0,0.0,0.0,0.0,0.0,0.0,0.0,0.0,0.0,0.0,0.3072,0.0,0.0,0.0,0.1164,0.1061,0.0916,0.0106,-0.017,-0.0363,-0.0796,-0.1068,-0.138,-0.1964,-0.2112,-0.2287,-0.275,-0.2945,-0.3053,-0.3118,-0.3512,-0.3812,-0.3881,-0.4056,-0.4257,-0.4525,-0.4779,-0.5006,-0.5191,-0.5382,-0.5479,-0.546,-0.53,-0.5208,-0.5208,-0.5208,-0.5053,-0.4743,-0.5161,-0.5069,-0.4511,-0.501,-0.4792,-0.3936,-0.4061,-0.3781,-0.3205,-0.3306,-0.3281,-0.3205,-0.3205,-0.3205,-0.3205,-0.3205,-0.3205,-0.3205,-0.3205,-0.3205,-0.3205,0.0,0.0,0.0,0.0,0.0,0.0,0.0,0.0,0.0,0.8267,0.0,0.0,0.0,0.0,0.5607,0.5049,0.4677,0.4447,0.4399,0.4465,0.4465,0.4404,0.4187,0.3934,0.3665,0.3667,0.3372,0.28,0.3339,0.3305,0.2742,0.3087,0.3263,0.329,0.3711,0.3956,0.4041,0.4225,0.436,0.4438,0.4559,0.0,0.4901,0.0,0.0,0.0,0.0,0.0,0.0,0.0,0.0,0.0,0.0,0.0,0.0,0.0,0.0,0.0,0.2589,0.0,0.0,0.0,0.1219,0.1009,0.0265,0.0041,-0.0186,-0.0692,-0.1007,-0.1361,-0.1899,-0.2085,-0.23,-0.2709,-0.2944,-0.3092,-0.3198,-0.3566,-0.3864,-0.3929,-0.4081,-0.4355,-0.472,-0.5117,-0.5461,-0.5808,-0.6058,-0.6171,-0.6105,-0.5924,-0.5788,-0.5697,-0.5697,-0.5542,-0.5233,-0.5643,-0.5522,-0.4919,-0.5546,-0.5341,-0.4411,-0.4637,-0.4282,-0.3457,-0.3457,-0.3356,-0.3205,-0.3205,-0.3205,-0.3205,-0.3205,-0.3155,-0.3079,-0.3155,-0.3155,-0.3079,0.0,0.0,0.0,0.0,0.0,0.0,0.0,0.0,0.7475,0.7469,0.0,0.0,0.0,0.0,0.0,0.4244,0.3947,0.3958,0.4345,0.4192,0.4155,0.4345,0.372,0.3368,0.3349,0.2981,0.2589,0.2176,0.2449,0.2376,0.1993,0.213,0.2414,0.2788,0.2985,0.3451,0.4053,0.4083,0.4313,0.4647,0.0,0.4666,0.5069,0.0,0.0,0.0,0.4784,0.468,0.0,0.4851,0.0,0.0,0.0,0.0,0.0,0.0,0.0,0.0,0.0,0.0,0.0,0.0,0.0,0.0,0.0931,0.0372,-0.0139,-0.0374,-0.094,-0.1507,-0.1917,-0.2163,-0.2372,-0.2645,-0.2857,-0.3088,-0.3357,-0.357,-0.3762,-0.3973,-0.3994,-0.4238,-0.4849,-0.5112,-0.548,-0.6068,-0.6318,-0.634,-0.6149,-0.6127,-0.6013,-0.5741,-0.5741,-0.5741,-0.5719,-0.5741,-0.5801,-0.5896,-0.5924,-0.5748,-0.5409,-0.5411,-0.4901,-0.4033,-0.4033,-0.3732,-0.3256,-0.3205,-0.3205,-0.3205,-0.318,-0.3029,-0.2826,-0.3079,-0.3029,-0.2851,0.0,0.0,0.0,0.0,0.0,0.8215,0.7763,0.7167,0.6785,0.0,0.0,0.0,0.5101,0.4534,0.4062,0.3798,0.3785,0.3704,0.3471,0.3587,0.3546,0.3255,0.3059,0.2764,0.2331,0.2352,0.2098,0.1551,0.1918,0.1981,0.1791,0.1968,0.2144,0.2294,0.2509,0.2694,0.2902,0.3539,0.3746,0.3637,0.3985,0.4239,0.0,0.0,0.0,0.0,0.0,0.4651,0.4866,0.0,0.4858,0.5194,0.0,0.0,0.0,0.0,0.0,0.0,0.2991,0.0,0.0,0.0,0.0,0.0,0.0573,0.0396,0.0192,-0.0603,-0.0827,-0.1071,-0.1609,-0.1867,-0.208,-0.2306,-0.272,-0.3017,-0.3098,-0.3328,-0.3551,-0.376,-0.4032,-0.4417,-0.4928,-0.5601,-0.6184,0.0,-0.6922,-0.7074,-0.7098,-0.6925,-0.6789,-0.6719,-0.6719,-0.6542,-0.6207,-0.6542,-0.6383,-0.5771,-0.6587,-0.6403,-0.5351,-0.5785,-0.5463,-0.4583,-0.4583,-0.4483,-0.4309,-0.3531,-0.3205,-0.318,-0.2977,-0.2876,-0.2775,-0.2674,-0.2951,-0.3377,0.0,0.0,0.0,0.0,0.0,0.7825,0.7312,0.6739,0.6304,0.0,0.0,0.0,0.4301,0.3935,0.3693,0.3641,0.3356,0.3097,0.291,0.2786,0.2613,0.2433,0.2336,0.21,0.1667,0.1648,0.1492,0.1139,0.1375,0.1444,0.1364,0.1518,0.1658,0.1763,0.1926,0.2039,0.215,0.2764,0.3089,0.0,0.3503,0.0,0.0,0.4223,0.4244,0.0,0.0,0.0,0.476,0.47,0.4965,0.0,0.0,0.0,0.0,0.0,0.0,0.0,0.0,0.0,0.0,0.0,0.0,0.0,0.0947,0.0695,0.0374,-0.0302,-0.0644,-0.0979,-0.1497,-0.1773,-0.1964,-0.2131,-0.2426,-0.2684,-0.2898,-0.3221,-0.3552,-0.384,-0.4141,-0.4623,-0.5305,-0.5902,-0.6455,-0.6947,-0.7211,-0.7367,-0.7418,-0.7219,-0.7095,-0.7095,-0.7095,-0.6962,-0.6697,-0.6962,-0.683,-0.6299,-0.6962,-0.6784,-0.5849,-0.6272,-0.5958,-0.5106,-0.5118,-0.501,-0.4734,-0.4009,-0.3709,-0.3684,-0.3531,-0.333,-0.3127,-0.3077,-0.3302,-0.3629,0.0,0.0,0.8636,0.7875,0.7862,0.7662,0.6734,0.6315,0.5918,0.0,0.445,0.3792,0.3687,0.362,0.3593,0.3626,0.2827,0.2382,0.2533,0.1932,0.163,0.1773,0.1616,0.142,0.1222,0.0986,0.0887,0.0907,0.0904,0.0904,0.0904,0.0963,0.1074,0.1258,0.1303,0.0,0.163,0.1881,0.0,0.3002,0.2996,0.3146,0.0,0.0,0.381,0.3381,0.4334,0.4487,0.4351,0.4877,0.5164,0.0,0.0,0.0,0.0,0.0,0.3916,0.0,0.0,0.0,0.0,0.0,0.0,0.0,0.1655,0.1113,0.0497,0.0225,-0.0385,-0.1016,-0.1423,-0.1666,-0.1868,-0.2019,-0.2073,-0.2261,-0.2709,-0.317,-0.3596,-0.4007,-0.4303,-0.4833,-0.5755,-0.6075,-0.6445,-0.699,-0.7227,-0.7332,-0.7304,-0.7192,-0.7143,-0.7143,-0.7143,-0.7139,-0.7095,-0.7095,-0.7095,-0.7095,-0.7076,-0.6908,-0.6594,-0.6707,-0.6318,-0.5542,-0.5618,-0.5361,-0.486,-0.4638,-0.4489,-0.4388,-0.4338,-0.4008,-0.3629,-0.3831,-0.3806,-0.3754,0.0,0.9054,0.8576,0.803,0.7847,0.749,0.6717,0.5962,0.5307,0.4815,0.403,0.3506,0.3532,0.352,0.3429,0.324,0.2698,0.231,0.2133,0.1643,0.1279,0.1111,0.1051,0.095,0.0748,0.0687,0.0748,0.091,0.0892,0.0904,0.0904,0.0907,0.0949,0.0969,0.0814,0.0876,0.1057,0.0,0.0,0.1789,0.2265,0.2598,0.2846,0.3034,0.3281,0.3559,0.3761,0.3925,0.4127,0.4608,0.4929,0.5127,0.0,0.0,0.0,0.4451,0.0,0.0,0.0,0.0,0.0,0.0,0.0,0.0,0.161,0.1292,0.0861,0.0184,-0.0094,-0.0322,-0.0724,-0.1087,-0.1395,-0.158,-0.1884,-0.2232,-0.2584,-0.2957,-0.3325,-0.3728,-0.4486,-0.5098,-0.5468,-0.5976,-0.6379,-0.6606,-0.685,-0.709,-0.7286,-0.7374,-0.7415,-0.7415,-0.7415,-0.7323,-0.7095,-0.7095,-0.7095,-0.7095,-0.6944,-0.6777,-0.6594,-0.6517,-0.6241,-0.583,-0.5894,-0.5739,-0.5436,-0.5386,-0.4987,-0.4363,-0.3932,-0.3704,-0.3578,-0.3405,-0.3734,-0.4261,0.0,0.8589,0.8043,0.7407,0.7026,0.6563,0.5825,0.5165,0.4607,0.4206,0.3601,0.3207,0.3252,0.3004,0.2796,0.2673,0.1973,0.1504,0.137,0.091,0.0586,0.0456,0.0538,0.0515,0.0305,0.0407,0.0506,0.06,0.0592,0.0648,0.0746,0.0648,0.0648,0.0746,0.055,0.0554,0.0,0.0,0.1069,0.1247,0.1814,0.0,0.2343,0.283,0.3003,0.3079,0.3608,0.3961,0.425,0.4591,0.4886,0.0,0.5029,0.5162,0.5216,0.0,0.4389,0.4354,0.0,0.0,0.0,0.2784,0.0,0.0,0.0,0.1556,0.1072,0.0641,0.0331,0.0019,-0.042,-0.0643,-0.0877,-0.1244,-0.1471,-0.1744,-0.2149,-0.2666,-0.3221,-0.3833,-0.4502,-0.509,-0.5549,-0.5942,-0.6226,-0.6395,-0.6647,-0.6856,-0.7,-0.731,-0.7507,-0.7507,-0.7507,-0.7437,-0.7301,-0.7165,-0.7095,-0.7095,-0.6767,-0.6557,-0.6496,-0.6461,-0.6279,-0.6016,-0.6292,-0.6167,-0.5789,-0.5661,-0.5361,-0.4962,-0.456,-0.4307,-0.418,-0.4058,-0.4259,-0.4612,0.0,0.8012,0.7404,0.6677,0.6148,0.5596,0.4881,0.4427,0.4009,0.3556,0.3093,0.2776,0.2725,0.2234,0.193,0.1971,0.116,0.0663,0.0701,0.0262,0.0,0.0,0.0148,0.0168,0.0,0.0164,0.0264,0.0299,0.0296,0.0393,0.053,0.0373,0.0394,0.0534,0.0395,0.0401,0.0,0.0,0.0,0.0982,0.0,0.1754,0.1983,0.2704,0.273,0.2521,0.3429,0.4009,0.4352,0.4462,0.4757,0.5083,0.4859,0.5006,0.0,0.0,0.0,0.0,0.0,0.0,0.0,0.0,0.0,0.2298,0.0,0.0,0.0,0.1155,0.0784,0.0327,-0.0144,-0.0242,-0.0401,-0.0867,-0.1001,0.0,0.0,-0.2248,0.0,-0.3737,-0.4313,-0.4902,-0.5491,-0.584,-0.6088,-0.628,-0.6521,-0.6723,-0.6823,-0.7261,-0.7515,-0.7503,-0.7551,-0.7529,-0.7415,-0.7209,-0.7095,-0.7095,-0.6631,-0.6406,-0.6393,-0.6412,-0.6272,-0.6052,-0.6462,-0.6342,-0.5842,-0.5661,-0.5561,-0.5486,-0.5238,-0.5012,-0.4885,-0.4885,-0.4885,-0.4912,0.7585,0.7288,0.6856,0.641,0.5942,0.5428,0.4803,0.4316,0.3739,0.2915,0.2356,0.1925,0.1684,0.1239,0.1006,0.0,0.0706,0.0514,0.0694,0.0264,0.0,0.0,0.0022,0.0022,0.0,0.0021,0.0126,0.0292,0.0301,0.0314,0.0334,0.0314,0.0318,0.0344,0.0365,0.0369,0.0,0.0,0.0738,0.0,0.1067,0.1472,0.0,0.2072,0.2235,0.2447,0.2799,0.3404,0.4008,0.0,0.4375,0.5097,0.0,0.4919,0.5335,0.4733,0.0,0.0,0.0,0.0,0.0,0.0,0.2819,0.0,0.0,0.0,0.1909,0.1307,0.0,0.0,0.0,0.0,0.0,0.0,0.0,0.0,-0.131,-0.1583,-0.2028,-0.2771,-0.3838,-0.456,-0.4647,-0.5529,-0.615,-0.628,-0.6437,-0.6754,-0.7291,-0.7493,-0.757,-0.7499,-0.7724,-0.7632,-0.7143,-0.7117,-0.7095,-0.7095,-0.6631,-0.6406,-0.6393,-0.623,-0.5994,-0.575,-0.5994,-0.5792,-0.5315,-0.5511,-0.5463,-0.5215,-0.4962,-0.4962,-0.5165,-0.5165,-0.5165,-0.519,0.69,0.653,0.0,0.5459,0.4861,0.4223,0.3576,0.3223,0.2935,0.2719,0.2261,0.1868,0.1594,0.0,0.0,0.0,0.0,0.0048,0.0,0.0,0.0,0.0,0.0,0.0,0.0,0.0,0.0042,0.0124,0.012,0.0177,0.0294,0.0177,0.0179,0.0305,0.0203,0.0,0.0153,0.0,0.0517,0.0,0.0,0.1018,0.0,0.1647,0.1937,0.2194,0.2472,0.3077,0.3731,0.0,0.3986,0.0,0.0,0.0,0.0,0.4695,0.0,0.0,0.0,0.0,0.0,0.0,0.0,0.0,0.2758,0.0,0.2215,0.0,0.0,0.0,0.0,0.0,0.0,0.0,-0.024,0.0,0.0,0.0,-0.1476,-0.2414,0.0,0.0,-0.489,-0.5375,-0.5792,-0.6161,-0.6311,-0.6526,-0.6851,-0.7225,-0.7404,-0.7386,-0.7716,-0.7786,-0.7562,-0.7411,-0.7323,-0.7323,-0.659,-0.6279,-0.6393,-0.618,-0.6039,-0.596,-0.6314,-0.6067,-0.5438,-0.5561,-0.5438,-0.5165,-0.4912,-0.506,-0.5438,-0.5438,-0.5438,-0.5436,0.599,0.0,0.0,0.4582,0.3908,0.3261,0.2713,0.2492,0.2412,0.2411,0.1907,0.1405,0.0966,0.0254,0.0,0.0,-0.0515,-0.0462,0.0,0.0,-0.0116,-0.0116,-0.0114,0.0,-0.011,-0.0107,-0.0084,0.0,0.0,0.0079,0.0216,0.0059,0.008,0.0205,0.0062,0.0,0.0023,0.0,0.0326,0.0409,0.0568,0.0654,0.0737,0.1279,0.1654,0.1917,0.2196,0.2749,0.3352,0.3153,0.3581,0.0,0.4187,0.0,0.4505,0.0,0.0,0.0,0.4314,0.0,0.0,0.0,0.0,0.0,0.0,0.0,0.0,0.0,0.0,0.0,0.0,0.0,0.0,0.0,0.0,-0.0063,0.0,-0.0586,0.0,0.0,0.0,0.0,0.0,-0.5162,-0.541,-0.5864,-0.6075,-0.6277,-0.6514,-0.7031,-0.7286,-0.7204,-0.7661,-0.783,-0.7676,-0.7481,-0.737,-0.7308,-0.6548,-0.6253,-0.6361,-0.6174,-0.6129,-0.6172,-0.6525,-0.6264,-0.5611,-0.5687,-0.5514,-0.519,-0.506,-0.5258,-0.5584,-0.5511,-0.5486,-0.5461,0.464,0.4658,0.0,0.0,0.3431,0.2938,0.2719,0.2683,0.2432,0.1724,0.0946,0.0132,0.0,0.0,0.0,0.0,0.0,-0.095,-0.043,0.0,-0.0378,0.0,0.0,-0.0389,0.0,-0.0387,-0.0253,0.0,0.0,0.0,0.0,0.0,0.0,0.0,0.0,0.0,0.0,0.0,0.0169,0.0394,0.0409,0.0415,0.0467,0.0,0.1385,0.1642,0.1921,0.0,0.0,0.2826,0.3177,0.0,0.0,0.0,0.0,0.0,0.0,0.0,0.0,0.0,0.0,0.4087,0.0,0.0,0.0,0.0,0.2963,0.0,0.0,0.0,0.0,0.0,0.0,0.0,0.0,0.0,0.0,0.0,0.0,0.0,0.0,0.0,0.0,-0.4821,-0.5132,-0.5402,-0.5668,-0.6043,-0.6577,-0.7112,-0.7241,-0.6926,-0.7552,-0.7654,-0.7139,-0.7117,-0.701,-0.6817,-0.652,-0.6367,-0.6299,-0.6172,-0.6175,-0.6293,-0.6385,-0.6112,-0.5611,-0.5889,-0.5666,-0.5215,-0.5486,-0.5584,-0.5561,-0.5313,-0.5215,-0.524,0.0,0.0,0.0,0.0,0.0,0.2283,0.2128,0.1701,0.1375,0.135,0.0488,0.0,0.0,-0.1046,-0.1319,0.0,0.0,-0.1048,-0.0694,-0.0661,0.0,0.0,0.0,-0.0654,0.0,0.0,-0.0347,-0.0274,-0.0082,0.0,0.0,-0.0137,-0.0121,-0.0021,-0.0316,-0.0396,0.0,0.0,0.0,0.0,0.0,-0.0264,-0.037,0.0,0.1001,0.1111,0.1364,0.1919,0.0,0.2323,0.2624,0.3102,0.3281,0.3378,0.3486,0.3904,0.4009,0.4024,0.0,0.0,0.431,0.4416,0.0,0.0,0.0,0.0,0.0,0.0,0.0,0.0,0.0,0.0,0.0,0.0,0.0,0.0,0.0,0.0,0.0,0.0,0.0,0.0,0.0,0.0,-0.4749,-0.5116,-0.5392,-0.5717,-0.6119,-0.6553,-0.6845,-0.6958,-0.7407,-0.7459,-0.7095,-0.7095,-0.701,-0.6795,-0.6484,-0.623,-0.6027,-0.5992,-0.5889,-0.5762,-0.5842,-0.5661,-0.534,-0.5441,-0.5265,-0.4937,-0.5035,-0.496,-0.4862,-0.5313,-0.5461,-0.5463,0.2947,0.0,0.0,0.0,0.0,0.1843,0.1716,0.1131,0.0712,0.0734,-0.0026,0.0,-0.0886,0.0,-0.1396,0.0,-0.1378,-0.1246,-0.096,-0.0949,0.0,-0.0933,-0.0946,-0.0931,0.0,0.0,0.0,0.0,-0.0355,-0.0244,-0.0259,-0.0318,-0.0244,-0.0126,-0.0526,-0.0597,-0.0429,-0.0763,-0.0764,0.0,0.0,-0.0697,0.0,0.0,0.0336,0.0556,0.0,0.1464,0.1969,0.1895,0.2222,0.2699,0.2977,0.3103,0.3221,0.3665,0.3811,0.3886,0.4103,0.4215,0.0,0.4276,0.4233,0.0,0.3806,0.0,0.3473,0.0,0.0,0.0,0.0,0.0,0.0,0.0,0.0,0.0,0.0,-0.063,0.0,0.0,0.0,0.0,0.0,-0.4,-0.4269,-0.4614,-0.4934,-0.5246,-0.5528,-0.6105,-0.6521,-0.6712,-0.7086,-0.7183,-0.6988,-0.6896,-0.6745,-0.6552,-0.6281,-0.6043,-0.5838,-0.579,-0.5677,-0.5546,-0.5583,-0.5438,-0.519,-0.519,-0.5037,-0.4784,-0.4686,-0.4562,-0.4464,-0.4987,-0.5163,-0.516,0.2899,0.2324,0.0,0.0,0.1768,0.1643,0.1474,0.1002,0.047,-0.008,-0.063,-0.1195,-0.175,-0.183,-0.1805,-0.1721,-0.1717,-0.1574,-0.1241,-0.1214,0.0,0.0,-0.1254,-0.1267,-0.1242,0.0,0.0,0.0,0.0,-0.0709,-0.0671,-0.0509,-0.0371,-0.0295,-0.059,0.0,-0.0453,-0.093,-0.1011,-0.0859,-0.0889,-0.092,-0.0934,-0.0933,-0.0574,0.0,0.0556,0.096,0.1237,0.1491,0.1919,0.2422,0.2699,0.2952,0.3205,0.3506,0.3705,0.387,0.3866,0.3976,0.4024,0.3747,0.3747,0.0,0.0,0.0,0.368,0.0,0.0,0.0,0.0,0.0,0.0,0.0,0.0,0.0,0.0,0.0,0.0,0.0,0.0,0.0,0.0,-0.3399,-0.3685,-0.3943,-0.4338,-0.4659,0.0,-0.5765,-0.625,-0.6194,-0.6647,-0.6849,-0.677,-0.6529,-0.6288,-0.6072,-0.5951,-0.582,-0.5678,-0.5521,-0.5497,-0.5561,-0.5536,-0.5388,-0.5165,-0.5165,-0.5012,-0.4734,-0.4487,-0.4388,-0.4363,-0.4363,-0.4388,-0.4413,0.2061,0.1755,0.1466,0.1269,0.1412,0.1332,0.0693,0.0357,-0.0026,-0.0611,-0.1369,-0.1913,-0.2092,-0.2092,-0.2084,-0.2066,-0.1852,0.0,0.0,0.0,0.0,-0.1506,-0.208,-0.2211,-0.1804,-0.2171,-0.2018,-0.1323,0.0,0.0,-0.0488,-0.057,-0.0433,-0.0105,0.0,-0.0839,-0.0739,-0.1192,-0.1431,-0.1457,-0.1277,-0.1311,-0.1463,0.0,-0.1092,-0.0875,-0.0076,0.0631,0.1212,0.1288,0.1515,0.1894,0.2347,0.2548,0.2692,0.3102,0.3274,0.3349,0.3541,0.3738,0.3812,0.3551,0.3537,0.3478,0.0,0.0,0.0,0.0,0.0,0.0,0.0,0.0,0.0,0.0,0.0,0.0,0.0,0.0,0.0,-0.1411,0.0,0.0,-0.2907,-0.3258,-0.3412,-0.3337,-0.3846,-0.4284,-0.4588,0.0,-0.5861,-0.6191,-0.6371,-0.639,-0.6282,-0.6313,-0.6111,-0.5661,-0.5811,-0.5682,-0.5255,-0.5057,-0.4989,-0.4985,-0.4583,-0.4485,-0.4614,-0.4614,-0.4437,-0.4209,-0.4336,-0.4162,-0.3836,-0.4034,-0.411,-0.4135,0.1767,0.1478,0.1066,0.0448,0.0718,0.0781,0.005,-0.0568,-0.1083,-0.1424,-0.2034,0.0,-0.2426,-0.2426,-0.2419,-0.2373,-0.2209,0.0,-0.2103,0.0,0.0,-0.235,-0.2964,-0.3188,-0.2882,-0.2931,0.0,-0.2188,0.0,0.0,-0.097,-0.0867,-0.0624,0.0,0.0,-0.0928,-0.0835,-0.1336,-0.1603,-0.1691,-0.1535,-0.1579,0.0,-0.1573,-0.1428,-0.1231,-0.0746,-0.0025,0.0707,0.0934,0.1212,0.149,0.1919,0.2119,0.2287,0.2541,0.2755,0.2923,0.3106,0.3125,0.3072,0.2922,0.282,0.2713,0.2526,0.2511,0.2518,0.0,0.2295,0.2219,0.0,0.0,0.0,0.0,0.0,0.0,0.0,0.0,0.0,0.0,-0.1872,0.0,-0.2441,-0.2958,-0.3285,-0.3316,-0.3712,-0.4012,-0.4143,0.0,-0.5262,-0.5543,-0.5782,-0.5879,-0.5791,-0.5895,-0.5746,-0.5336,-0.548,-0.5338,-0.4928,-0.4723,-0.456,-0.4435,-0.4133,-0.416,-0.4388,-0.4135,-0.4033,-0.3982,-0.3909,-0.3684,-0.3458,-0.3734,-0.3833,-0.386,0.1577,0.122,0.0,0.0,-0.0225,-0.0125,-0.0713,-0.1514,-0.2113,-0.2243,-0.2553,-0.2743,-0.2748,-0.275,-0.2733,-0.2665,-0.2634,-0.2615,-0.2597,-0.3054,-0.3305,-0.3289,-0.3877,-0.4142,-0.4058,-0.3697,-0.3385,0.0,0.0,0.0,-0.171,-0.1289,0.0,0.0,0.0,0.0,0.0,-0.1421,-0.1664,-0.1743,-0.1724,-0.1753,-0.1804,-0.1804,-0.1623,-0.1355,-0.1306,-0.0744,0.0076,0.053,0.0909,0.1187,0.1465,0.1716,0.191,0.1975,0.2203,0.2428,0.2501,0.2283,0.2021,0.1998,0.1836,0.1733,0.1947,0.2133,0.2218,0.2086,0.214,0.2021,0.0,0.0,0.0,0.0,0.0,0.0,0.0,0.0,0.0,0.0,0.0,0.0,0.0,-0.2574,-0.3145,-0.3432,-0.3656,-0.3753,-0.368,0.0,-0.4638,-0.4636,-0.5097,-0.533,-0.528,-0.543,-0.5331,-0.5002,-0.505,-0.4894,-0.4606,-0.4382,-0.4187,-0.4008,-0.3932,-0.4034,-0.4212,-0.3731,-0.3654,-0.3806,-0.3331,-0.3155,-0.318,-0.3408,-0.3515,-0.3598,0.0289,0.0125,0.0,0.0,-0.1467,-0.1818,-0.2255,-0.1825,-0.1749,-0.2499,-0.285,-0.3038,-0.3023,-0.3026,-0.3023,-0.3014,-0.282,0.0,0.0,0.0,0.0,-0.3293,-0.4488,-0.4908,-0.4331,-0.4893,-0.461,0.0,0.0,0.0,-0.1771,0.0,0.0,0.0,0.0,0.0,-0.1699,-0.1694,0.0,-0.2002,-0.1854,-0.1799,-0.1804,-0.1804,-0.1731,-0.1594,-0.1385,-0.0744,0.0025,0.0101,0.0455,0.0909,0.1187,0.1313,0.1409,0.1803,0.1695,0.1478,0.1597,0.1331,0.1043,0.0972,0.0972,0.0967,0.0971,0.0999,0.1076,0.1256,0.1258,0.1436,0.2065,0.0,0.0,0.0,0.0,0.0,0.0,0.0,0.0,0.0,0.0,-0.1494,0.0,0.0,-0.2685,-0.2694,-0.2984,-0.3272,-0.352,0.0,-0.4282,0.0,-0.4801,-0.4904,0.0,0.0,-0.5142,-0.4441,-0.4712,-0.4587,-0.4114,-0.3855,-0.3835,-0.3982,-0.3531,-0.3356,-0.3407,-0.3305,-0.3179,-0.3001,-0.2901,-0.2876,-0.2876,-0.2927,-0.3109,-0.3434,-0.0176,0.0,0.0,0.0,-0.2116,-0.2368,-0.3058,-0.2764,-0.2616,-0.3098,-0.3286,-0.3362,-0.336,-0.3362,-0.3362,-0.3362,-0.3531,-0.3631,-0.36,-0.439,-0.4822,-0.4767,-0.5565,-0.5872,-0.554,-0.5587,-0.5041,-0.3917,0.0,0.0,0.0,0.0,0.0,-0.1283,0.0,-0.1993,0.0,0.0,0.0,-0.3039,-0.2632,-0.2773,-0.3128,-0.2494,-0.2316,-0.2365,-0.2217,-0.168,-0.0933,-0.0227,-0.0101,-0.0177,0.0253,0.0177,0.0,0.0173,0.029,0.0405,0.062,0.0429,0.0238,0.0477,0.036,0.024,0.0489,0.062,0.0773,0.1056,0.1068,0.1211,0.1785,0.19,0.0,0.0,0.0,0.0,0.0,0.0,0.0,0.0,0.0,0.0,0.0,0.0,0.0,0.0,0.0,0.0,0.0,0.0,-0.3791,0.0,0.0,0.0,-0.4202,0.0,-0.4584,-0.4093,-0.4296,-0.4183,-0.3784,-0.366,-0.3507,-0.3353,-0.3103,-0.3002,-0.2977,-0.2851,-0.27,-0.2598,-0.2598,-0.2674,-0.2826,-0.2952,-0.2961,-0.2932,-0.0786,-0.0957,0.0,-0.2661,-0.2656,-0.2733,-0.3487,-0.3591,-0.36,-0.3607,-0.3643,-0.3671,-0.3615,-0.3587,-0.3643,-0.3783,-0.4229,-0.4562,-0.4674,-0.5611,-0.6136,-0.6088,-0.6482,-0.6647,-0.6596,-0.6093,-0.5409,0.0,0.0,0.0,0.0,0.0,0.0,0.0,0.0,0.0,0.0,0.0,-0.3751,-0.4038,-0.3507,-0.3789,-0.4397,-0.3447,-0.3135,-0.3209,-0.3213,-0.2826,-0.2131,-0.0939,-0.0912,-0.1287,-0.0808,-0.0933,-0.1282,-0.1289,-0.102,-0.0645,-0.0337,-0.048,-0.0597,-0.0072,-0.0219,-0.0341,0.0189,0.0442,0.0645,0.0974,0.1102,0.1204,0.1316,0.1641,0.0,0.0,0.0,0.0,0.0,0.0,0.0,0.0,0.0,0.0,-0.0621,0.0,0.0,0.0,0.0,0.0,-0.2421,0.0,0.0,0.0,0.0,-0.3698,-0.3648,0.0,-0.3895,-0.3575,-0.3704,-0.3607,-0.3332,-0.3281,-0.3054,-0.2725,-0.2648,-0.2624,-0.2599,-0.2346,-0.222,-0.2245,-0.2296,-0.2448,-0.2651,-0.289,-0.2773,-0.2531,-0.2314,0.0,-0.2709,-0.3382,-0.3446,-0.3429,-0.3578,-0.3758,-0.3794,-0.3635,-0.3813,-0.3868,-0.3615,-0.3587,-0.3811,-0.4367,-0.4479,-0.473,-0.5288,-0.5919,-0.6235,-0.6117,-0.6664,-0.6847,-0.6599,-0.6531,-0.6163,0.0,0.0,-0.4249,0.0,0.0,0.0,0.0,0.0,0.0,0.0,-0.3936,-0.4107,-0.4344,-0.4024,-0.4136,-0.4479,-0.4367,-0.415,-0.3918,-0.3918,-0.362,-0.3178,-0.256,-0.2174,-0.1866,-0.1588,-0.1513,-0.1512,-0.1283,-0.1472,-0.1658,-0.122,-0.1421,-0.1635,-0.1171,-0.0894,-0.0613,-0.0073,0.0047,0.0208,0.0715,0.1113,0.1322,0.1163,0.17,0.2078,0.0,0.0,0.0,0.0,0.0,0.1041,0.0417,0.0,0.0,-0.0055,-0.0106,0.0,0.0,-0.1193,0.0,0.0,0.0,0.0,-0.2155,-0.2985,-0.3115,-0.2473,-0.3199,-0.3212,-0.254,-0.2797,-0.2774,-0.2497,-0.2269,-0.2244,-0.2422,-0.2169,-0.2069,-0.2046,-0.1794,-0.1667,-0.1693,-0.1945,-0.2046,-0.2076,-0.216,-0.2355,-0.2556,-0.2555,-0.2709,-0.2946,-0.3701,-0.3819,-0.3865,-0.4112,-0.4345,-0.442,-0.417,-0.4229,-0.4314,-0.437,-0.437,-0.4564,-0.5009,-0.5371,-0.5678,-0.5929,-0.6513,-0.6828,-0.6756,-0.6912,-0.694,-0.6842,-0.6669,-0.6238,0.0,0.0,0.0,0.0,0.0,0.0,0.0,0.0,-0.4715,-0.4846,-0.5138,-0.5461,-0.5736,-0.5274,-0.5511,-0.604,-0.5316,-0.4928,-0.4773,-0.4722,-0.4382,-0.3918,-0.3826,-0.3331,-0.2648,-0.2219,-0.2295,-0.2548,-0.2422,-0.2426,-0.236,-0.2026,-0.1939,-0.1827,-0.1336,-0.1121,-0.0944,-0.0558,-0.0361,-0.019,0.0046,0.0564,0.1031,0.1233,0.166,0.1966,0.1985,0.0,0.0,0.0,0.0,0.0,0.1548,0.0,0.1298,0.0,0.1144,0.0,0.0,0.0,0.0,0.0,0.0,0.0,-0.2057,0.0,-0.2444,-0.2477,-0.2522,-0.2498,-0.2396,-0.2345,-0.2269,-0.2143,-0.2043,-0.1968,-0.1919,-0.1817,-0.1768,-0.1743,-0.1642,-0.1693,-0.1844,-0.1946,-0.1996,-0.2001,-0.2087,-0.2071,-0.2082,-0.2889,-0.2974,-0.3175,-0.381,-0.3966,-0.4099,-0.4342,-0.4666,-0.4901,-0.4871,-0.4981,-0.5039,-0.5041,-0.5206,-0.5429,-0.5761,-0.6181,-0.646,-0.6568,-0.696,-0.721,-0.721,-0.7106,0.0,-0.7013,-0.6815,-0.6419,-0.5813,-0.5187,0.0,0.0,0.0,0.0,0.0,-0.54,-0.5676,-0.5673,-0.6089,-0.6451,-0.6657,-0.6239,-0.6515,-0.7099,-0.6262,-0.5828,-0.5688,-0.5558,-0.517,-0.4708,-0.4652,-0.4131,-0.3406,-0.2906,-0.3002,-0.3306,-0.323,-0.3062,-0.2824,-0.2592,-0.2365,-0.2089,-0.1655,-0.15,-0.1354,-0.1001,-0.0708,-0.0484,-0.032,0.0204,0.0723,0.1123,0.1525,0.1875,0.2089,0.0,0.0,0.0,0.2143,0.0,0.21,0.2003,0.1862,0.1712,0.1713,0.0,0.0,0.0,0.0,0.0,0.0,0.0,0.0,0.0,0.0,-0.2065,-0.1804,-0.1761,-0.1917,-0.1741,-0.1639,-0.1639,-0.1741,-0.1615,-0.1364,-0.144,-0.1491,-0.1465,-0.139,-0.1516,-0.177,-0.178,-0.1834,-0.1916,-0.1881,-0.1912,-0.1991,-0.3587,-0.3587,-0.3606,-0.3695,-0.3855,-0.4031,-0.41,-0.456,-0.5124,-0.571,-0.607,-0.604,-0.5455,-0.5929,-0.6404,-0.6657,-0.6687,-0.6824,-0.7154,-0.721,-0.721,0.0,0.0,-0.7128,-0.7016,-0.701,-0.6921,-0.6775,0.0,0.0,-0.5951,0.0,-0.5472,-0.5984,-0.6119,-0.63,-0.6495,-0.6636,-0.6685,-0.6687,-0.6687,-0.6907,-0.721,-0.7182,-0.696,-0.6657,-0.6383,-0.6035,-0.5577,-0.4919,-0.4468,-0.4107,-0.3707,-0.3586,-0.3534,-0.3281,-0.3162,-0.3054,-0.286,-0.2737,-0.2636,-0.2434,-0.2194,-0.1841,-0.1312,-0.0995,-0.0655,-0.0117,0.0208,0.046,0.0675,0.13,0.1885,0.2154,0.0,0.0,0.0,0.249,0.0,0.1774,0.1713,0.1573,0.1243,0.1259,0.0,0.0,0.0,0.0,0.0,0.0,0.0,-0.0402,-0.0869,0.0,-0.0834,-0.1006,-0.1016,-0.0808,-0.0808,-0.0808,-0.0833,-0.1086,-0.1061,-0.0833,-0.1086,-0.1212,-0.1187,-0.0909,-0.096,-0.1215,-0.1289,-0.148,-0.1669,-0.1403,-0.1858,-0.2549,-0.3643,-0.3791,-0.3942,-0.3962,-0.4205,-0.4482,-0.4679,-0.5376,-0.5931,-0.6123,-0.7031,-0.759,-0.7392,-0.7262,-0.7296,0.0,-0.741,-0.7354,0.0,-0.7296,-0.721,-0.721,-0.721,-0.7193,-0.7128,-0.7051,-0.6994,-0.6929,0.0,0.0,0.0,-0.5842,-0.6063,-0.6415,-0.6745,-0.6907,-0.699,-0.7027,-0.7043,-0.7043,-0.7043,-0.7099,-0.721,-0.721,-0.6879,-0.6411,-0.633,-0.5945,-0.545,-0.5079,-0.4771,-0.4461,-0.4023,-0.3633,-0.3307,-0.323,-0.3192,-0.3106,-0.2871,-0.2789,-0.2704,-0.2468,-0.2345,-0.2187,-0.1814,-0.1245,-0.065,-0.012,0.0212,0.0508,0.0894,0.1155,0.1391,0.1615,0.193,0.0,0.2469,0.0,0.2751,0.2672,0.2658,0.252,0.2188,0.2172,0.0,0.0,0.0,0.0,0.0,0.0,0.0,0.0,0.0,0.0,-0.0515,-0.0417,-0.0496,-0.0808,-0.0429,-0.0253,-0.0253,-0.053,-0.0606,-0.0556,-0.1187,-0.1263,-0.0985,-0.1615,-0.1716,-0.1516,-0.2109,-0.2438,-0.2576,-0.2478,-0.2787,-0.3177,-0.4011,-0.4051,-0.4241,-0.4668,-0.4861,-0.5119,-0.5668,-0.6306,-0.6802,-0.7026,-0.7811,-0.8469,-0.8702,-0.8448,-0.8264,-0.8264,-0.8124,-0.7907,-0.761,-0.7438,-0.7296,-0.721,-0.721,-0.721,-0.721,-0.7114,0.0,-0.7076,-0.6647,-0.6366,-0.6204,-0.6466,-0.6663,-0.6827,-0.7094,-0.721,-0.721,-0.721,-0.721,-0.721,-0.721,-0.721,-0.721,-0.721,-0.6879,-0.6439,-0.633,-0.5968,-0.5496,-0.5237,-0.4948,-0.4629,-0.4217,-0.3755,-0.3332,-0.323,-0.3281,-0.3281,-0.3027,-0.3029,-0.3029,-0.2775,-0.2623,-0.2389,-0.1842,-0.1229,-0.0659,-0.0123,0.0144,0.0401,0.089,0.1042,0.1217,0.1538,0.1791,0.209,0.2479,0.0,0.2924,0.0,0.0,0.0,0.0,0.2574,0.255,0.0,0.0,0.0,0.0,0.0,0.0971,0.0557,0.0547,0.0438,0.0198,0.0372,0.0275,-0.0051,0.0076,0.0,-0.0303,-0.0581,-0.0808,-0.1035,-0.154,-0.1565,-0.1287,-0.1866,-0.1968,-0.1794,-0.2357,-0.2697,-0.2839,-0.2748,-0.3063,-0.3508,-0.4586,-0.4407,-0.4567,-0.5594,-0.5693,-0.5928,-0.6864,-0.7279,-0.7692,-0.8236,-0.8464,-0.8781,-0.934,-0.9434,-0.9235,-0.8799,0.0,0.0,-0.7683,-0.7613,-0.7493,-0.721,-0.721,-0.7215,-0.7196,-0.7196,-0.7196,-0.7196,-0.7196,-0.7218,-0.721,-0.721,-0.721,-0.721,-0.721,-0.721,-0.721,-0.721,-0.721,-0.721,-0.721,-0.721,-0.721,-0.721,-0.6988,-0.6631,-0.6386,-0.6077,-0.5725,-0.5328,-0.497,-0.4648,-0.4328,-0.3947,-0.3591,-0.3309,-0.3383,-0.3534,-0.3281,-0.3408,-0.3509,-0.323,-0.2952,-0.2473,-0.1465,-0.101,-0.0653,-0.0123,-0.0025,0.0146,0.0671,0.0931,0.1216,0.1765,0.2028,0.2265,0.2548,0.2765,0.2897,0.0,0.0,0.0,0.2569,0.2585,0.2527,0.0,0.0,0.0,0.0,0.0,0.1325,0.0931,0.0909,0.1017,0.1263,0.1212,0.1136,0.1086,0.0556,-0.0076,-0.0808,-0.1086,-0.1489,-0.1967,-0.2017,-0.2017,-0.1967,-0.179,-0.184,-0.2049,-0.2229,-0.2475,-0.2648,-0.2407,-0.2885,-0.3671,-0.4459,-0.5136,-0.5697,-0.5468,-0.6185,-0.6877,-0.7112,-0.7783,-0.828,-0.8428,-0.8961,-0.9406,-0.9524,-0.9652,-0.9629,-0.9396,-0.8973,-0.8549,-0.815,-0.7802,-0.7493,-0.721,-0.721,-0.7226,-0.7262,-0.7265,-0.7265,-0.7265,-0.7265,-0.7244,-0.721,-0.721,-0.721,-0.721,-0.721,-0.721,-0.721,-0.721,-0.721,-0.721,-0.721,-0.721,-0.721,-0.721,-0.6851,-0.6386,-0.633,-0.5968,-0.5479,-0.5275,-0.5011,-0.4751,-0.4557,-0.4291,-0.3983,-0.3625,-0.3408,-0.3332,-0.3458,-0.3408,-0.323,-0.2952,-0.255,-0.2071,-0.1617,-0.1136,-0.0706,-0.0377,-0.0149,0.0098,0.0439,0.053,0.0715,0.1216,0.1669,0.2074,0.2337,0.2753,0.2975,0.0,0.2996,0.304,0.2685,0.2858,0.2973,0.0,0.0,0.2936,0.297,0.2838,0.2541,0.2036,0.2014,0.1959,0.1816,0.1212,0.0581,-0.0025,-0.0354,-0.0606,-0.0808,-0.1287,-0.1564,-0.1714,-0.2118,-0.2068,-0.1765,-0.2522,-0.2623,-0.2376,-0.3076,-0.3445,-0.3577,-0.3519,-0.3824,-0.4257,-0.5859,-0.6307,-0.6734,-0.6791,-0.7239,-0.7757,-0.8151,-0.8664,-0.901,-0.901,-0.9403,-0.9677,-0.9677,-0.9623,-0.9549,-0.9473,-0.9111,-0.8724,-0.8319,-0.7926,-0.755,-0.7213,-0.721,-0.7239,-0.7305,-0.7308,-0.7335,-0.7389,-0.7335,-0.7273,-0.7236,-0.7209,-0.721,-0.721,-0.721,-0.721,-0.721,-0.721,-0.721,-0.721,-0.721,-0.721,-0.721,-0.721,-0.6824,-0.6302,-0.6302,-0.5912,-0.5401,-0.5324,-0.514,-0.4953,-0.4756,-0.4567,-0.4365,-0.3981,-0.3734,-0.3531,-0.3432,-0.3408,-0.3281,-0.2901,-0.2498,-0.207,-0.1693,-0.1288,-0.0909,-0.0631,-0.0376,-0.0099,0.0174,0.0419,0.071,0.1077,0.1494,0.1862,0.2132,0.2697,0.309,0.3066,0.3525,0.3718,0.345,0.3235,0.3104,0.3161,0.2677,0.0,0.259,0.2493,0.2365,0.221,0.2207,0.2017,0.164,0.0959,0.0277,-0.0404,-0.0807,-0.1186,-0.1539,-0.1715,-0.1916,-0.217,-0.2494,-0.2441,-0.2197,-0.2981,-0.309,-0.2844,-0.3262,-0.3553,-0.3698,-0.357,-0.3781,-0.4089,-0.7543,-0.7537,-0.769,-0.8438,-0.8462,-0.8602,-0.929,-0.9469,-0.9553,-0.9493,-0.9597,-0.967,-0.967,-0.9396,-0.9247,-0.9247,-0.9075,-0.878,-0.8329,-0.7983,-0.7627,-0.7243,-0.7209,-0.7239,-0.7332,-0.7368,-0.743,-0.7516,-0.7414,-0.7343,-0.7305,-0.723,-0.7201,-0.721,-0.721,-0.721,-0.721,-0.721,-0.721,-0.721,-0.721,-0.721,-0.721,-0.721,-0.6824,-0.6302,-0.6302,-0.5912,-0.5409,-0.5409,-0.5331,-0.5179,-0.4945,-0.4774,-0.4637,-0.4299,-0.4068,-0.3833,-0.3381,-0.3358,-0.3383,-0.2901,-0.2574,-0.2221,-0.1768,-0.1415,-0.1136,-0.0859,-0.0581,-0.0328,-0.0051,0.0379,0.0783,0.1086,0.1364,0.1642,0.1946,0.0,0.3105,0.3203,0.3916,0.4285,0.3937,0.3374,0.3054,0.3054,0.2184,0.1793,0.207,0.1874,0.1837,0.1991,0.1967,0.1639,0.1035,0.0555,0.0025,-0.058,-0.1034,-0.1639,-0.2321,-0.2143,-0.232,-0.2753,-0.2805,-0.2802,-0.2769,-0.3129,-0.3223,-0.3163,-0.3053,-0.3172,-0.334,-0.3174,-0.3278,-0.3559,-0.7448,-0.8052,-0.8514,-0.8447,-0.9054,-0.9475,-0.9335,-0.9321,-0.9276,-0.9036,-0.9025,-0.9037,-0.9037,-0.9007,-0.8976,-0.8976,-0.8684,-0.8428,-0.8216,-0.7968,-0.7638,-0.7309,-0.7278,-0.7338,-0.746,-0.7687,-0.775,-0.7674,-0.7655,-0.7508,-0.7308,-0.7286,-0.7252,-0.721,-0.721,-0.721,-0.721,-0.721,-0.721,-0.721,-0.721,-0.721,-0.721,-0.721,-0.6824,-0.6302,-0.6302,-0.5912,-0.5409,-0.5409,-0.5399,-0.5347,-0.5185,-0.4937,-0.4637,-0.4299,-0.3942,-0.3635,-0.3559,-0.323,-0.2901,-0.2826,-0.2424,-0.2046,-0.1946,-0.1566,-0.1136,-0.0859,-0.0581,-0.0328,-0.0051,0.0076,0.0278,0.0783,0.1086,0.144,0.1921,0.0,0.2612,0.1983,0.2611,0.2813,0.2083,0.2511,0.2839,0.2839,0.2882,0.2931,0.2991,0.2966,0.2642,0.2017,0.179,0.1185,0.0202,0.0101,-0.0429,-0.1414,-0.149,-0.1717,-0.2071,-0.2246,-0.2371,-0.2474,-0.2521,-0.2563,-0.256,-0.2615,-0.2633,-0.2632,-0.266,-0.2707,-0.2767,-0.3008,-0.3137,-0.3222,-0.8644,-0.9028,-0.9283,-0.9085,-0.9465,-0.9734,-0.951,-0.9533,-0.9518,-0.94,-0.94,-0.94,-0.94,-0.9098,-0.8885,-0.8885,-0.8583,-0.8374,-0.8316,-0.789,-0.7579,-0.7405,-0.7343,-0.7395,-0.7614,-0.7812,-0.7875,-0.7793,-0.7731,-0.7611,-0.7403,-0.7338,-0.7271,-0.721,-0.721,-0.721,-0.721,-0.721,-0.721,-0.721,-0.721,-0.721,-0.721,-0.721,-0.6824,-0.6302,-0.6302,-0.5912,-0.5409,-0.5409,-0.5409,-0.5401,-0.5333,-0.5066,-0.4744,-0.4398,-0.3875,-0.3383,-0.3383,-0.3205,-0.3002,-0.3002,-0.2624,-0.2222,-0.2222,-0.1793,-0.1339,-0.1061,-0.0808,-0.053,-0.0253,0.0126,0.0505,0.0758,0.1136,0.139,0.1364,0.1817,0.1916,0.126,0.1739,0.2068,0.184,0.1765,0.184,0.2143,0.1741,0.1539,0.1691,0.1564,0.1312,0.0933,0.0933,0.0656,0.0,-0.0278,-0.0833,-0.1592,-0.1742,-0.1943,-0.2222,-0.2243,-0.215,-0.1974,-0.2242,-0.2229,-0.2109,-0.2466,-0.2589,-0.2544,-0.2424,-0.2496,-0.2637,-0.2628,-0.283,-0.3109,-0.97,-0.9792,-0.9758,-0.968,-0.9717,-0.9724,-0.9556,-0.963,-0.967,-0.9609,-0.9579,-0.9579,-0.9579,-0.9186,-0.8885,-0.8885,-0.8674,-0.8522,-0.8522,-0.8066,-0.7765,-0.7765,-0.7615,-0.7609,-0.7859,-0.7886,-0.7903,-0.7903,-0.7782,-0.7679,-0.7557,-0.7405,-0.7315,-0.7223,-0.7196,-0.721,-0.721,-0.721,-0.721,-0.721,-0.721,-0.721,-0.7182,-0.7099,-0.6771,-0.6302,-0.6219,-0.5854,-0.5409,-0.5409,-0.5409,-0.5409,-0.5409,-0.517,-0.4834,-0.4582,-0.3946,-0.337,-0.3355,-0.3266,-0.318,-0.313,-0.275,-0.2396,-0.2321,-0.1944,-0.1516,-0.1263,-0.0985,-0.0707,-0.0455,0.0202,0.0657,0.053,0.0,0.1061,0.0581,0.0933,0.1059,0.058,0.0983,0.1361,0.1438,0.1009,0.0882,0.1286,0.0606,0.0303,0.0581,0.0379,0.0278,0.0278,0.0227,0.0126,-0.0101,-0.0558,-0.1014,-0.1415,-0.1629,-0.1836,-0.2033,-0.1863,-0.1644,-0.1438,-0.1754,-0.179,-0.1638,-0.2105,-0.2338,-0.2397,-0.2093,-0.2188,-0.2469,-0.2272,-0.2495,-0.2914,-0.9792,-0.9792,-0.9788,-0.9775,-0.9785,-0.9697,-0.9383,-0.9329,-0.9244,-0.9007,-0.8976,-0.8976,-0.8976,-0.8915,-0.8885,-0.8885,-0.8885,-0.8854,-0.8854,-0.8717,-0.8605,-0.8605,-0.8301,-0.8213,-0.8352,-0.8052,-0.7903,-0.7903,-0.7892,-0.7832,-0.7687,-0.7562,-0.7411,-0.7289,-0.7231,-0.721,-0.721,-0.721,-0.721,-0.721,-0.721,-0.721,-0.7154,-0.6851,-0.655,-0.6246,-0.5935,-0.5656,-0.5409,-0.5409,-0.5409,-0.5409,-0.5409,-0.5129,-0.4813,-0.478,-0.4335,-0.3831,-0.3767,-0.3475,-0.313,-0.2901,-0.2623,-0.2346,-0.2097,-0.1819,-0.1516,-0.1263,-0.0985,-0.0707,-0.0455,0.0051,0.0278,-0.0227,0.0,0.0,-0.0278,-0.0076,0.0,-0.0278,0.0151,0.0303,-0.0177,0.0177,0.0454,0.048,0.0657,0.0859,0.1136,0.1111,0.1111,0.1111,0.0177,-0.0354,-0.0379,-0.0668,-0.0822,-0.0859,-0.0889,-0.0895,-0.0907,-0.0898,-0.0878,-0.0853,-0.0949,-0.112,-0.1311,-0.1113,-0.1373,-0.182,-0.1485,-0.157,-0.1879,-0.2132,-0.2216,-0.2355,-0.9792,-0.9792,-0.9792,-0.9792,-0.9792,-0.9761,-0.964,-0.9609,-0.9579,-0.9457,-0.946,-0.946,-0.946,-0.9278,-0.9156,-0.9156,-0.9156,-0.9156,-0.9156,-0.9287,-0.9186,-0.8712,-0.8461,-0.835,-0.84,-0.8058,-0.7903,-0.7903,-0.7903,-0.7842,-0.7701,-0.7655,-0.7498,-0.7305,-0.7288,-0.7225,-0.721,-0.721,-0.721,-0.721,-0.721,-0.721,-0.7154,-0.6824,-0.6631,-0.652,-0.6216,-0.591,-0.5656,-0.5656,-0.5547,-0.5409,-0.5409,-0.516,-0.4827,-0.4659,-0.4276,-0.3891,-0.3865,-0.3598,-0.3265,-0.3003,-0.2692,-0.2387,-0.2131,-0.1833,-0.1465,-0.1035,-0.0859,-0.0758,-0.0657,-0.0354,-0.0278,-0.0807,0.0,-0.0404,-0.0833,-0.0656,-0.0606,-0.0859,-0.0707,-0.053,-0.0404,-0.0227,0.0051,0.0379,0.0505,0.0606,0.0707,0.0715,0.0639,0.0455,0.0413,0.031,0.0101,-0.0182,-0.0392,-0.054,-0.0554,-0.0638,-0.0793,-0.0833,-0.0866,-0.0868,-0.1075,-0.1194,-0.1306,-0.1202,-0.1402,-0.1767,-0.143,-0.1514,-0.1823,-0.1908,-0.2048,-0.2244,-0.9822,-0.9974,-1.0092,-0.997,-0.9943,-0.9943,-0.9943,-0.9883,-0.9792,-0.9792,-0.9792,-0.9792,-0.9792,-0.9609,-0.9457,-0.9457,-0.9457,-0.9457,-0.9457,-0.967,-0.9543,-0.9013,-0.8781,-0.8653,-0.8609,-0.8343,-0.8147,-0.8058,-0.8058,-0.7955,-0.7755,-0.7837,-0.77,-0.7419,-0.7496,-0.7408,-0.7239,-0.7239,-0.7218,-0.721,-0.721,-0.7127,-0.7018,-0.6687,-0.6576,-0.6523,-0.6163,-0.5938,-0.5794,-0.5712,-0.5547,-0.5409,-0.5409,-0.5184,-0.4845,-0.4592,-0.4223,-0.3885,-0.3691,-0.347,-0.3242,-0.2939,-0.2613,-0.2301,-0.2039,-0.1788,-0.1567,-0.1285,-0.1156,-0.1105,-0.1207,-0.0951,-0.0924,-0.1539,-0.1181,-0.1002,-0.1567,-0.1387,-0.1179,-0.1122,-0.1102,-0.0897,-0.0331,-0.0205,0.0,0.036,0.0488,0.059,0.0688,0.0671,0.0594,0.0408,0.0739,0.0795,0.0565,0.0371,0.0133,-0.0157,-0.0161,-0.0297,-0.0538,-0.0602,-0.0606,-0.0634,-0.0809,-0.0953,-0.1009,-0.0925,-0.1149,-0.1486,-0.1262,-0.1374,-0.1655,-0.1767,-0.1908,-0.2076,-0.9883,-1.0334,-1.0698,-1.0365,-1.0304,-1.0304,-1.0304,-1.0004,-0.9792,-0.9792,-0.9792,-0.9792,-0.9792,-0.9792,-0.9792,-0.9792,-0.9792,-0.9792,-0.9788,-0.9792,-0.9727,-0.9615,-0.9416,-0.9241,-0.9096,-0.8962,-0.8732,-0.84,-0.84,-0.8214,-0.79,-0.8113,-0.8029,-0.7695,-0.7896,-0.7737,-0.7308,-0.7308,-0.7266,-0.7213,-0.721,-0.699,-0.6687,-0.6411,-0.6302,-0.6219,-0.5633,-0.5575,-0.5766,-0.5491,-0.5409,-0.5409,-0.5409,-0.5184,-0.4845,-0.4592,-0.4258,-0.3868,-0.325,-0.3109,-0.303,-0.2688,-0.2345,-0.2024,-0.1758,-0.1704,-0.1811,-0.2131,-0.1944,-0.1811,-0.2131,-0.1757,-0.1677,-0.2478,-0.2104,-0.1917,-0.2504,-0.2317,-0.18,-0.0989,-0.0897,-0.0662,-0.0052,0.0238,0.04,0.04,0.072,0.1006,0.1274,0.1299,0.1299,0.1299,0.1048,0.0895,0.0907,0.0895,0.0732,0.04,0.0386,0.025,0.0,0.0,0.0,0.0,0.0,-0.0168,-0.0393,-0.0112,-0.0364,-0.0897,-0.0897,-0.1065,-0.1346,-0.1683,-0.1795,-0.1823,-1.0516,-1.0668,-1.0698,-1.0365,-1.0304,-1.0213,-0.997,-0.9852,-0.9792,-0.9792,-0.9792,-0.9792,-0.9792,-0.9792,-0.9792,-0.9792,-0.9792,-0.9748,-0.968,-0.9737,-0.971,-0.9459,-0.936,-0.9286,-0.9244,-0.9012,-0.8732,-0.84,-0.84,-0.8214,-0.79,-0.7955,-0.7898,-0.7701,-0.7752,-0.7667,-0.743,-0.7343,-0.7286,-0.7274,-0.7218,-0.7127,-0.7018,-0.6715,-0.6715,-0.6851,-0.6244,-0.6079,-0.6105,-0.5796,-0.5547,-0.5409,-0.5409,-0.5184,-0.4845,-0.4592,-0.4258,-0.3868,-0.325,-0.297,-0.2742,-0.241,-0.2572,-0.2711,-0.2415,-0.2473,-0.2584,-0.2504,-0.2264,-0.2131,-0.2424,-0.2344,-0.2371,-0.2798,-0.2584,-0.2317,-0.2264,-0.1839,-0.1384,-0.0953,-0.0691,-0.0399,-0.0026,0.0239,0.0507,0.072,0.1013,0.1222,0.1295,0.1311,0.1205,0.1032,0.134,0.1408,0.1194,0.0773,0.0497,0.0408,0.0222,0.0084,0.0,0.0,-0.0112,-0.028,-0.028,-0.0449,-0.0729,-0.0421,-0.0533,-0.0897,-0.0897,-0.0953,-0.1093,-0.1598,-0.1667,-0.1569,-1.0819,-1.1005,-1.1035,-1.0577,-1.0486,-1.0395,-1.0061,-0.9879,-0.9792,-0.9792,-0.9792,-0.9792,-0.9792,-0.9792,-0.9792,-0.9792,-0.9792,-0.9754,-0.967,-0.9744,-0.9741,-0.9561,-0.9463,-0.941,-0.935,-0.9171,-0.89,-0.8473,-0.842,-0.8235,-0.79,-0.7975,-0.7917,-0.7701,-0.785,-0.7751,-0.7484,-0.7411,-0.7378,-0.7373,-0.7328,-0.7215,-0.7059,-0.6865,-0.6809,-0.6771,-0.627,-0.6105,-0.6049,-0.574,-0.5547,-0.5382,-0.524,-0.4987,-0.4678,-0.4398,-0.3979,-0.3531,-0.3083,-0.2887,-0.2776,-0.2468,-0.2671,-0.2954,-0.2983,-0.3013,-0.3018,-0.2991,-0.2773,-0.2637,-0.2937,-0.2991,-0.3045,-0.3209,-0.2911,-0.2557,-0.2366,-0.1741,-0.1194,-0.0944,-0.0596,-0.0299,-0.0027,0.0244,0.0572,0.1034,0.1216,0.1345,0.148,0.1494,0.147,0.1428,0.166,0.1758,0.1657,0.106,0.0754,0.0746,0.0586,0.0449,0.0364,0.0364,0.028,0.0112,0.0112,-0.0084,-0.0364,-0.0028,-0.014,-0.0533,-0.0537,-0.0623,-0.0765,-0.1256,-0.1439,-0.1422,-1.094,-1.1375,-1.1557,-1.091,-1.0789,-1.0637,-1.0304,-1.0001,-0.9792,-0.9792,-0.9792,-0.9792,-0.9792,-0.9792,-0.9792,-0.9792,-0.9792,-0.9785,-0.9771,-0.9785,-0.9778,-0.9751,-0.9673,-0.953,-0.9335,-0.9345,-0.9095,-0.8569,-0.8444,-0.8186,-0.7867,-0.806,-0.7983,-0.7684,-0.8009,-0.7894,-0.7506,-0.7495,-0.7495,-0.7503,-0.7481,-0.7264,-0.694,-0.6901,-0.6666,-0.6302,-0.5935,-0.5794,-0.5766,-0.5491,-0.5382,-0.5296,-0.4987,-0.4704,-0.4397,-0.4064,-0.3587,-0.311,-0.2805,-0.2943,-0.3138,-0.2917,-0.2862,-0.3002,-0.3559,-0.3446,-0.3306,-0.3615,-0.3418,-0.3278,-0.3559,-0.3615,-0.3615,-0.3559,-0.3085,-0.2693,-0.2665,-0.1851,-0.1171,-0.0933,-0.0583,-0.0279,-0.0027,0.025,0.0645,0.1262,0.1299,0.1452,0.1781,0.1836,0.1946,0.2193,0.1976,0.1964,0.2188,0.1655,0.1346,0.129,0.129,0.1149,0.0897,0.0897,0.0897,0.0897,0.0897,0.0701,0.0422,0.0759,0.0534,0.0,0.0,-0.0144,-0.0404,-0.0762,-0.1091,-0.1358,-1.1591,-1.1492,-1.1277,-1.088,-1.0577,-1.0304,-0.9974,-0.9852,-0.9792,-0.9792,-0.9792,-0.9792,-0.9792,-0.9792,-0.9792,-0.9792,-0.9792,-0.9744,-0.9663,-0.9727,-0.9717,-0.9486,-0.9561,-0.9365,-0.8866,-0.8948,-0.8813,-0.8455,-0.8198,-0.7923,-0.7595,-0.7629,-0.7615,-0.7559,-0.7618,-0.7654,-0.7655,-0.7559,-0.7573,-0.7646,-0.7424,-0.7304,-0.7183,-0.6868,-0.668,-0.6548,-0.5989,-0.5794,-0.5766,-0.5491,-0.5212,-0.4987,-0.4931,-0.454,-0.4064,-0.3757,-0.3757,-0.3699,-0.3167,-0.3391,-0.3867,-0.4061,-0.4117,-0.4145,-0.4285,-0.4255,-0.4227,-0.4285,-0.4035,-0.3757,-0.3615,-0.3785,-0.3757,-0.3278,-0.2917,-0.2609,-0.2356,-0.1542,-0.0952,-0.0921,-0.042,-0.0056,0.0,0.0252,0.0645,0.1262,0.1313,0.145,0.1785,0.2008,0.2148,0.2204,0.2156,0.2132,0.2188,0.2076,0.1767,0.129,0.1093,0.0953,0.0897,0.0897,0.0897,0.0897,0.0897,0.0706,0.0429,0.0772,0.0547,0.0,0.0,-0.0029,-0.0147,-0.0706,-0.098,-0.1173,-1.1587,-1.1428,-1.1152,-1.0637,-1.0425,-1.0183,-0.9852,-0.9792,-0.9792,-0.9792,-0.9792,-0.9792,-0.9792,-0.9792,-0.9792,-0.9792,-0.9727,-0.969,-0.9615,-0.9608,-0.9574,-0.9493,-0.9349,-0.9137,-0.8904,-0.8554,-0.8293,-0.8117,-0.7915,-0.7692,-0.7487,-0.743,-0.7403,-0.7403,-0.7403,-0.747,-0.7611,-0.7516,-0.7619,-0.7771,-0.7644,-0.7559,-0.7444,-0.7091,-0.6772,-0.651,-0.6062,-0.5779,-0.5601,-0.5437,-0.5184,-0.4929,-0.5094,-0.4733,-0.4231,-0.4231,-0.4119,-0.3924,-0.3615,-0.3867,-0.4286,-0.4452,-0.4731,-0.4919,-0.4741,-0.4592,-0.4452,-0.4286,-0.412,-0.3924,-0.3643,-0.3813,-0.3823,-0.3228,-0.2904,-0.2589,-0.2297,-0.1466,-0.0897,-0.0897,-0.0364,0.0,0.0,0.0252,0.0589,0.1065,0.1234,0.1514,0.1964,0.2132,0.2328,0.2607,0.2496,0.2496,0.2635,0.2496,0.2272,0.1964,0.1823,0.1683,0.1514,0.1514,0.1436,0.1334,0.1163,0.0917,0.0669,0.0989,0.0789,0.0265,0.0386,0.0358,0.0179,-0.0301,-0.0697,-0.1099,-1.1367,-1.1243,-1.1031,-1.0395,-1.0243,-1.0126,-0.9852,-0.9792,-0.9792,-0.9792,-0.9792,-0.9792,-0.9792,-0.9792,-0.9792,-0.9792,-0.9683,-0.9646,-0.9646,-0.9527,-0.9474,-0.9512,-0.9163,-0.8935,-0.8903,-0.8217,-0.7809,-0.7786,-0.7609,-0.7517,-0.7453,-0.7324,-0.7276,-0.7276,-0.7276,-0.7354,-0.7489,-0.7489,-0.7655,-0.79,-0.7881,-0.7755,-0.7576,-0.7224,-0.6864,-0.6477,-0.6195,-0.5972,-0.576,-0.5689,-0.5428,-0.52,-0.5405,-0.5067,-0.4592,-0.4789,-0.4512,-0.4148,-0.4092,-0.4379,-0.4667,-0.4667,-0.5068,-0.5341,-0.4959,-0.4689,-0.4463,-0.4184,-0.4072,-0.3957,-0.376,-0.3901,-0.3862,-0.331,-0.2939,-0.2616,-0.2335,-0.1537,-0.0957,-0.0901,-0.0365,0.0028,0.0056,0.028,0.0561,0.0953,0.1177,0.1542,0.2104,0.2216,0.2523,0.3026,0.2861,0.2889,0.3109,0.2889,0.2776,0.2776,0.2841,0.2677,0.231,0.2253,0.2104,0.1877,0.1559,0.1253,0.1006,0.1361,0.1126,0.0625,0.0904,0.0787,0.0455,0.0,-0.0525,-0.108,-1.1367,-1.1061,-1.0759,-1.0365,-1.0061,-0.9852,-0.9822,-0.9792,-0.9792,-0.9792,-0.9792,-0.9792,-0.9792,-0.9792,-0.9792,-0.9792,-0.9771,-0.9761,-0.9761,-0.9744,-0.956,-0.9185,-0.9166,-0.8839,-0.8154,-0.8032,-0.7927,-0.7786,-0.7435,-0.7254,-0.7231,-0.7215,-0.7207,-0.7207,-0.7207,-0.7335,-0.7489,-0.7489,-0.7655,-0.7892,-0.7763,-0.7532,-0.7234,-0.6842,-0.6818,-0.6965,-0.6647,-0.6868,-0.7243,-0.6829,-0.6512,-0.6216,-0.5848,-0.532,-0.4817,-0.462,-0.465,-0.4733,-0.4508,-0.4893,-0.5376,-0.5376,-0.5301,-0.5159,-0.4796,-0.4705,-0.4647,-0.4618,-0.4383,-0.4179,-0.4208,-0.4179,-0.3978,-0.3373,-0.3016,-0.2664,-0.2349,-0.1738,-0.1232,-0.0945,-0.0368,0.0084,0.0336,0.0393,0.0645,0.1206,0.129,0.1458,0.1823,0.2356,0.2665,0.275,0.2943,0.3054,0.3109,0.3054,0.3054,0.3054,0.3385,0.3265,0.272,0.2407,0.2285,0.2291,0.1967,0.163,0.1353,0.1684,0.1485,0.0951,0.1292,0.1046,0.04,-0.0524,-0.0926,-0.108,-1.1091,-1.0759,-1.0395,-1.0092,-0.9913,-0.9792,-0.9792,-0.9792,-0.9792,-0.9792,-0.9792,-0.9761,-0.968,-0.9629,-0.9608,-0.9696,-0.9625,-0.9519,-0.942,-0.9354,-0.913,-0.8739,-0.8592,-0.836,-0.8011,-0.8086,-0.8079,-0.8019,-0.7847,-0.7764,-0.7764,-0.802,-0.8149,-0.8122,-0.7792,-0.7768,-0.8008,-0.8038,-0.8189,-0.8419,-0.8545,-0.8491,-0.8328,-0.7793,-0.7641,-0.7665,-0.7301,-0.7219,-0.7296,-0.7072,-0.671,-0.6356,-0.6482,-0.6126,-0.5627,-0.5577,-0.5571,-0.5488,-0.5149,-0.5314,-0.5526,-0.5383,-0.5301,-0.5126,-0.459,-0.4501,-0.4479,-0.4254,-0.4206,-0.4175,-0.4032,-0.3973,-0.3747,-0.3157,-0.2754,-0.2423,-0.2117,-0.1679,-0.1282,-0.0991,-0.0546,-0.0171,0.0142,0.0479,0.0841,0.1262,0.1486,0.1795,0.2272,0.2553,0.2776,0.2915,0.3223,0.3278,0.3109,0.3278,0.3407,0.3439,0.3608,0.3476,0.3017,0.2726,0.2528,0.2357,0.1851,0.1566,0.1467,0.162,0.1534,0.1297,0.1451,0.108,0.037,-0.0617,-0.0988,-0.108]},{"header":{"parameterUnit":"m.s-1","parameterCategory":1,"la1":30.6,"la2":28.766,"lo1":-90.7593,"lo2":-88.6598,"dy":0.0162,"dx":0.0183,"nx":116,"ny":114,"refTime":"2023-04-04T12:00:00:Z","depth":0,"parameterNumber":3,"parameterNumberName":"V-component_of_WINDS"},"data":[0.0,0.0,0.0,0.0,0.0,0.0,0.0,0.0,0.0,0.0,0.0,0.0,0.0,0.0,0.0,0.0,0.0,0.0,0.0,0.0,0.0,0.0,0.0,0.0,0.0,0.0,0.0,0.0,0.0,0.0,0.0,0.0,0.0,0.0,0.0,0.0,0.0,0.0,0.0,0.0,0.0,0.0,0.0,0.0,0.0,0.0,0.0,0.0,0.0,0.0,0.0,0.0,0.0,0.0,0.0,0.0,0.0,0.0,0.0,0.0,0.0,0.0,0.0,0.0,0.0,0.0,0.0,0.0,0.0,0.0,0.0,0.0,0.0,0.0,0.0,0.0,0.0,0.0,0.0,0.0,0.0,0.0,0.0,0.0,0.0,0.0,0.0,0.0,0.0,0.0,0.0,0.0,0.0,0.0,0.0,0.0,0.0,0.0,0.0,0.0,0.0,0.0,0.0,0.0,0.0,0.0,0.0,0.0,0.0,0.0,0.0,0.0,0.0,0.0,0.0,0.0,0.0,0.0,0.0,0.0,0.0,0.0,0.0,0.0,0.0,0.0,0.0,0.0,0.0,0.0,0.0,0.0,0.0,0.0,0.0,0.0,0.0,0.0,0.0,0.0,0.0,0.0,0.0,0.0,0.0,0.0,0.0,0.0,0.0,0.0,0.0,0.0,0.0,0.0,0.0,0.0,0.0,0.0,0.0,0.0,0.0,0.0,0.0,0.0,0.0,0.0,0.0,0.0,0.0,0.0,0.0,0.0,0.0,0.0,0.0,0.0,0.0,0.0,0.0,0.0,0.0,0.0,0.0,0.0,0.0,0.0,0.0,0.0,0.0,0.0,0.0,0.0,0.0,0.0,0.0,0.0,0.0,0.0,0.0,0.0,0.0,0.0,0.0,0.0,0.0,0.0,0.0,0.0,0.0,0.0,0.0,0.0,0.0,0.0,0.0,0.0,0.0,0.0,0.0,0.0,0.0,0.0,0.0,0.0,0.0,0.0,0.0,0.0,0.0,0.0,0.0,0.0,0.0,0.0,0.0,0.0,0.0,0.0,0.0,0.0,0.0,0.0,0.0,0.0,0.0,0.0,0.0,0.0,0.0,0.0,0.0,0.0,0.0,0.0,0.0,0.0,0.0,0.0,0.0,0.0,0.0,0.0,0.0,0.0,0.0,0.0,0.0,0.0,0.0,0.0,0.0,0.0,0.0,0.0,0.0,0.0,0.0,0.0,0.0,0.0,0.0,0.0,0.0,0.0,0.0,0.0,0.0,0.0,0.0,0.0,0.0,0.0,0.0,0.0,0.0,0.0,0.0,0.0,0.0,0.0,0.0,0.0,0.0,0.0,0.0,0.0,0.0,0.0,0.0,0.0,0.0,0.0,0.0,0.0,0.0,0.0,0.0,0.0,0.0,0.0,0.0,0.0,0.0,0.0,0.0,0.0,0.0,0.0,0.0,0.0,0.0,0.0,0.0,0.0,0.0,0.0,0.0,0.0,0.0,0.0,0.0,0.0,0.0,0.0,0.0,0.0,0.0,0.0,0.0,0.0,0.0,0.0,0.0,0.0,0.0,0.0,0.0,0.0,0.0,0.0,0.0,0.0,0.0,0.0,0.0,0.0,0.0,0.0,0.0,0.0,0.0,0.0,0.0,0.0,0.0,0.0,0.0,0.0,0.0,0.0,0.0,0.0,0.0,0.0,0.0,0.0,0.0,0.0,0.0,0.0,0.0,0.0,0.0,0.0,0.0,0.0,0.0,0.0,0.0,0.0,0.0,0.0,0.0,0.0,0.0,0.0,0.0,0.0,0.0,0.0,0.0,0.0,0.0,0.0,0.0,0.0,0.0,0.0,0.0,0.0,0.0,0.0,0.0,0.0,0.0,0.0,0.0,0.0,0.0,0.0,0.0,0.0,0.0,0.0,0.0,0.0,0.0,0.0,0.0,0.0,0.0,0.0,0.0,0.0,0.0,0.0,0.0,0.0,0.0,0.0,0.0,0.0,0.0,0.0,0.0,0.0,0.0,0.0,0.0,0.0,0.0,0.0,0.0,0.0,0.0,0.0,0.0,0.0,0.0,0.0,0.0,0.0,0.0,0.0,0.0,0.0,0.0,0.0,0.0,0.0,0.0,0.0,0.0,0.0,0.0,0.0,0.0,0.0,0.0,0.0,0.0,0.0,0.0,0.0,0.0,0.0,0.0,0.0,0.0,0.0,0.0,0.0,0.0,0.0,0.0,0.0,0.0,0.0,0.0,0.0,0.0,0.0,0.0,0.0,0.0,0.0,0.0,0.0,0.0,0.0,0.0,0.0,0.0,0.0,0.0,0.0,0.0,0.0,0.0,0.0,0.0,0.0,0.0,0.0,0.0,0.0,0.0,0.0,0.0,0.0,0.0,0.0,0.0,0.0,0.0,0.0,0.0,0.0,0.0,0.0,0.0,0.0,0.0,0.0,0.0,0.0,0.0,0.0,0.0,0.0,0.0,0.0,0.0,0.0,0.0,0.0,0.0,0.0,0.0,0.0,0.0,0.0,0.0,0.0,0.0,0.0,0.0,0.0,0.0,0.0,0.0,0.0,0.0,0.0,0.0,0.0,0.0,0.0,0.0,0.0,0.0,0.0,0.0,0.0,0.0,0.0,0.0,0.0,0.0,0.0,0.0,0.0,0.0,0.0,0.0,0.0,0.0,0.0,0.0,0.0,0.0,0.0,0.0,0.0,0.0,0.0,0.0,0.0,0.0,0.0,0.0,0.0,0.0,0.0,0.0,0.0,0.0,0.0,0.0,0.0,0.0,0.0,0.0,0.0,0.0,0.0,0.0,0.0,0.0,0.0,0.0,0.0,0.0,0.0,0.0,0.0,0.0,0.0,0.0,0.0,0.0,0.0,0.0,0.0,0.0,0.0,0.0,0.0,0.0,0.0,0.0,0.0,0.0,0.0,0.0,0.0,0.0,0.0,0.0,0.0,0.0,0.0,0.0,0.0,0.0,0.0,0.0,0.0,0.0,0.0,0.0,0.0,0.0,0.0,0.0,0.0,0.0,0.0,0.0,0.0,0.0,0.0,0.0,0.0,0.0,0.0,0.0,0.0,0.0,0.0,0.0,0.0,0.0,0.0,0.0,0.0,0.0,0.0,0.0,0.0,0.0,0.0,0.0,0.0,0.0,0.0,0.0,0.0,0.0,0.0,0.0,0.0,0.0,0.0,0.0,0.0,0.0,0.0,0.0,0.0,0.0,0.0,0.0,0.0,0.0,0.0,0.0,0.0,0.0,0.0,0.0,0.0,0.0,0.0,0.0,0.0,0.0,0.0,0.0,0.0,0.0,0.0,0.0,0.0,0.0,0.0,0.0,0.0,0.0,0.0,0.0,0.0,0.0,0.0,0.0,0.0,0.0,0.0,0.0,0.0,0.0,0.0,0.0,0.0,0.0,0.0,0.0,0.0,0.0,0.0,0.0,0.0,0.0,0.0,0.0,0.0,0.0,0.0,0.0,0.0,0.0,0.0,0.0,0.0,0.0,0.0,0.0,0.0,0.0,0.0,0.0,0.0,0.0,0.0,0.0,0.0,0.0,0.0,0.0,0.0,0.0,0.0,0.0,0.0,0.0,0.0,0.0,0.0,0.0,0.0,0.0,0.0,0.0,0.0,0.0,0.0,0.0,0.0,0.0,0.0,0.0,0.0,0.0,0.0,0.0,0.0,0.0,0.0,0.0,0.0,0.0,0.0,0.0,0.0,0.0,0.0,0.0,0.0,0.0,0.0,0.0,0.0,0.0,0.0,0.0,0.0,0.0,0.0,0.0,0.0,0.0,0.0,0.0,0.0,0.0,0.0,0.0,0.0,0.0,0.0,0.0,0.0,0.0,0.0,0.0,0.0,0.0,0.0,0.0,0.0,0.0,0.0,0.0,0.0,0.0,0.0,0.0,0.0,0.0,0.0,0.0,0.0,0.0,0.0,0.0,0.0,0.0,0.0,0.0,0.0,0.0,0.0,0.0,0.0,0.0,0.0,0.0,0.0,0.0,0.0,0.0,0.0,0.0,0.0,0.0,0.0,0.0,0.0,0.0,0.0,0.0,0.0,0.0,0.0,0.0,0.0,0.0,0.0,0.0,0.0,0.0,0.0,0.0,0.0,0.0,0.0,0.0,0.0,0.0,0.0,0.0,0.0,0.0,0.0,0.0,0.0,0.0,0.0,0.0,0.0,0.0,0.0,0.0,0.0,0.0,0.0,0.0,0.0,0.0,0.0,0.0,0.0,0.0,0.0,0.0,0.0,0.0,0.0,0.0,0.0,0.0,0.0,0.0,0.0,0.0,0.0,0.0,0.0,0.0,0.0,0.0,0.0,0.0,0.0,0.0,0.0,0.0,0.0,0.0,0.0,0.0,0.0,0.0,0.0,0.0,0.0,0.0,0.0,0.0,0.0,0.0,0.0,0.0,0.0,0.0,0.0,0.0,0.0,0.0,0.0,0.0,0.0,0.0,0.0,0.0,0.0,0.0,0.0,0.0,0.0,0.0,0.0,0.0,0.0,0.0,0.0,0.0,0.0,0.0,0.0,0.0,0.0,0.0,0.0,0.0,0.0,0.0,0.0,0.0,0.0,0.0,0.0,0.0,0.0,0.0,0.0,0.0,0.0,0.0,0.0,0.0,0.0,0.0,0.0,0.0,0.0,0.0,0.0,0.0,0.0,0.0,0.0,0.0,0.0,0.0,0.0,0.0,0.0,0.0,0.0,0.0,0.0,0.0,0.0,0.0,0.0,0.0,0.0,0.0,0.0,0.0,0.0,0.0,0.0,0.0,0.0,0.0,0.0,0.0,0.0,0.0,0.0,0.0,0.0,0.0,0.0,0.0,0.0,0.0,0.0,0.0,0.0,0.0,0.0,0.0,0.0,0.0,0.0,0.0,0.0,0.0,0.0,0.0,0.0,0.0,0.0,0.0,0.0,0.0,0.0,0.0,0.0,0.0,0.0,0.0,0.0,0.0,0.0,0.0,0.0,0.0,0.0,0.0,0.0,0.0,0.0,0.0,0.0,0.0,0.0,0.0,0.0,0.0,0.0,0.0,0.0,0.0,0.0,0.0,0.0,0.0,0.0,0.0,0.0,0.0,0.0,0.0,0.0,0.0,0.0,0.0,0.0,0.0,0.0,0.0,0.0,0.0,0.0,0.0,0.0,0.0,0.0,0.0,0.0,0.0,0.0,0.0,0.0,0.0,0.0,0.0,0.0,0.0,0.0,0.0,0.0,0.0,0.0,0.0,0.0,0.0,0.0,0.0,0.0,0.0,0.0,0.0,0.0,0.0,0.0,0.0,0.0,0.0,0.0,0.0,0.0,0.0,0.0,0.0,0.0,0.0,0.0,0.0,0.0,0.0,0.0,0.0,0.0,0.0,0.0,0.0,0.0,0.0,0.0,0.0,0.0,0.0,0.0,0.0,0.0,0.0,0.0,0.0,0.0,0.0,0.0,0.0,0.0,0.0,0.0,0.0,0.0,0.0,0.0,0.0,0.0,0.0,0.0,0.0,0.0,0.0,0.0,0.0,0.0,0.0,0.0,0.0,0.0,0.0,0.0,0.0,0.0,0.0,0.0,0.0,0.0,0.0,0.0,0.0,0.0,0.0,0.0,0.0,0.0,0.0,0.0,0.0,0.0,0.0,0.0,0.0,0.0,0.0,0.0,0.0,0.0,0.0,0.0,0.0,0.0,0.0,0.0,0.0,0.0,0.0,0.0,0.0,0.0,0.0,0.0,0.0,0.0,0.0,0.0,0.0,0.0,0.0,0.0,0.0,0.0,0.0,0.0,0.0,0.0,0.0,0.0,0.0,0.0,0.0,0.0,0.0,0.0,0.0,0.0,0.0,0.0,0.0,0.0,0.0,0.0,0.0,0.0,0.0,0.0,0.0,0.0,0.0,0.0,0.0,0.0,0.0,0.0,0.0,0.0,0.0,0.0,0.0,0.0,0.0,0.0,0.0,0.0,0.0,0.0,0.0,0.0,0.0,0.0,0.0,0.0,0.0,0.0,0.0,0.0,0.0,0.0,0.0,0.0,0.0,0.0,0.0,0.0,0.0,0.0,0.0,0.0,0.0,0.0,0.0,0.0,2.9869,0.0,0.0,0.0,0.0,0.0,0.0,0.0,0.0,0.0,0.0,0.0,0.0,0.0,0.0,0.0,0.0,0.0,0.0,0.0,0.0,0.0,0.0,0.0,0.0,0.0,0.0,0.0,0.0,0.0,0.0,0.0,0.0,0.0,0.0,0.0,0.0,0.0,0.0,0.0,2.6627,2.768,2.8938,2.8681,2.8745,2.9092,0.0,0.0,0.0,0.0,0.0,0.0,0.0,0.0,0.0,0.0,0.0,0.0,0.0,0.0,0.0,0.0,0.0,0.0,0.0,0.0,0.0,0.0,0.0,0.0,0.0,0.0,0.0,0.0,0.0,0.0,0.0,0.0,0.0,0.0,0.0,0.0,0.0,0.0,0.0,0.0,0.0,0.0,0.0,0.0,0.0,0.0,0.0,0.0,0.0,0.0,0.0,0.0,0.0,0.0,0.0,0.0,0.0,0.0,0.0,0.0,0.0,0.0,0.0,0.0,0.0,0.0,0.0,0.0,0.0,0.0,0.0,3.1501,0.0,0.0,0.0,0.0,0.0,0.0,0.0,0.0,0.0,0.0,0.0,0.0,0.0,0.0,0.0,0.0,0.0,0.0,0.0,0.0,0.0,0.0,0.0,0.0,2.4877,2.4287,2.4693,2.4796,0.0,0.0,0.0,0.0,0.0,0.0,0.0,0.0,0.0,2.6641,2.7995,2.9437,3.0892,3.1459,3.2006,3.2498,3.1782,0.0,0.0,0.0,0.0,0.0,0.0,0.0,0.0,0.0,0.0,0.0,0.0,0.0,0.0,0.0,0.0,0.0,0.0,0.0,0.0,0.0,0.0,0.0,0.0,0.0,0.0,0.0,0.0,0.0,0.0,0.0,0.0,0.0,0.0,0.0,0.0,0.0,0.0,0.0,0.0,0.0,0.0,0.0,0.0,0.0,0.0,0.0,0.0,0.0,0.0,0.0,0.0,0.0,0.0,0.0,0.0,0.0,0.0,0.0,0.0,0.0,0.0,0.0,3.6425,3.6334,3.6266,3.6154,3.6117,3.6077,3.5705,3.472,3.329,3.24,0.0,0.0,0.0,0.0,0.0,0.0,0.0,0.0,0.0,0.0,0.0,0.0,0.0,0.0,0.0,0.0,0.0,0.0,0.0,0.0,0.0,2.5246,2.5665,2.5555,2.521,2.5026,0.0,0.0,0.0,0.0,0.0,0.0,0.0,2.6635,2.7384,2.794,3.047,3.2106,3.286,3.4025,3.4874,3.5355,3.3381,3.2563,3.2684,0.0,0.0,0.0,0.0,0.0,0.0,0.0,0.0,0.0,0.0,0.0,0.0,0.0,0.0,0.0,0.0,0.0,0.0,0.0,0.0,0.0,0.0,0.0,0.0,0.0,0.0,0.0,0.0,0.0,0.0,0.0,0.0,0.0,0.0,0.0,0.0,0.0,0.0,0.0,0.0,0.0,3.4205,3.4953,0.0,0.0,0.0,0.0,0.0,0.0,0.0,0.0,0.0,0.0,0.0,0.0,0.0,3.8395,3.9087,3.978,4.0126,4.0126,4.0157,4.0181,4.0155,4.0145,3.9839,3.9273,3.9053,0.0,3.3952,3.3529,0.0,0.0,0.0,0.0,0.0,0.0,0.0,0.0,0.0,0.0,0.0,0.0,0.0,0.0,0.0,0.0,0.0,0.0,0.0,0.0,0.0,2.6448,2.6818,2.6129,2.6797,2.6844,2.5881,2.5681,0.0,0.0,0.0,2.5674,2.6302,2.689,2.8025,2.9711,3.202,3.3637,3.4626,3.5938,3.6844,3.7328,3.6657,3.5578,3.4242,3.3498,0.0,0.0,0.0,0.0,0.0,0.0,0.0,0.0,0.0,0.0,0.0,0.0,0.0,0.0,0.0,0.0,0.0,0.0,0.0,0.0,0.0,0.0,0.0,0.0,0.0,0.0,0.0,0.0,0.0,0.0,0.0,0.0,0.0,0.0,0.0,0.0,0.0,0.0,0.0,3.3844,3.5203,3.5588,3.6035,3.6182,0.0,0.0,0.0,0.0,0.0,0.0,0.0,0.0,0.0,3.9337,3.9707,4.0079,4.0445,4.0761,4.0966,4.1084,4.1038,4.102,4.1066,4.1074,4.0938,4.068,4.0514,3.9058,3.6718,3.5792,3.4752,3.3679,0.0,0.0,0.0,0.0,3.0152,2.9773,0.0,0.0,0.0,0.0,0.0,0.0,0.0,0.0,0.0,0.0,0.0,0.0,2.6537,2.7793,2.8205,2.7296,2.8165,2.8208,2.6903,2.6712,0.0,0.0,0.0,2.6328,2.696,2.7982,2.9725,3.2197,3.3998,3.5462,3.6597,3.7701,3.8487,3.9005,3.9372,3.8177,3.582,3.482,3.4093,3.3504,0.0,0.0,0.0,0.0,0.0,0.0,0.0,0.0,0.0,0.0,0.0,0.0,0.0,0.0,0.0,0.0,0.0,0.0,0.0,0.0,0.0,0.0,0.0,0.0,0.0,0.0,0.0,0.0,0.0,0.0,0.0,0.0,0.0,0.0,0.0,0.0,0.0,3.5239,3.6346,3.6705,3.7385,3.7654,0.0,0.0,0.0,0.0,0.0,0.0,3.9302,4.0698,4.147,4.1413,4.1905,4.2167,4.2124,4.2353,4.2527,4.2633,4.2366,4.2385,4.2596,4.2204,4.2049,4.2069,4.1722,4.0812,3.9497,3.8138,3.6957,3.5871,3.5007,3.4627,3.4438,3.3524,3.3144,3.3095,0.0,0.0,0.0,0.0,0.0,0.0,0.0,0.0,0.0,0.0,0.0,2.7199,2.7916,2.9089,2.9791,2.972,2.8739,2.8158,2.8211,2.7311,2.6873,2.704,2.7267,2.743,2.7473,3.0653,3.3451,3.5746,3.7113,3.8177,3.8951,3.9391,3.9959,4.0583,4.0481,3.9339,3.7473,3.7211,3.6471,3.5289,3.3284,0.0,0.0,0.0,0.0,0.0,0.0,0.0,0.0,0.0,0.0,0.0,0.0,0.0,0.0,0.0,0.0,0.0,0.0,0.0,0.0,0.0,0.0,0.0,0.0,0.0,0.0,0.0,0.0,0.0,0.0,0.0,0.0,0.0,0.0,0.0,0.0,0.0,0.0,3.9232,4.0064,0.0,0.0,0.0,0.0,4.0836,4.0988,4.1122,4.1248,4.205,4.2519,4.2511,4.4186,4.5032,4.4905,4.5905,4.6344,4.624,4.5652,4.5739,4.6377,4.4912,4.4237,4.4193,4.323,4.23,4.1375,4.0214,3.9071,3.798,3.7301,3.7289,3.7475,3.591,3.5303,3.5222,0.0,0.0,0.0,0.0,0.0,0.0,0.0,0.0,2.5499,2.6014,2.6803,2.767,2.8582,2.9716,3.0357,3.0236,3.062,3.0395,2.9271,2.8877,2.8451,2.796,2.7871,2.8652,3.0422,3.2998,3.5127,3.6724,3.8708,4.0055,4.0796,4.1661,4.2395,4.2937,4.253,4.1657,4.0346,3.9165,3.7976,3.6776,3.5612,3.4116,0.0,0.0,0.0,0.0,0.0,0.0,0.0,0.0,0.0,0.0,0.0,0.0,0.0,0.0,0.0,0.0,0.0,0.0,0.0,0.0,0.0,0.0,0.0,0.0,0.0,0.0,0.0,0.0,0.0,0.0,0.0,0.0,0.0,0.0,0.0,0.0,0.0,4.0178,4.1038,0.0,4.1752,4.1812,4.2116,4.2789,4.3377,4.3738,4.378,4.4625,4.5127,4.5172,4.5794,4.6163,4.6197,4.6531,4.6768,4.6881,4.6611,4.6659,4.6944,4.6391,4.6142,4.6078,4.5076,4.4223,4.3493,4.2943,4.1736,4.0173,3.9936,3.9604,3.9181,3.855,3.7931,3.7388,0.0,0.0,0.0,0.0,0.0,0.0,0.0,0.0,2.594,2.6409,2.7427,2.8484,2.9467,3.0794,3.1582,3.1512,3.2138,3.1917,3.0499,3.0394,3.0026,2.9246,2.9693,3.1123,3.3629,3.5534,3.7129,3.8442,4.0463,4.1827,4.2565,4.3326,4.3994,4.4554,4.4002,4.3488,4.2984,4.1413,3.98,3.8223,3.7363,3.5911,3.416,0.0,0.0,0.0,0.0,0.0,0.0,0.0,0.0,0.0,0.0,0.0,0.0,0.0,0.0,0.0,0.0,0.0,0.0,0.0,0.0,0.0,0.0,0.0,0.0,0.0,0.0,0.0,0.0,0.0,0.0,0.0,0.0,0.0,0.0,0.0,4.0726,4.1545,4.2664,4.3437,4.36,4.3642,4.3931,4.4593,4.5267,4.5635,4.5635,4.6549,4.7215,4.7521,4.7865,4.8215,4.8547,4.833,4.8265,4.839,4.7822,4.7683,4.7968,4.7384,4.7271,4.749,4.6544,4.5709,4.5001,4.4921,4.4067,4.2754,4.2102,4.1481,4.0903,4.0294,3.9672,3.9111,0.0,0.0,0.0,0.0,0.0,0.0,0.0,2.5749,2.6131,2.6711,2.8257,2.9662,3.062,3.2316,3.3482,3.3707,3.3186,3.2563,3.191,3.178,3.1488,3.0941,3.2806,3.4808,3.6828,3.8177,3.9623,4.1167,4.2492,4.3532,4.4236,4.4236,4.4639,4.5307,4.4694,4.4736,4.5152,4.3979,4.2091,3.9721,3.8406,3.7853,3.7488,0.0,0.0,0.0,0.0,0.0,0.0,0.0,0.0,0.0,0.0,0.0,0.0,0.0,0.0,0.0,0.0,0.0,0.0,0.0,0.0,0.0,0.0,0.0,0.0,0.0,0.0,0.0,0.0,0.0,0.0,0.0,0.0,0.0,3.8324,4.062,4.2567,4.3485,4.5099,4.62,4.6287,4.6345,4.6414,4.647,4.6688,4.6838,4.6864,4.7789,4.8679,4.9464,5.0444,5.1292,5.1999,5.1508,5.1135,5.0922,4.9433,4.9086,4.9688,4.8065,4.7725,4.8409,4.7593,4.6729,4.5906,4.6,4.5961,4.5664,4.3716,4.2939,4.2746,4.1102,4.046,4.0337,0.0,0.0,0.0,0.0,0.0,0.0,0.0,2.6178,2.6667,2.6587,2.8388,3.003,3.1029,3.2357,3.3498,3.4279,3.3891,3.3459,3.3128,3.2769,3.284,3.3466,3.4489,3.6161,3.8556,3.9699,4.1009,4.2552,4.3599,4.4429,4.4989,4.5092,4.5482,4.6061,4.5467,4.5403,4.5772,4.5582,4.4597,4.2977,4.0683,3.9239,3.8261,0.0,0.0,0.0,0.0,0.0,0.0,0.0,0.0,0.0,0.0,0.0,0.0,0.0,0.0,0.0,0.0,0.0,0.0,0.0,0.0,0.0,0.0,0.0,0.0,0.0,0.0,0.0,0.0,0.0,0.0,0.0,3.954,4.0365,4.0457,4.2005,4.3723,4.5258,4.652,4.7519,4.8225,4.8414,4.8995,5.0276,4.9936,4.9938,5.051,5.0847,5.1175,5.1499,5.1763,5.2038,5.2298,5.2193,5.2103,5.2068,5.1633,5.1208,5.0778,5.0253,4.9836,4.9446,4.8594,4.8148,4.7992,4.7295,4.6985,4.6762,4.4867,4.4132,4.4001,4.2912,4.212,4.1504,0.0,0.0,0.0,0.0,0.0,0.0,0.0,2.6668,2.7179,2.7093,2.8933,3.0608,3.1522,3.2703,3.3836,3.4845,3.4584,3.42,3.383,3.3874,3.455,3.6025,3.6997,3.8361,4.0215,4.1743,4.2998,4.3972,4.5298,4.6169,4.6639,4.6493,4.6841,4.7581,4.6717,4.6564,4.6912,4.6722,4.6178,4.53,4.3349,4.1673,4.019,3.8549,3.7689,3.7149,3.5279,3.4622,3.4303,3.2188,0.0,0.0,0.0,0.0,0.0,0.0,0.0,0.0,0.0,0.0,0.0,0.0,0.0,0.0,0.0,0.0,0.0,0.0,0.0,0.0,0.0,0.0,0.0,0.0,4.1976,4.2984,4.4031,4.4832,4.5843,4.7276,4.8617,4.9637,5.0216,5.0344,5.0818,5.1815,5.1577,5.1605,5.2096,5.222,5.2485,5.2961,5.2961,5.3146,5.3535,5.3242,5.3092,5.3073,5.2711,5.228,5.1764,5.1397,5.0979,5.0473,4.9612,4.91,4.8845,4.8264,4.8023,0.0,0.0,0.0,0.0,0.0,4.2938,4.2169,0.0,0.0,0.0,0.0,0.0,0.0,0.0,2.7122,2.763,2.7989,2.9738,3.1276,3.2179,3.3264,3.4359,3.5409,3.5125,3.471,3.431,3.5045,3.6362,3.8353,3.9623,4.078,4.1801,4.3874,4.512,4.5463,4.7117,4.8144,4.8517,4.8073,4.8393,4.9285,4.8238,4.8001,4.8379,4.773,4.7263,4.6929,4.6092,4.4623,4.2701,4.057,3.9686,3.935,3.777,3.673,3.6019,3.5393,0.0,0.0,0.0,0.0,0.0,0.0,0.0,0.0,0.0,0.0,0.0,0.0,0.0,0.0,0.0,0.0,0.0,0.0,0.0,0.0,0.0,0.0,0.0,0.0,4.4203,4.5728,4.8157,4.8457,4.8717,4.9431,5.0962,5.2,5.2065,5.2105,5.2151,5.2237,5.2345,5.2473,5.2614,0.0,0.0,0.0,0.0,5.4384,5.5101,5.4403,5.4048,5.4029,5.3274,5.2855,5.2735,5.2031,5.1593,5.137,5.0609,4.9815,4.9073,4.9073,4.9079,4.8971,4.7909,4.6941,4.595,4.4444,4.3403,4.2759,0.0,0.0,0.0,0.0,0.0,0.0,0.0,2.718,2.7826,2.875,3.0211,3.1713,3.3148,3.3811,3.4663,3.5928,3.4902,3.454,3.5332,3.6184,3.7452,3.9178,3.992,4.1211,4.3159,4.4486,4.5809,4.7141,4.7811,4.835,4.8735,4.8808,4.9079,4.953,4.946,4.9586,4.9807,4.9658,4.9044,4.816,4.7962,4.6458,4.4184,4.304,4.2291,4.1715,4.0585,4.0074,3.9631,3.7655,3.6307,3.5195,3.3842,3.2265,0.0,0.0,0.0,0.0,0.0,0.0,0.0,0.0,0.0,0.0,0.0,0.0,0.0,0.0,0.0,0.0,0.0,0.0,0.0,4.5471,4.7356,4.8915,5.0119,5.1499,5.214,5.1461,5.2389,5.3106,5.3102,5.3308,5.3674,5.4288,5.3905,5.3914,5.4531,5.4731,5.4867,5.4941,5.4941,5.501,5.5101,5.501,5.4941,5.4941,0.0,0.0,5.3734,5.369,5.2856,5.1478,5.1429,5.0897,5.0107,5.0107,5.0136,5.0098,4.907,4.7753,4.6314,4.5416,4.5026,4.4876,0.0,0.0,0.0,0.0,0.0,0.0,0.0,2.825,2.8888,2.9836,3.1063,3.2278,3.3389,3.3674,3.4126,3.4928,3.4593,3.498,3.6494,3.758,3.8753,4.0089,4.1392,4.2821,4.4369,4.5706,4.7,4.8248,4.9019,4.9571,4.9852,4.9779,5.0031,5.0554,5.0481,5.0544,5.0716,5.082,5.0293,4.9386,4.9245,4.8149,4.636,4.4654,4.3871,4.346,4.2058,4.1403,4.1043,4.0042,3.869,3.733,3.6616,3.5313,3.3851,0.0,0.0,0.0,0.0,0.0,0.0,0.0,0.0,0.0,0.0,0.0,0.0,0.0,0.0,4.1228,0.0,0.0,4.5047,4.7683,4.8915,5.0142,5.1868,5.2915,5.3293,5.2755,5.3585,5.4193,5.4193,5.4351,5.4605,5.4969,5.4713,5.4736,5.5136,5.5655,5.5943,5.5892,5.6364,5.6351,5.5858,5.5944,5.5766,5.5307,5.5371,5.5179,5.4733,5.4398,5.3766,5.2865,5.2087,5.1497,5.1075,5.0669,5.0536,5.0553,5.0125,4.8821,4.7122,4.6449,4.5945,4.555,0.0,0.0,0.0,0.0,0.0,0.0,0.0,2.9361,2.9955,3.103,3.1977,3.2813,3.3519,3.3543,3.3508,3.3565,3.4309,3.5519,3.7199,3.8576,3.9825,4.09,4.2857,4.4344,4.5323,4.6814,4.8115,4.9156,5.0111,5.0724,5.0937,5.0733,5.0949,5.1557,5.1334,5.1286,5.1461,5.1637,5.1313,5.0664,5.0342,4.9698,4.8682,4.617,4.516,4.4896,4.3315,4.2336,4.1852,4.2123,4.0886,3.9202,3.9091,3.8233,3.695,3.5456,3.4713,0.0,0.0,0.0,0.0,0.0,0.0,0.0,0.0,0.0,4.099,4.1969,4.29,4.4026,4.5644,4.6192,4.7162,4.9476,5.0135,5.1077,5.3172,5.3645,5.38,5.3815,5.4517,5.5007,5.5021,5.5073,5.5114,5.5101,5.5287,5.543,5.5477,5.6324,5.6848,5.6881,5.7628,5.7666,5.6907,5.6995,5.6598,5.5675,5.5741,5.5688,5.5485,5.4871,5.4498,5.4227,5.2576,5.1958,5.2045,5.1265,5.0962,5.1022,5.1161,5.0018,4.8192,4.7536,4.6715,4.5903,0.0,0.0,0.0,0.0,0.0,0.0,0.0,0.0,3.0159,3.2233,3.2602,3.3086,3.4179,3.4015,3.3526,3.2796,3.4213,3.5554,3.6553,3.8398,4.0091,4.1452,4.3048,4.4487,4.578,4.6988,4.8413,5.0048,5.0428,5.0784,5.1164,5.1324,5.151,5.176,5.1913,5.2079,5.2275,5.2418,5.2318,5.2028,5.1464,5.1138,5.0708,4.8272,4.6828,4.6032,4.5295,4.4263,4.328,4.3301,4.2184,4.0666,4.0117,3.9753,3.9137,3.7133,3.6509,3.6351,3.5809,3.6829,3.8362,3.9626,4.0155,4.0648,0.0,0.0,4.3801,4.4752,4.578,4.6806,4.7714,4.8637,4.9569,5.059,5.2054,5.3206,5.361,5.4346,5.4848,5.49,5.4978,5.5028,5.508,5.5155,5.515,5.5101,5.5988,5.6505,5.6454,5.7379,5.7927,5.7933,5.8035,5.8035,5.7933,5.7945,5.7504,5.6629,5.6714,5.6311,5.551,5.5654,5.5228,5.4308,5.2742,5.2515,5.3166,5.2476,5.2172,5.2132,5.2269,5.1202,4.9486,4.8644,4.7776,4.69,0.0,0.0,0.0,0.0,0.0,0.0,0.0,0.0,0.0,3.2313,3.2598,3.293,3.3517,3.3186,3.2914,3.2953,3.4086,3.5446,3.6984,3.8953,4.0759,4.2286,4.3829,4.5363,4.6853,4.7469,4.8653,5.0441,5.0554,5.082,5.1202,5.1406,5.161,5.1796,5.2012,5.2211,5.2409,5.2552,5.2588,5.2526,5.1713,5.1432,5.1231,4.8837,4.7493,4.6699,4.5317,4.4009,0.0,4.332,4.2143,4.0662,4.1391,4.0981,4.0096,3.9341,3.8905,3.8657,3.868,3.9346,4.0372,4.1795,4.235,4.2944,4.4443,4.517,4.5794,4.6812,4.7384,4.7969,4.8904,4.9807,5.0691,0.0,5.2815,5.3828,5.4425,5.4821,5.508,5.5155,5.5169,5.5182,5.5216,5.5281,5.5524,5.6053,5.6498,5.6976,5.7449,5.836,5.8869,5.8869,5.9421,5.9463,5.8915,5.8939,5.8533,5.7673,5.7273,5.6862,5.6485,5.6157,5.5513,5.4609,5.3956,5.3638,5.355,5.3262,5.3155,5.3131,5.2675,5.205,5.1197,4.9819,4.8744,4.792,0.0,0.0,0.0,0.0,0.0,0.0,0.0,0.0,0.0,0.0,3.2719,3.291,3.3084,3.2604,3.2444,3.295,3.3909,3.5275,3.7092,3.9107,4.1007,4.2739,4.4169,4.5634,4.7181,4.765,4.8688,5.0304,5.0512,5.082,5.1202,5.1406,5.161,5.1796,5.2012,5.2248,5.2535,5.2529,5.269,5.286,5.1839,5.1469,5.1277,4.9103,4.7842,4.6972,4.5054,4.3541,4.2508,4.27,4.1628,4.0408,4.1614,4.1269,4.0456,4.0633,4.0459,4.0319,4.0898,4.1361,4.2034,4.3463,4.4183,4.4944,4.6469,4.6933,4.7324,4.8325,4.8585,4.8938,4.9877,5.0744,5.1641,5.2629,5.3504,5.4321,5.5031,5.5142,5.5182,5.5255,5.532,5.5371,5.5408,5.5637,5.6075,5.678,5.7264,5.7819,5.8477,5.9356,5.984,5.984,6.0542,6.0605,5.995,5.9982,5.9594,5.8722,5.8191,5.7705,5.723,5.6474,5.5797,5.5239,5.4986,5.4725,5.4421,5.4197,5.4102,5.4073,5.321,5.2721,5.2317,5.0835,4.9701,4.8885,0.0,0.0,0.0,0.0,0.0,0.0,0.0,0.0,0.0,0.0,0.0,0.0,0.0,3.2798,3.2398,3.2413,3.3689,3.509,3.6446,3.8399,4.0445,4.2525,4.3648,4.4861,4.6221,4.7341,4.8434,4.9539,5.0256,5.082,5.1202,5.1406,5.161,5.1796,5.2012,5.2391,5.2853,5.2472,5.2693,5.3185,5.1983,5.1423,5.1127,4.9355,4.7983,4.6774,4.4947,4.3479,4.2272,4.1448,4.0744,4.0206,4.0174,4.0186,4.0235,4.0364,4.0528,0.0,4.1869,4.2776,4.3641,4.4602,4.5645,4.6634,4.7478,4.7916,4.8375,4.9201,4.9577,5.0,5.0802,5.1717,5.266,5.3599,5.443,5.5019,5.5163,5.5255,5.532,5.5389,5.5456,5.5545,0.0,5.6341,5.6799,5.6883,5.8469,5.9469,5.9543,6.0439,6.0943,6.0943,6.0987,6.1,6.1051,6.1051,6.0656,5.9839,5.9824,5.8971,5.7366,5.6569,5.6248,5.6306,5.5469,5.5566,5.6253,5.5402,5.5069,5.4973,5.4162,5.3297,5.2402,5.1553,5.07,4.9822,0.0,0.0,0.0,0.0,0.0,0.0,0.0,0.0,0.0,0.0,0.0,0.0,0.0,0.0,0.0,0.0,3.3689,3.4919,3.5905,3.8316,4.0269,4.155,4.2933,4.4091,4.4997,4.5631,4.6689,4.8109,4.8494,4.905,4.9724,4.9957,5.0139,5.0354,5.0548,5.1002,5.1564,5.1428,5.2166,5.3268,5.1349,5.1088,5.1568,4.8478,4.6797,4.5744,0.0,4.2024,4.1542,4.0726,4.0036,3.9626,4.0138,4.0356,4.0537,4.1261,4.2322,0.0,0.0,0.0,4.5542,4.6511,4.7063,4.7613,4.8557,4.8877,4.9107,4.9514,4.928,4.9116,4.9476,5.0236,5.1125,5.21,5.3473,5.4625,5.525,5.5432,5.551,5.5533,5.5624,0.0,0.0,0.0,0.0,5.7799,5.8442,5.9272,6.0464,6.083,6.1046,6.1128,6.1126,6.1193,6.1303,6.1251,6.1112,6.0882,5.9777,5.8658,5.7576,5.672,5.6378,5.6442,5.615,5.6197,5.6445,5.6141,5.6022,5.594,5.5096,5.4217,5.333,5.2526,5.1676,5.0878,0.0,0.0,0.0,0.0,0.0,0.0,0.0,0.0,0.0,0.0,0.0,0.0,0.0,0.0,0.0,0.0,0.0,3.4442,3.5224,3.7373,3.9077,4.0122,4.1429,4.2471,4.3194,4.3831,4.4859,4.6287,4.6718,4.7361,4.8269,4.8532,4.8724,4.8847,4.9206,4.9709,5.0277,5.0165,5.0859,5.1894,4.9976,4.9612,4.9905,4.725,4.5499,0.0,4.2057,4.0974,4.0422,3.9595,3.9302,3.9388,3.9896,4.0501,4.1178,4.1908,4.332,4.4718,0.0,4.584,4.693,4.7559,4.8073,4.8538,4.9193,4.9438,4.9491,4.9336,4.8963,4.8698,4.8777,4.9493,5.0399,5.1388,5.3009,5.4357,5.4958,5.537,5.5635,5.5682,5.5761,5.5967,0.0,0.0,0.0,5.8346,5.9027,5.9872,6.1045,6.1101,6.1163,6.1264,6.1275,6.1326,6.144,6.1396,6.1408,6.1456,5.9777,5.8698,5.8133,5.6968,5.647,5.6494,5.6494,5.6505,5.6503,5.6503,5.6503,5.6405,5.5547,5.4866,5.4224,5.3105,5.2355,5.1811,0.0,0.0,0.0,0.0,0.0,0.0,0.0,0.0,0.0,0.0,0.0,0.0,0.0,0.0,0.0,0.0,0.0,0.0,3.4427,3.5737,3.7062,3.8387,3.9262,4.0125,4.0992,4.1957,4.3007,4.4128,4.492,4.5766,4.6668,4.709,4.7291,4.7275,4.7929,4.8499,4.8971,4.8681,4.8872,4.9296,4.7995,4.7142,4.6519,4.5725,4.4171,4.2286,4.1491,4.036,3.9121,3.8276,3.8685,3.9551,3.9556,4.0687,4.2072,4.2343,4.3582,4.4945,4.5214,4.6574,4.7934,4.7942,4.8699,4.9463,4.9422,4.9585,4.9523,4.8767,4.8642,4.8688,0.0,0.0,5.0396,5.1385,5.3012,5.4225,5.4446,5.5176,5.5735,0.0,0.0,0.0,0.0,0.0,0.0,5.8557,0.0,6.1081,6.1283,6.1313,6.1344,6.1406,6.1409,6.1437,6.1493,6.1514,6.1537,6.1577,5.9957,5.9109,5.8954,5.7315,5.6535,5.6496,5.6498,5.6509,5.6506,5.6506,5.6508,5.641,5.5591,5.524,5.501,5.3361,5.2744,5.2584,0.0,0.0,0.0,0.0,0.0,0.0,0.0,0.0,0.0,0.0,0.0,0.0,0.0,0.0,0.0,0.0,0.0,0.0,3.4017,3.5368,3.6549,3.7482,3.8263,3.9015,3.9736,4.0261,4.0976,4.1917,4.238,4.281,4.327,4.4011,4.4272,4.4123,4.5024,4.575,4.6306,4.6316,4.7,4.7955,4.648,4.6218,4.6477,4.3948,4.2745,4.2153,4.0323,3.985,3.9968,3.9264,3.9655,4.058,4.127,4.1839,4.2481,4.3776,4.4999,4.6215,4.7566,4.8773,4.9709,4.9907,5.0164,5.0258,4.981,4.9289,4.8867,4.8699,4.7795,4.7031,4.7079,4.7812,4.8924,5.0517,5.2231,0.0,5.5171,5.5651,0.0,5.5933,0.0,5.6358,5.7342,5.7796,0.0,0.0,5.9532,5.9968,6.1298,6.1362,6.1409,6.1468,6.1471,6.1514,6.1561,6.1561,6.1586,6.1597,6.0563,5.9723,5.9033,5.796,5.7109,5.6496,5.6507,5.6539,5.657,5.657,5.6575,5.6541,5.634,5.5849,5.5149,5.4066,5.3266,5.2576,0.0,0.0,0.0,0.0,0.0,0.0,0.0,0.0,0.0,0.0,0.0,0.0,0.0,0.0,0.0,0.0,0.0,0.0,0.0,3.4372,3.5193,3.5654,3.6667,3.7463,3.7932,3.8475,3.9226,4.0173,4.0213,4.0539,4.1127,4.1498,4.1615,4.1522,4.2358,4.2953,4.3363,4.4004,4.4741,0.0,0.0,4.4725,4.4922,4.2562,4.1568,4.1236,3.9651,3.9734,4.0636,4.0961,4.1482,4.2203,4.349,4.3952,4.4212,4.5173,4.6444,4.7662,4.834,4.9735,5.0885,5.0358,5.0496,5.0519,4.95,4.8664,4.7928,4.7213,4.6424,4.5774,4.5466,4.6753,4.8353,0.0,0.0,0.0,5.5083,5.5948,5.6357,0.0,5.6035,0.0,5.7447,5.7946,5.8779,0.0,6.0088,6.0419,6.1439,6.1481,6.1524,6.1586,6.1597,6.161,6.1649,6.1649,6.1645,6.1637,6.0806,6.0142,5.9628,5.8361,5.7529,5.7053,0.0,5.654,5.6607,5.6607,5.6609,5.6592,5.6608,5.6294,5.5769,5.4896,5.4017,5.3155,0.0,0.0,0.0,0.0,0.0,0.0,0.0,0.0,0.0,0.0,3.2458,3.2398,0.0,0.0,0.0,0.0,0.0,0.0,0.0,0.0,3.3676,3.3755,3.5004,3.5836,3.6078,3.6804,3.767,3.8662,3.8373,3.8703,3.9531,3.9391,3.9348,3.9396,4.0061,4.0437,4.0654,4.1776,4.237,4.259,4.2859,4.2999,4.2888,0.0,0.0,4.0137,3.9508,3.9948,4.1106,4.2931,4.3613,4.3989,4.5733,4.6318,4.6433,4.6739,4.7995,4.9179,4.8776,5.0242,5.1598,5.0271,5.0346,5.0356,4.8804,4.7808,4.6744,4.5187,4.4866,4.4704,4.4131,4.6112,4.8196,4.9317,0.0,5.4444,5.4737,5.6106,5.6824,5.6184,5.6113,5.6511,5.7512,5.7609,5.8357,6.0171,6.0967,6.1431,6.16,6.1604,6.1636,6.1698,6.1692,6.1697,6.1697,6.1699,6.1695,6.1684,6.0933,6.0445,6.0184,5.8661,5.7846,5.7599,5.6838,5.655,5.6594,5.6594,5.6594,5.6595,5.6594,5.6594,5.6497,5.5622,5.4744,5.3885,0.0,0.0,0.0,0.0,0.0,0.0,0.0,0.0,0.0,0.0,3.2736,3.2398,0.0,0.0,0.0,0.0,0.0,0.0,0.0,0.0,0.0,3.4004,3.4488,3.498,3.5449,3.5858,3.6334,3.6843,3.691,3.6986,3.7116,3.7687,3.7848,3.7758,3.8693,3.9215,3.9417,3.9746,4.0437,4.1317,4.125,4.1786,4.2502,4.1614,0.0,0.0,4.0275,4.056,4.141,4.4355,4.504,4.4959,4.6641,4.7265,4.7656,4.9155,4.9889,5.0449,5.1775,5.2017,5.1888,5.1763,5.0865,4.9592,4.8035,4.6603,0.0,4.4301,4.3628,4.3412,4.4059,4.5726,4.7761,5.0076,5.216,5.4029,5.5547,5.6061,5.6233,0.0,5.6207,5.665,5.7595,5.7678,0.0,0.0,6.0516,6.0905,6.1633,6.1672,6.1694,6.1699,6.1692,6.1697,6.1697,6.1705,6.1707,6.1705,6.155,6.0711,5.9324,5.9011,5.8114,5.6806,5.6654,0.0,5.6598,5.6598,5.66,5.6601,5.66,5.6598,5.6482,5.5624,5.4745,5.3885,0.0,0.0,0.0,0.0,0.0,0.0,0.0,3.2536,3.3537,3.392,3.3689,3.3351,3.2952,3.2822,3.2732,0.0,0.0,0.0,0.0,0.0,0.0,0.0,0.0,0.0,3.4986,3.5518,0.0,0.0,0.0,3.6364,3.661,0.0,3.6886,3.6908,3.7466,3.7823,3.8067,3.9039,3.9555,3.9784,4.0686,4.1349,0.0,0.0,0.0,0.0,0.0,4.1393,4.1984,4.4364,4.5084,4.5322,4.7458,4.8472,4.9097,5.0026,5.0976,5.1809,5.225,5.2498,5.2451,5.1711,5.0642,4.9298,4.7321,0.0,0.0,4.2905,4.2393,4.2455,4.3395,4.4962,4.6992,4.9633,5.1542,5.3307,5.5114,5.5819,5.6181,5.6255,5.6306,5.6544,5.7032,5.7905,5.8783,5.9668,6.0567,6.125,6.168,6.1706,6.1692,6.1697,6.1702,6.1706,6.169,6.1693,6.1692,6.1709,6.1693,6.1011,5.9761,5.9331,5.8473,5.7244,5.6796,5.6601,5.6601,5.6601,5.6601,5.6601,5.6601,5.6601,5.6542,5.6133,5.5429,5.455,0.0,0.0,0.0,0.0,0.0,0.0,3.1289,3.2673,3.3905,3.4628,3.472,3.4443,3.3749,3.3339,3.3026,0.0,0.0,0.0,0.0,0.0,0.0,0.0,0.0,0.0,0.0,0.0,0.0,0.0,0.0,0.0,0.0,0.0,0.0,0.0,0.0,0.0,3.7117,3.8492,3.8864,0.0,0.0,4.1083,0.0,0.0,0.0,0.0,0.0,4.2064,4.2484,4.4097,4.4797,4.5406,4.7627,4.9032,4.9929,5.0433,5.1693,5.276,5.2038,5.2441,5.2719,5.1288,5.0114,4.8754,4.6542,4.4773,4.317,4.1595,4.1303,4.163,4.2552,4.411,4.6063,0.0,5.0568,5.2402,5.4018,5.5243,5.6006,5.6108,5.6307,0.0,5.6484,5.7759,0.0,5.9063,6.0704,6.1701,6.1703,6.1693,6.1702,6.1709,6.1691,6.1694,6.1697,6.1698,6.1697,6.1693,6.1697,6.1249,6.037,5.9569,5.871,5.7851,5.6973,5.6601,5.6601,5.6601,5.6601,5.6601,5.6601,5.6581,5.658,5.658,5.5916,5.492,0.0,0.0,0.0,0.0,0.0,0.0,3.1289,3.3118,3.4629,3.5322,3.5414,3.5197,3.4634,3.411,3.3485,0.0,0.0,0.0,0.0,0.0,0.0,0.0,0.0,0.0,0.0,0.0,0.0,0.0,0.0,0.0,0.0,0.0,0.0,0.0,0.0,0.0,0.0,3.7259,0.0,0.0,0.0,0.0,0.0,0.0,0.0,0.0,0.0,4.2166,4.2623,4.4233,4.4924,4.5284,4.6432,4.7816,4.9334,5.0996,5.22,5.2835,5.2167,5.2146,5.2096,5.1207,4.9389,4.7346,4.5605,0.0,4.2506,4.0848,4.0503,4.0784,4.1669,4.3248,4.5002,0.0,0.0,5.1331,5.2306,5.4032,5.5202,5.522,0.0,0.0,5.6506,5.6694,5.7463,5.8986,6.0704,6.1704,6.1696,6.1697,6.1702,6.1709,6.1695,6.1697,6.1697,6.1699,6.1699,6.1699,6.1699,6.123,6.0371,5.957,5.8711,5.7851,5.6973,5.6601,0.0,5.6601,5.66,5.6594,5.6594,5.6568,5.6514,5.6514,5.5498,5.4112,0.0,0.0,0.0,0.0,0.0,0.0,3.1289,3.3151,3.4751,3.5414,3.5845,3.5752,3.4788,3.4589,3.4067,3.2986,0.0,0.0,0.0,0.0,0.0,0.0,0.0,0.0,0.0,0.0,3.5095,3.5402,0.0,0.0,0.0,0.0,0.0,0.0,0.0,0.0,0.0,0.0,0.0,0.0,0.0,0.0,0.0,0.0,0.0,0.0,0.0,0.0,4.193,4.3627,4.398,4.3947,4.5337,4.6257,4.7306,4.9556,5.1226,5.2317,5.2166,5.2243,5.2203,5.1429,4.9478,4.7289,4.5644,0.0,4.2456,4.085,4.0516,4.0804,4.1719,4.2878,4.4265,4.6002,0.0,0.0,5.1332,5.2302,5.3396,5.4966,5.5496,5.5948,0.0,0.0,5.8814,6.0539,6.1306,6.1704,6.1691,6.1707,6.1709,6.1695,6.1698,6.1699,6.1699,6.1699,6.1699,6.1699,6.1699,6.0996,5.9668,5.9355,5.8437,5.7106,5.6755,5.6576,0.0,5.655,5.6546,5.654,5.654,5.6516,5.6507,5.6507,5.5747,5.4653,0.0,0.0,0.0,0.0,0.0,3.0345,3.1259,3.2812,3.4211,3.5135,3.5659,3.5596,3.4638,3.4641,3.4326,3.3313,3.3208,0.0,0.0,0.0,0.0,0.0,0.0,0.0,0.0,0.0,3.535,3.5583,3.5761,3.6051,0.0,0.0,0.0,0.0,0.0,0.0,0.0,0.0,0.0,0.0,0.0,0.0,0.0,0.0,0.0,0.0,0.0,0.0,0.0,0.0,0.0,4.3382,0.0,0.0,0.0,0.0,4.9873,5.1272,5.1166,5.1651,5.196,5.0913,4.9077,4.7072,4.5453,0.0,4.2221,4.0891,4.0609,4.0808,4.1496,4.2328,4.3401,4.4895,0.0,4.8024,5.0145,5.1159,5.2374,5.4237,0.0,5.5466,5.6159,5.796,5.9605,6.0842,6.1414,6.1692,6.1697,6.1694,6.1695,6.1698,6.1699,6.1699,6.1699,6.1699,6.1699,6.1699,6.1699,6.1073,5.9921,5.9412,5.8509,5.7309,5.6782,5.654,0.0,5.6507,5.6503,5.6497,5.6497,5.6492,5.6504,5.6504,5.5958,5.5077,0.0,0.0,0.0,0.0,0.0,0.0,3.1182,3.198,3.2962,3.4509,3.4709,3.4561,3.4142,3.4229,3.4094,3.354,3.2879,0.0,0.0,0.0,0.0,0.0,0.0,0.0,0.0,0.0,3.5734,3.5997,3.6335,3.6492,3.6502,3.669,3.6878,0.0,0.0,0.0,0.0,0.0,0.0,0.0,0.0,0.0,0.0,0.0,0.0,0.0,0.0,0.0,0.0,0.0,0.0,0.0,0.0,0.0,0.0,0.0,4.8352,4.965,4.8854,5.0044,5.1094,4.9355,4.7864,4.6376,4.4688,4.3073,4.1674,4.0875,4.0642,4.0615,4.0704,4.1434,4.2304,4.3182,4.5562,0.0,4.8494,5.091,5.2621,0.0,5.4185,5.5236,5.5311,5.7605,5.9113,5.9132,6.0733,0.0,6.1697,6.1697,6.1698,6.1699,6.1699,6.1699,6.1699,6.1699,6.1699,6.1699,6.1695,6.169,6.1611,5.9896,5.9084,5.8986,5.7249,5.6507,0.0,5.6507,5.6492,5.6503,5.6503,5.6501,5.6507,5.6507,5.5959,5.5078,0.0,0.0,0.0,0.0,0.0,0.0,2.9956,3.1464,3.2705,3.3209,3.4175,3.4672,3.4278,3.4268,3.4159,3.3797,3.3651,0.0,0.0,0.0,0.0,0.0,0.0,0.0,0.0,3.5916,3.6062,3.6206,3.6863,3.7022,3.6718,3.7383,3.7461,3.7079,3.7318,0.0,0.0,0.0,0.0,0.0,0.0,0.0,0.0,0.0,0.0,0.0,0.0,0.0,0.0,0.0,0.0,0.0,0.0,0.0,0.0,4.4593,4.643,4.8194,4.8094,4.8993,4.9747,4.8682,4.7267,4.5827,4.4681,4.3196,4.1809,4.0944,4.0798,4.0809,4.0831,4.1541,4.2439,4.337,4.4718,4.6387,4.8446,4.9977,5.1548,5.3306,5.508,5.6388,5.6952,5.778,5.8743,5.9898,6.0506,6.1073,6.1679,6.1699,6.1699,6.1699,6.1699,6.1699,6.1699,6.1697,6.1695,6.1694,6.1096,6.0501,5.9875,5.8737,5.7885,5.7299,5.6733,5.6506,5.6505,5.6505,5.6498,5.6506,5.6506,5.6498,5.6507,5.6507,5.5957,5.5078,0.0,0.0,0.0,0.0,0.0,0.0,2.9416,3.0616,3.1592,3.1949,3.2875,3.3424,3.3224,3.3357,3.3399,3.3237,3.3746,0.0,0.0,0.0,0.0,0.0,0.0,0.0,3.6079,3.6187,3.6445,3.6869,3.7467,3.7781,3.7825,3.8111,3.8064,3.7732,3.7646,3.7649,0.0,0.0,0.0,0.0,0.0,0.0,4.0709,0.0,0.0,0.0,0.0,0.0,0.0,0.0,0.0,0.0,0.0,0.0,0.0,0.0,4.4306,4.602,4.7038,4.8069,4.8596,4.7488,4.6262,0.0,4.3856,4.2563,4.1463,4.0931,4.0872,4.0893,4.0903,4.1364,4.2151,4.3408,4.4604,4.6185,4.8475,5.0086,5.1994,5.4573,5.5605,5.6562,5.7739,5.7884,5.8474,5.9843,5.9922,6.0292,6.1151,6.0895,6.0718,6.0718,6.1033,6.1209,6.1206,6.0886,6.0725,6.0705,6.0177,5.9636,5.9069,5.8161,5.7462,5.693,5.664,5.651,0.0,5.6507,5.6507,5.6507,5.6507,5.6507,5.6507,5.6507,5.6154,5.5526,0.0,0.0,0.0,0.0,0.0,0.0,0.0,2.9558,2.9937,3.0767,3.1073,3.1281,3.1453,3.1841,3.2134,3.2152,3.3251,0.0,0.0,0.0,0.0,0.0,0.0,0.0,3.6236,3.6297,3.6839,3.7823,3.8145,3.8702,3.9483,3.887,3.8672,3.8772,3.7988,3.7801,3.8077,3.8264,3.8929,3.9871,3.9853,3.9964,0.0,0.0,0.0,0.0,0.0,0.0,0.0,0.0,0.0,0.0,0.0,0.0,0.0,0.0,0.0,0.0,0.0,4.6987,4.7373,4.5826,4.4878,4.3944,4.2448,4.1427,0.0,4.0897,4.0905,4.0895,4.0905,4.1004,4.1636,4.3333,4.5062,4.6819,4.8553,5.1107,5.3718,5.6213,5.5891,5.6085,5.7648,5.7792,5.8164,5.9023,5.9039,5.9385,6.0264,5.9547,5.9106,5.9104,5.9826,6.0236,6.0316,5.9495,5.9104,5.9103,5.9035,5.8998,5.8976,5.8044,5.7615,0.0,5.6816,5.6507,5.6507,5.6507,5.6507,5.6507,5.6507,5.6507,5.6507,5.6507,5.6468,5.6152,0.0,0.0,0.0,0.0,0.0,0.0,0.0,0.0,0.0,0.0,3.0692,3.165,3.205,3.219,3.2408,0.0,0.0,0.0,0.0,0.0,0.0,0.0,0.0,0.0,3.6589,3.6657,3.7145,3.8102,3.8832,3.9335,3.9588,3.9562,3.9316,3.884,3.8257,3.8261,3.868,3.8736,3.9013,3.9449,3.9497,3.991,0.0,0.0,0.0,0.0,4.1506,4.2278,0.0,0.0,0.0,0.0,0.0,0.0,0.0,0.0,4.1873,4.2353,4.3568,0.0,4.4272,4.3923,4.3249,4.256,0.0,0.0,0.0,0.0,0.0,0.0,0.0,4.1492,4.2289,4.3411,4.506,4.6804,4.8551,5.2149,5.5084,5.6419,5.6959,5.7113,5.6854,5.6836,5.7186,5.8068,5.8101,5.8489,5.9369,5.9207,5.9097,5.9092,5.8652,5.8722,5.9398,5.9204,5.9093,5.9092,5.8373,5.802,5.8,5.7154,5.6777,5.678,5.6585,5.6507,5.6507,5.6507,5.6507,5.6507,5.6507,5.6507,5.6507,5.6507,5.6076,5.5351,0.0,0.0,0.0,0.0,0.0,0.0,0.0,0.0,0.0,0.0,3.0147,3.0928,3.1301,3.149,3.1761,0.0,0.0,0.0,0.0,0.0,0.0,0.0,0.0,3.6496,3.6745,3.6871,3.7591,3.8934,3.9491,4.0198,4.0967,4.0774,4.0306,3.9581,3.8686,3.8478,3.8807,3.8906,3.9066,3.9252,3.9357,0.0,0.0,0.0,0.0,0.0,4.1078,4.1913,0.0,4.362,4.4107,4.4295,0.0,0.0,0.0,0.0,4.1224,4.1458,4.2344,4.2891,4.3217,4.3273,4.2699,4.2107,4.2133,0.0,0.0,0.0,0.0,0.0,0.0,4.1937,4.2677,4.3985,4.5652,4.7809,5.0722,5.3175,5.5273,5.6955,5.7178,5.7185,5.7106,5.6734,5.6865,5.7722,5.7421,5.7571,5.8464,5.8119,5.7907,5.7905,5.7457,5.7604,5.8442,5.8093,5.7905,5.7903,5.7394,5.7148,5.7128,5.6702,5.6507,5.6507,5.6507,5.6507,5.6507,5.6507,5.6507,5.6507,5.6507,5.6507,5.6446,5.6026,5.5552,5.4963,0.0,0.0,0.0,0.0,0.0,0.0,0.0,0.0,0.0,0.0,0.0,0.0,0.0,0.0,0.0,0.0,0.0,0.0,0.0,0.0,0.0,0.0,3.6505,3.6677,3.6878,3.7193,3.8183,3.9862,4.0261,4.1283,4.2791,4.2279,4.1542,4.0596,3.9223,3.8698,3.8829,3.901,3.9165,3.9323,3.942,0.0,0.0,0.0,0.0,0.0,0.0,0.0,0.0,4.3365,4.3826,4.3889,4.3082,0.0,0.0,0.0,0.0,0.0,4.1585,4.2405,4.3085,4.3263,4.2804,4.2324,4.2388,0.0,0.0,0.0,0.0,0.0,0.0,4.2482,0.0,4.4849,4.678,4.9483,5.3536,5.4262,5.52,5.7361,5.707,5.6949,5.7543,5.6934,5.681,5.7556,5.6918,5.6826,5.7553,5.6896,5.6507,5.6507,5.6507,5.6758,5.7304,5.6777,5.6507,5.6507,5.6507,5.6427,5.629,5.629,5.6232,5.6095,0.0,0.0,5.6095,5.6095,5.6095,5.6095,5.6095,5.6093,5.5992,5.5192,5.4811,5.447,0.0,0.0,0.0,0.0,0.0,0.0,0.0,0.0,0.0,0.0,0.0,0.0,0.0,0.0,0.0,0.0,0.0,0.0,0.0,0.0,0.0,3.5873,3.655,3.7017,3.722,3.8087,3.9031,4.0047,4.1508,4.2748,4.3784,4.3913,4.3035,4.1271,3.978,3.9198,3.9389,3.9471,3.9611,3.9787,3.9804,0.0,0.0,0.0,0.0,0.0,0.0,0.0,0.0,4.2723,4.3546,4.403,4.3214,0.0,0.0,0.0,0.0,0.0,4.0852,4.1577,4.2456,4.3196,4.3286,4.3216,4.3287,0.0,0.0,0.0,0.0,0.0,0.0,4.3504,4.483,4.584,4.8655,5.1722,5.4601,5.564,5.6287,5.6738,5.7265,5.7361,5.676,5.6582,5.6566,5.6688,5.6583,5.6554,5.6693,5.6567,5.6507,5.6507,5.6507,5.6212,5.5585,5.6193,5.6507,5.6507,5.6507,5.6115,5.539,5.539,5.5,5.4299,0.0,5.4299,5.4299,5.4299,5.4299,5.4299,5.4299,5.4251,5.4197,5.4056,5.3534,5.2753,0.0,0.0,0.0,0.0,0.0,0.0,0.0,0.0,0.0,0.0,0.0,0.0,0.0,0.0,0.0,0.0,0.0,0.0,0.0,0.0,3.5141,3.6028,3.691,3.756,3.7986,3.8558,3.9738,4.156,4.2557,4.3723,4.501,4.4441,4.3262,4.1556,4.0442,3.9761,3.9458,3.9599,3.9741,3.9867,0.0,0.0,0.0,0.0,0.0,0.0,0.0,0.0,0.0,0.0,4.2833,4.3418,4.2647,0.0,0.0,0.0,0.0,0.0,4.1889,4.2472,4.3124,4.4475,4.4104,4.3538,4.4088,0.0,0.0,0.0,0.0,0.0,0.0,4.4734,4.6351,4.8648,5.0324,5.2278,5.4882,5.5605,5.6013,5.6495,5.6877,5.6942,5.6545,5.6503,5.6293,5.5837,5.5806,5.559,5.5121,5.51,5.51,5.51,5.51,5.4905,5.4494,5.4885,5.51,5.51,5.51,5.4885,5.4494,5.4463,5.4223,5.3853,0.0,5.3842,5.3855,5.3855,5.386,5.3907,5.3857,5.3829,5.374,5.3278,5.2556,5.176,0.0,0.0,0.0,0.0,0.0,0.0,0.0,0.0,0.0,0.0,0.0,0.0,0.0,0.0,0.0,0.0,0.0,0.0,0.0,3.4394,3.5341,3.6061,3.7149,3.8061,3.8729,3.9318,4.0718,4.2966,4.3888,4.5027,4.6337,4.4602,4.3204,4.2076,4.0912,4.0077,3.9502,3.9688,3.9809,3.9854,0.0,0.0,0.0,0.0,0.0,0.0,0.0,0.0,0.0,0.0,0.0,0.0,0.0,0.0,0.0,4.1003,4.0713,4.1036,4.2401,4.3099,4.3726,4.5082,4.471,4.4219,0.0,0.0,0.0,0.0,0.0,0.0,0.0,4.6089,4.7754,5.0622,5.1617,5.2773,5.4998,5.546,5.5818,5.6427,5.6326,5.6205,5.6209,5.6014,5.5615,5.495,5.4907,5.4596,5.395,5.3909,5.3909,5.3909,5.3909,5.381,5.3591,5.3591,5.3691,5.3909,5.3885,5.3786,5.3589,5.353,5.3383,5.3188,5.3186,5.3188,5.3188,5.3188,5.3221,5.3297,5.3223,5.3217,5.3136,5.2446,5.1787,5.1237,0.0,0.0,0.0,0.0,0.0,0.0,0.0,0.0,0.0,0.0,0.0,0.0,0.0,0.0,0.0,0.0,0.0,0.0,0.0,3.4257,3.5206,3.5449,3.7029,3.8285,3.9148,4.0878,4.2335,4.3452,4.5915,4.7339,4.7695,4.4679,4.3296,4.3271,4.0912,3.9826,3.9781,3.9927,3.998,3.9991,4.0067,0.0,0.0,0.0,0.0,0.0,0.0,0.0,0.0,0.0,0.0,0.0,0.0,0.0,4.2802,4.1242,4.079,4.0825,4.0945,4.2164,4.3441,4.3628,4.481,0.0,4.5998,4.5959,0.0,4.5918,0.0,0.0,0.0,4.7478,4.8953,5.0016,5.2226,5.4155,5.5151,5.5936,5.6433,5.6489,5.5792,5.5293,5.5293,5.4552,5.4058,5.3999,5.3999,5.3972,5.3892,5.3909,5.3909,5.3909,5.3909,5.3511,5.2693,5.2693,5.3093,5.3909,5.3831,5.3413,5.2693,5.2626,5.2147,5.1388,5.1386,5.1386,5.1388,5.1388,5.1424,5.1486,5.1486,5.1484,5.1462,5.1337,5.1283,5.1284,0.0,0.0,0.0,0.0,0.0,0.0,0.0,0.0,0.0,0.0,0.0,0.0,0.0,0.0,0.0,0.0,0.0,0.0,0.0,3.4088,3.5069,3.5684,3.6918,3.849,4.0404,4.1008,4.2632,4.529,4.7047,4.7483,4.6687,4.5037,4.3467,4.2034,4.1127,4.0764,4.078,4.0316,4.0403,4.0827,4.0397,4.0243,0.0,0.0,0.0,0.0,0.0,0.0,0.0,0.0,4.13,4.1503,4.1263,4.1392,4.1534,4.0978,4.0806,4.0927,4.146,4.2493,4.3544,4.416,4.5216,0.0,0.0,4.6916,4.7053,4.7614,4.7772,0.0,0.0,4.8383,4.9316,5.0683,5.2183,5.3494,5.4374,5.4711,5.4875,5.4875,5.4598,5.4387,5.438,5.4098,5.3674,5.3128,5.3087,5.2842,5.2251,5.2267,5.2275,5.2275,5.2275,5.2115,5.1795,5.174,5.1891,5.2212,5.2203,5.2052,5.1795,5.1714,5.1519,5.1205,5.1206,5.1208,5.1205,5.1205,5.1232,5.1308,5.1308,5.128,5.1244,5.1251,5.128,5.1291,0.0,0.0,0.0,0.0,0.0,0.0,0.0,0.0,0.0,0.0,0.0,0.0,0.0,0.0,0.0,0.0,0.0,0.0,3.3117,3.4067,3.5019,3.5882,3.693,3.8575,4.0875,4.0872,4.2594,4.6148,4.681,4.6624,4.5627,4.4366,4.301,4.1635,4.1431,4.1506,4.1731,4.092,4.0911,4.137,4.0615,4.0325,0.0,0.0,0.0,0.0,0.0,0.0,0.0,0.0,4.0816,4.1021,4.0803,4.091,4.1071,4.0855,4.0797,4.0929,4.1554,4.2564,4.359,4.422,0.0,0.0,4.7555,4.7829,4.8084,4.8966,4.8962,4.8793,4.8809,0.0,4.933,5.0759,5.1955,5.2908,5.3501,5.3778,5.3902,5.3902,5.3654,5.3498,5.3495,5.3221,5.2793,5.2193,5.1927,5.1609,5.1211,5.1003,5.088,5.088,5.1146,5.1141,5.0888,5.1094,5.1198,5.1198,5.1207,5.1218,5.1266,5.1219,5.1203,5.1192,5.1206,5.1195,5.1205,5.1205,5.1232,5.131,5.1297,5.1269,5.1234,5.1274,5.13,5.1302,0.0,0.0,0.0,0.0,0.0,0.0,0.0,0.0,0.0,0.0,0.0,0.0,0.0,0.0,0.0,0.0,0.0,0.0,3.3393,3.421,3.5092,3.5965,3.7095,3.8511,4.0271,4.0633,4.2376,4.557,4.5056,4.4821,4.4833,4.2432,4.1762,4.2544,4.1764,4.1859,4.2563,4.1753,4.1446,4.1447,4.0633,4.0383,4.0502,0.0,0.0,0.0,0.0,0.0,0.0,0.0,4.1276,4.1843,4.1055,4.1354,4.1822,4.104,4.0798,4.0824,4.0883,4.2189,4.3501,4.3516,0.0,0.0,4.8302,4.8755,4.9043,4.9922,4.9402,4.8802,4.8807,4.8808,4.9097,4.9944,5.1546,5.268,5.2686,5.335,5.3845,5.3864,5.3108,5.2574,5.2596,5.1753,5.1208,5.1189,5.0456,5.0343,5.1133,5.0417,4.9984,4.9984,5.0755,5.078,5.0002,5.0777,5.1172,5.1172,5.1178,5.1181,5.1192,5.1197,5.12,5.1192,5.1192,5.1205,5.1208,5.1208,5.1244,5.1291,5.1292,5.13,5.13,5.13,5.13,5.13,0.0,0.0,0.0,0.0,0.0,0.0,0.0,0.0,0.0,0.0,0.0,0.0,0.0,0.0,0.0,0.0,0.0,0.0,3.3612,3.4034,3.4942,3.6426,3.7,3.834,4.0599,4.1487,4.2684,4.426,4.415,4.3823,4.3261,4.261,4.21,4.1772,4.2199,4.2825,4.3488,4.213,4.1877,4.2302,4.0967,4.0462,4.0506,0.0,0.0,0.0,0.0,0.0,0.0,0.0,0.0,0.0,4.0862,4.0968,4.1109,4.0866,4.0807,4.0959,4.1639,4.2669,4.3703,4.4261,0.0,0.0,0.0,4.8309,0.0,0.0,4.9882,4.9531,4.8904,4.9306,4.9607,4.9232,5.0131,5.087,5.0872,5.0553,5.0525,5.1097,5.0936,5.1003,5.1622,5.1427,5.1025,5.0402,5.0122,4.9814,4.9394,4.9148,4.9017,4.9017,4.9241,4.9284,4.9087,4.9277,4.9389,4.9445,4.9438,5.0052,5.1192,5.1197,5.12,5.1192,5.1192,5.1205,5.1191,5.1249,5.1282,5.1291,5.1292,5.13,5.13,5.13,5.13,5.13,0.0,0.0,0.0,0.0,0.0,0.0,0.0,0.0,0.0,0.0,0.0,0.0,0.0,0.0,0.0,0.0,0.0,0.0,3.378,3.4004,3.4915,3.6663,3.7003,3.8215,4.0518,4.0821,4.1255,4.1824,4.249,4.2558,4.2117,4.2153,4.2108,4.1999,4.2913,4.3573,4.3916,4.2656,4.221,4.2258,4.0969,4.0478,4.0495,0.0,0.0,0.0,0.0,0.0,0.0,0.0,0.0,0.0,4.0784,4.0797,4.0806,4.0837,4.0831,4.1036,4.1987,4.2916,4.3824,4.4637,4.5916,4.7121,4.7671,0.0,0.0,0.0,4.9817,4.9427,4.8893,4.8958,4.9004,4.8824,4.9236,4.9585,4.9586,4.9134,4.9092,4.9899,4.9683,4.9833,5.0702,5.0469,5.0047,4.9521,4.9166,4.8856,4.8603,4.83,4.8125,4.8115,4.8435,4.8462,4.8195,4.8453,4.8628,4.8662,4.8694,4.9236,5.0213,5.0564,5.0728,5.0739,5.1099,5.1247,5.1241,5.1276,5.1302,5.1304,5.1294,5.13,5.13,5.13,5.13,5.13,0.0,0.0,0.0,0.0,0.0,0.0,0.0,0.0,0.0,0.0,0.0,0.0,0.0,0.0,0.0,0.0,0.0,0.0,0.0,3.4142,3.5019,3.6783,3.7246,3.8286,4.0038,3.9256,3.8842,3.8901,4.0376,4.1118,4.1197,4.1426,4.199,4.2847,4.3708,4.4062,4.3964,4.3139,4.2375,4.1619,4.0765,4.0455,4.0504,4.0507,0.0,0.0,0.0,0.0,0.0,0.0,0.0,0.0,4.0642,4.0678,4.0696,4.0757,4.0837,4.1114,4.213,4.3045,4.3917,4.4807,4.5674,4.6354,4.6504,4.894,5.0918,5.0048,4.9305,4.8779,4.8699,4.8104,4.7857,4.8563,4.8685,4.869,4.8674,4.8612,4.8865,4.9662,4.9056,4.8924,4.9807,4.916,4.8657,4.8582,4.7858,4.7676,4.8331,4.7668,4.7279,4.7276,4.7972,4.8011,4.7298,4.8017,4.837,4.8375,4.8438,4.8469,4.8508,4.9459,4.9921,5.0045,5.0766,5.1164,5.13,5.1203,5.1222,5.13,5.13,5.13,5.13,5.13,5.13,5.13,0.0,0.0,0.0,0.0,0.0,0.0,0.0,0.0,0.0,0.0,0.0,0.0,0.0,0.0,0.0,0.0,0.0,0.0,0.0,3.4556,3.5453,3.7195,3.8733,3.9437,3.919,3.9031,3.867,3.8053,3.9017,3.9537,3.963,4.16,4.2637,4.2919,4.3723,4.4087,4.3986,4.2567,4.1839,4.1555,4.0785,4.0495,4.0503,4.0507,4.0512,0.0,0.0,0.0,0.0,0.0,0.0,0.0,3.9696,3.9747,3.978,3.9802,4.032,4.1241,4.2812,4.3464,4.4067,4.5555,4.6617,4.7479,4.8179,4.8873,4.9133,4.8309,4.8485,4.8598,4.7916,4.8181,4.8365,4.785,4.7783,4.7779,4.7776,4.7191,4.7069,4.785,4.7787,4.8026,4.8907,4.8764,4.8368,4.7728,4.7505,4.7179,4.6662,4.6413,4.6306,4.6298,4.6468,4.6498,4.6389,4.6545,4.6661,4.6718,4.6722,4.6734,4.6787,4.8288,4.9357,4.9986,4.9539,5.0073,5.1242,5.056,5.0677,5.13,5.13,5.13,5.13,5.13,5.13,5.13,0.0,0.0,0.0,0.0,0.0,0.0,0.0,0.0,0.0,0.0,0.0,0.0,0.0,0.0,0.0,0.0,0.0,0.0,0.0,0.0,3.5695,3.7514,3.9332,3.9898,3.9015,3.8642,3.8082,3.7274,3.8102,3.8922,3.9768,4.1875,4.31,4.3545,4.4023,4.3985,4.3455,4.2298,4.1518,4.1048,4.0696,4.0319,3.9964,3.9949,3.9953,3.9964,3.995,0.0,0.0,0.0,0.0,0.0,0.0,0.0,3.8848,3.8869,3.954,4.0567,4.1929,4.2678,4.3387,4.4676,0.0,4.5858,4.6302,4.6377,4.6235,4.5818,4.7063,4.7836,4.6531,4.6659,4.6921,4.6877,4.6181,4.5787,4.6197,4.5859,4.5889,4.6734,4.6809,4.7125,4.7985,4.768,4.7052,4.6212,4.6162,4.5956,4.5495,4.5444,4.5429,4.5436,4.5805,4.5832,4.5476,4.5898,4.6112,4.6156,4.6179,4.6193,4.6241,4.7533,4.8604,4.9397,4.8978,4.9294,5.0073,4.9605,4.9683,5.0092,5.0092,5.0346,5.0677,5.0677,5.095,5.13,0.0,0.0,0.0,0.0,0.0,0.0,0.0,0.0,0.0,0.0,0.0,0.0,0.0,0.0,0.0,0.0,0.0,0.0,0.0,0.0,0.0,3.7767,3.9365,3.9793,3.8933,3.8127,3.7325,3.6517,3.7668,3.9,4.0482,4.2164,4.3427,4.4242,4.4215,4.3726,4.2892,4.2048,4.1238,4.0519,4.0583,4.0225,3.9612,3.9558,3.9487,3.9397,3.9344,3.9642,4.0077,4.0126,0.0,0.0,0.0,0.0,3.7906,3.7967,3.8636,3.9606,4.0698,4.1782,4.2808,4.3514,4.3691,0.0,4.3707,4.3706,4.3667,4.3502,4.533,4.6492,4.5034,4.4731,4.4934,4.5637,4.4548,4.3856,4.4561,4.4681,4.4941,4.5677,4.57,4.5957,4.6668,4.6206,4.5505,4.4643,4.4701,4.4731,4.4574,4.4574,4.4582,4.4579,4.5222,4.5242,4.4579,4.5439,4.5881,4.5886,4.6108,4.6207,4.6228,4.6948,4.7735,4.8549,4.8413,4.8512,4.8787,4.8631,4.8651,4.8806,4.8806,4.9216,4.9781,4.9781,5.0248,5.0872,0.0,0.0,0.0,0.0,0.0,0.0,0.0,0.0,0.0,0.0,0.0,0.0,0.0,0.0,0.0,0.0,0.0,0.0,0.0,0.0,0.0,3.7962,3.8923,3.9037,3.8171,3.7352,3.6543,3.5749,3.807,3.9705,4.0704,4.237,4.3628,4.4434,4.3688,4.3283,4.3067,4.1512,4.0758,4.0584,4.0649,4.0623,4.0526,4.0514,4.0043,3.9395,3.9385,3.8935,3.8338,3.8342,3.785,0.0,0.0,0.0,3.7065,3.7077,3.7732,3.8831,4.0468,4.2196,4.354,0.0,4.3709,4.3691,0.0,0.0,4.3482,4.2739,4.3441,4.4155,4.3913,4.3867,4.3876,4.3942,4.3759,4.364,4.3757,4.3764,4.3825,4.3922,4.3938,4.3958,4.403,4.4591,4.4615,4.3734,4.4375,4.4472,4.3707,4.3668,4.3668,4.3663,4.378,4.378,4.3663,4.4545,4.4965,4.4989,4.5816,4.6207,4.6209,4.6325,4.6812,4.7554,4.6853,4.741,4.8748,4.799,4.8126,4.8806,4.8806,4.8865,4.8962,4.8962,4.9021,4.9138,0.0,0.0,0.0,0.0,0.0,0.0,0.0,0.0,0.0,0.0,0.0,0.0,0.0,0.0,0.0,0.0,0.0,0.0,0.0,0.0,0.0,3.7329,3.8155,3.822,3.7353,3.698,3.6405,3.5602,3.8151,3.986,4.0801,4.3011,4.4492,4.5225,4.3899,4.3286,4.3144,4.1472,4.0741,4.07,4.073,4.0499,4.0073,4.0039,3.978,3.9396,3.8859,3.8713,3.8719,3.823,3.7549,3.6901,3.6896,0.0,0.0,0.0,3.6525,3.7134,3.8461,3.9807,4.0962,0.0,4.1579,4.1698,4.2147,4.2242,4.2122,4.1749,4.198,4.238,4.2878,4.2968,4.3115,4.353,4.2802,4.2354,4.2802,4.2877,4.2876,4.2866,4.3268,4.3535,4.3491,4.385,4.3717,4.2833,4.3124,4.3182,4.2792,4.2772,4.2772,4.2772,4.3255,4.3275,4.2772,4.3646,4.4319,4.4815,4.5706,4.613,4.6152,4.6172,4.6397,4.6711,4.6341,4.6638,4.7308,4.6938,4.6996,4.7347,4.7347,4.7639,4.8068,4.8068,4.838,4.8806,0.0,0.0,0.0,0.0,0.0,0.0,0.0,0.0,0.0,0.0,0.0,0.0,0.0,0.0,0.0,0.0,0.0,0.0,0.0,0.0,0.0,3.6822,3.7469,3.7511,3.6874,3.6623,3.6222,3.5648,3.8193,3.9813,4.0587,4.341,4.4943,4.5268,4.422,4.3593,4.3257,4.177,4.1025,4.0823,4.0826,4.0457,3.9905,3.9876,3.9716,3.94,3.8713,3.8733,0.0,0.0,0.0,3.6889,3.6654,3.6005,0.0,0.0,0.0,3.555,3.6323,3.7369,3.8396,3.9076,3.9409,3.978,0.0,4.0799,4.0856,4.1069,4.1102,4.1304,4.194,4.2071,4.2277,4.2867,4.1927,4.1302,4.1882,4.197,4.1966,4.1962,4.2494,4.2855,4.2847,4.3047,4.2816,4.1939,4.2075,4.2095,4.1881,4.1862,4.1862,4.1862,4.25,4.2539,4.1881,4.2733,4.3714,4.4805,4.5453,4.5897,4.6098,4.6179,4.6199,4.6197,4.6192,4.6194,4.6197,4.6197,4.6197,4.6197,4.6197,4.6607,4.7172,4.7172,4.7581,4.8146,0.0,0.0,0.0,0.0,0.0,0.0,0.0,0.0,0.0,0.0,0.0,0.0,3.2613,3.2501,3.2268,3.172,3.2419,3.366,3.5476,3.6409,3.6884,3.6894,3.7,0.0,3.6994,3.6184,3.5764,3.5794,3.8336,3.9641,3.9828,4.3208,4.4405,4.3744,4.4439,4.4268,4.3425,4.2517,4.1648,4.0899,4.088,4.0831,4.0735,4.0795,4.0272,3.9495,3.9434,0.0,0.0,0.0,0.0,0.0,0.0,0.0,3.4452,0.0,0.0,0.0,3.4692,3.5972,0.0,3.742,3.8052,3.8897,3.9764,3.996,4.0189,4.0932,4.11,4.1104,4.1158,4.1171,4.1182,4.1211,4.1167,4.1085,4.107,4.1067,4.1066,4.1069,4.1103,4.1112,4.1046,4.1781,4.1902,4.1026,4.1726,4.1842,4.1005,4.0966,4.0966,4.0966,4.1005,4.1005,4.0966,4.1823,4.3124,4.4795,4.4842,4.5295,4.6098,4.6179,4.6199,4.6197,4.6199,4.6201,4.6197,4.6197,4.6197,4.6197,4.6197,4.6236,4.6275,4.6275,4.6295,4.6334,0.0,0.0,0.0,0.0,0.0,0.0,0.0,0.0,0.0,0.0,0.0,0.0,0.0,3.3785,3.3468,3.3314,3.366,3.4378,3.5584,3.5958,3.6134,3.6122,3.6151,3.6191,3.6221,3.5919,3.5788,3.579,3.7791,3.9097,3.9753,4.2101,4.333,4.3631,4.4444,4.4013,4.2643,4.2335,4.1701,4.0891,4.089,4.1229,0.0,0.0,0.0,0.0,0.0,0.0,0.0,0.0,0.0,0.0,0.0,0.0,0.0,0.0,0.0,3.3629,0.0,0.0,0.0,3.6173,3.6703,3.7313,3.873,3.9062,3.9158,3.9445,3.9947,4.0152,3.9541,3.9885,4.0267,4.0277,4.0224,4.0197,4.0172,4.0649,4.0995,4.1008,4.0952,4.0931,4.0903,4.1149,4.1142,4.0804,4.1055,4.1101,4.0788,4.077,4.0762,4.0762,4.0762,4.0782,4.0839,4.1654,4.2433,4.3144,4.4189,4.4882,4.5278,4.5836,4.6115,4.6197,4.619,4.6192,4.6197,4.6197,4.6197,4.6197,4.6197,4.6197,4.6197,4.6197,4.6197,4.6197,0.0,0.0,0.0,0.0,0.0,0.0,0.0,0.0,0.0,3.3004,0.0,0.0,0.0,0.0,3.4192,3.4298,3.4647,3.511,3.5667,3.5718,3.5718,3.5706,3.5712,3.5741,3.5809,3.5828,3.5838,3.5828,3.7233,3.8256,3.8907,4.0938,4.2041,4.2392,4.3788,4.3571,4.2209,4.2191,4.1706,4.0932,4.1213,0.0,4.2197,0.0,0.0,0.0,0.0,0.0,0.0,0.0,0.0,0.0,0.0,0.0,0.0,0.0,0.0,0.0,3.1789,0.0,0.0,0.0,3.4901,3.5572,3.7323,3.7734,3.789,3.847,3.9284,3.9586,3.8664,3.8968,3.9366,3.936,3.9323,3.9292,3.9264,3.9762,4.0127,4.012,4.0086,4.0175,4.0448,4.04,4.0453,4.0681,4.0684,4.0687,4.0697,4.0704,4.0704,4.0697,4.0697,4.0718,4.0779,4.1296,4.1765,4.2155,4.322,4.4092,4.4783,4.531,4.5777,4.6179,4.6179,4.6187,4.6197,4.6197,4.6197,4.6197,4.6197,4.6201,4.6206,4.6201,4.6201,4.6206,0.0,0.0,0.0,0.0,0.0,0.0,0.0,0.0,3.1589,3.2512,0.0,0.0,0.0,0.0,0.0,3.4565,3.5327,3.5778,3.5713,3.5751,3.5775,3.5713,3.5764,3.5799,3.5801,3.5872,3.5903,3.5891,3.6754,3.719,3.7251,3.9806,4.0553,3.9864,4.2356,4.2947,4.209,4.2166,4.1691,4.0987,0.0,4.2184,4.2236,0.0,0.0,0.0,4.3468,4.2949,0.0,4.118,0.0,0.0,0.0,0.0,0.0,0.0,0.0,0.0,0.0,0.0,0.0,0.0,0.0,0.0,3.5535,3.5935,3.6445,3.8143,3.9149,3.9463,3.8585,3.8455,3.8442,3.8425,3.8449,3.8431,3.8369,3.8389,3.841,3.8408,3.8406,3.8694,3.9489,3.9495,3.978,4.0604,4.0605,4.0602,4.069,4.0694,4.0691,4.0691,4.0691,4.0691,4.0694,4.0691,4.1116,4.1951,4.1986,4.2937,4.4654,4.4673,4.5204,4.6093,4.6093,4.6138,4.6194,4.6197,4.6197,4.6197,4.6199,4.6209,4.6203,4.6206,4.6209,4.6201,0.0,0.0,0.0,0.0,0.0,3.1909,3.18,3.208,3.2622,0.0,0.0,0.0,3.5179,3.5335,3.5648,3.6325,3.6012,3.5805,3.5848,3.5817,3.5801,3.5849,3.5866,3.587,3.5862,3.588,3.5915,3.5963,3.6219,3.6646,3.7281,3.7957,3.8495,3.8897,3.9608,3.9772,3.964,4.149,4.1766,4.105,4.1861,4.2563,0.0,0.0,0.0,0.0,0.0,4.4248,4.3773,0.0,4.1042,3.9622,0.0,0.0,0.0,0.0,0.0,0.0,3.1793,0.0,0.0,0.0,0.0,0.0,3.3862,3.4607,3.5195,3.5678,3.6963,3.7739,3.6859,3.718,3.7344,3.6724,3.7147,3.7555,3.7529,3.8038,3.841,3.839,3.8363,3.8399,3.8573,3.8481,3.8768,0.0,3.9634,3.9865,4.0516,4.0565,4.0569,4.056,4.056,4.0589,4.0622,4.0589,4.0733,4.1061,4.1591,4.2528,4.3776,4.4311,4.51,4.6022,4.6022,4.6032,4.6068,4.6154,4.6197,4.6199,4.6193,4.62,4.6206,4.6192,4.6175,4.6126,0.0,0.0,0.0,0.0,0.0,3.3312,3.2728,3.3309,3.3911,0.0,0.0,0.0,3.6682,3.6861,3.7082,3.7597,3.7193,3.6784,3.6466,3.6417,3.6234,3.5914,3.594,3.5935,3.5938,3.5939,3.5965,3.5998,3.6009,3.626,3.6752,3.7098,3.7502,3.8006,3.835,3.8501,3.8612,4.0472,4.0958,0.0,4.2159,0.0,0.0,4.488,4.5643,0.0,0.0,0.0,4.459,4.3575,4.215,0.0,0.0,0.0,0.0,0.0,0.0,0.0,0.0,0.0,0.0,0.0,0.0,0.0,3.274,3.3528,3.4256,3.4628,3.5795,3.6608,3.6082,3.6089,3.5981,3.5483,3.5523,3.5857,3.6565,3.7048,3.7312,3.7322,3.7251,3.7312,3.7596,3.7527,3.7812,3.8658,3.8669,3.9037,3.9902,4.0296,4.0496,4.0496,4.0496,4.0519,4.0564,4.0519,4.0542,4.0628,4.1054,4.1797,4.2805,4.3594,4.4505,4.5476,4.5809,4.5978,4.6007,4.6115,4.616,4.6162,4.6154,4.6169,4.6164,4.6167,4.6132,4.6107,0.0,0.0,3.2586,3.2879,3.4226,3.4831,3.3569,3.4704,3.5486,0.0,3.5602,3.6856,3.8515,3.8698,3.8642,3.8541,3.8608,3.8266,3.7395,3.7255,3.6878,3.6089,3.6116,3.6144,3.6132,3.6139,3.6141,3.6141,3.6043,3.6004,3.6024,3.6784,3.7152,3.7186,3.7907,0.0,3.8286,3.9154,0.0,3.9809,4.2512,4.3617,0.0,0.0,4.6152,4.6185,4.6066,4.5561,4.4926,4.4755,4.3031,0.0,0.0,0.0,0.0,0.0,3.4367,0.0,0.0,0.0,0.0,0.0,0.0,0.0,3.2243,3.2911,3.3746,3.4413,3.5252,3.5825,3.5733,3.5078,3.4559,3.455,3.3901,3.3929,3.5404,3.5562,3.5521,3.5517,3.5522,3.5808,3.6463,3.6549,3.6902,3.7717,3.7951,3.8388,3.9169,4.0023,4.0508,4.0508,4.0508,4.0489,4.0496,4.0496,4.0496,4.0496,4.0519,4.1004,4.1926,4.2798,4.3745,4.4736,4.5553,4.5938,4.5994,4.6056,4.609,4.61,4.6105,4.6096,4.6107,4.6111,4.6113,4.6097,0.0,3.4314,3.4638,3.5489,3.595,3.6405,3.6913,3.7379,3.7616,3.7524,3.8343,3.9336,4.0373,4.0492,4.0205,3.9516,3.9517,3.917,3.83,3.764,3.7205,3.7034,3.7036,3.7058,3.7043,3.7044,3.7043,3.7059,3.6337,3.6004,3.6004,3.616,3.6257,3.6256,3.6417,3.6493,3.6547,0.0,0.0,3.9021,4.2342,4.3653,4.3794,4.5524,4.6192,4.6191,4.6175,4.6024,4.5732,4.5019,4.3471,4.1757,0.0,0.0,0.0,3.7785,0.0,0.0,0.0,0.0,0.0,0.0,0.0,0.0,3.3144,3.3823,3.4306,3.3769,3.4355,3.4745,3.4035,3.3771,3.3643,3.3654,3.3502,3.35,3.3768,3.3797,3.3762,3.3701,3.4219,3.4627,3.4768,3.5358,3.6061,3.6874,3.8239,3.9089,3.9192,4.003,4.0499,4.0499,4.0499,4.0495,4.0496,4.0496,4.0496,4.0496,4.0542,4.1046,4.1926,4.2807,4.3717,4.466,4.5538,4.5912,4.5929,4.5935,4.6,4.6102,4.6102,4.6101,4.6111,4.6164,4.6158,4.6092,0.0,3.4936,3.5186,3.5804,3.6677,3.7338,3.744,3.8266,3.8927,3.8992,4.0151,4.1321,4.2199,4.2296,4.1958,4.1124,4.1085,4.0538,3.9234,3.8798,3.8394,3.7966,3.7945,3.7731,3.7303,3.7302,3.7086,3.6655,3.6206,3.601,3.6008,3.599,3.601,3.6008,3.5992,3.6246,0.0,0.0,3.8423,3.9394,4.1542,0.0,4.3785,4.5067,4.582,4.6206,4.6168,4.6139,4.5976,4.5099,4.4164,0.0,4.289,4.1851,4.0643,0.0,3.9287,3.878,0.0,0.0,0.0,3.6652,0.0,0.0,0.0,3.4359,3.4456,3.3588,3.3748,3.3926,3.3474,3.2728,3.2136,3.2105,3.2095,3.1945,3.147,3.2508,3.3262,3.3158,3.3488,3.368,3.3607,3.4353,3.5196,3.6038,3.77,3.8635,3.8589,3.9803,4.0502,4.0502,4.0502,4.0495,4.0499,4.0504,4.0496,4.0496,4.0572,4.0824,4.1309,4.2599,4.3475,4.4024,4.5307,4.5876,4.5906,4.5902,4.5938,4.6003,4.6044,4.6049,4.6041,4.6091,4.6073,4.6059,0.0,3.5053,3.5306,3.5808,3.7111,3.8008,3.7713,3.9047,4.025,4.0645,4.1937,4.3075,4.3763,4.4006,4.3649,4.2493,4.2543,4.1909,4.017,3.996,3.959,3.8887,3.8847,3.8515,3.7812,3.7636,3.7206,3.6503,3.6151,3.5994,3.5992,3.5994,3.6092,3.6246,3.6248,3.6736,0.0,0.0,0.0,3.9988,0.0,4.2288,4.3783,4.4606,4.5445,4.6181,4.6142,4.6115,4.5986,4.5308,4.5023,4.483,4.4147,4.3305,0.0,0.0,0.0,0.0,0.0,0.0,0.0,0.0,0.0,3.5962,0.0,0.0,0.0,3.3613,3.3409,3.3299,3.2988,3.1679,3.0622,3.0574,3.0569,0.0,0.0,3.1169,0.0,3.2638,3.2764,3.28,3.2706,3.3439,3.4308,3.5166,3.6631,3.7647,3.7966,3.9415,4.0301,4.0482,4.0493,4.0497,4.0499,4.0496,4.0496,4.0496,4.0575,4.0591,4.0653,4.2428,4.3258,4.3408,4.5086,4.5852,4.5919,4.5902,4.5914,4.5923,4.5972,4.5997,4.5991,4.5991,4.5991,4.6008,3.5028,3.5231,3.5794,3.7424,3.7916,3.8624,4.0202,4.1279,4.2472,4.4103,4.4488,4.4646,4.4734,4.5432,4.4969,0.0,4.3119,4.2809,4.1068,4.0292,3.9863,3.9766,3.9746,3.9707,3.9609,3.8848,3.8398,3.83,3.6756,3.5995,3.5994,3.5995,3.6405,3.7147,3.7147,3.7635,0.0,0.0,3.9817,0.0,4.1627,4.2826,0.0,4.4659,4.5492,4.6205,4.6185,4.6144,4.6096,0.0,4.5964,4.585,0.0,4.5143,4.425,4.3434,0.0,0.0,0.0,0.0,0.0,0.0,3.8216,0.0,0.0,0.0,3.5319,3.3725,0.0,0.0,0.0,0.0,0.0,0.0,0.0,0.0,2.8564,2.9293,3.0186,3.0892,3.1545,3.1942,3.1929,3.2601,3.3384,3.4194,3.5158,3.6331,3.7839,3.8775,3.9635,4.0463,4.0441,4.0438,4.0508,4.0492,4.0496,4.0496,4.0575,4.0591,4.0653,4.2475,4.3337,4.3489,4.5151,4.5925,4.5983,4.592,4.5946,4.5994,4.6003,4.6003,4.6,4.6,4.6,4.5997,3.4492,3.5021,0.0,3.6528,3.7558,3.8558,3.9389,4.1535,4.3338,4.4057,4.5021,4.5645,4.5656,0.0,0.0,0.0,0.0,4.3926,0.0,0.0,4.1348,4.1348,4.0898,4.043,3.9902,3.9043,3.8359,3.7851,3.6601,3.5996,3.5995,3.5996,3.6464,3.7303,3.7304,0.0,4.0136,0.0,4.1188,0.0,0.0,4.4422,0.0,4.5048,4.5506,4.6198,4.6203,4.6167,4.6119,0.0,4.6137,0.0,0.0,0.0,0.0,4.3753,0.0,0.0,0.0,0.0,0.0,0.0,0.0,0.0,3.7947,0.0,3.5576,0.0,0.0,0.0,0.0,0.0,0.0,0.0,2.9276,0.0,0.0,0.0,2.9084,2.9844,0.0,0.0,3.1656,3.2013,3.2535,3.3342,3.4684,3.5757,3.6412,3.817,3.9348,3.9729,4.0164,4.0409,4.0432,4.0479,4.0495,4.0495,4.0601,4.0651,4.0653,4.2463,4.3311,4.3441,4.5107,4.589,4.5949,4.5914,4.5949,4.6,4.6008,4.5972,4.5949,4.5949,4.5949,4.5929,3.4186,0.0,0.0,3.6018,3.7374,3.873,3.9732,4.2251,4.4172,4.4603,4.5976,4.6834,4.6611,4.662,0.0,0.0,4.4997,4.4626,0.0,0.0,4.2656,4.2402,4.1836,0.0,4.0254,3.916,3.8281,3.7656,3.6543,3.5996,3.5995,3.5996,3.6582,3.7656,3.7656,3.9101,4.1543,0.0,4.2674,4.4158,4.527,4.6089,4.6596,4.5959,4.5927,4.623,4.6237,4.6188,4.6128,4.6181,4.615,0.0,4.6119,0.0,4.499,0.0,0.0,0.0,4.2614,0.0,0.0,0.0,0.0,0.0,0.0,0.0,0.0,0.0,0.0,0.0,0.0,0.0,0.0,0.0,0.0,2.8711,0.0,2.7533,0.0,0.0,0.0,0.0,0.0,3.0642,3.1076,3.2125,3.3596,3.471,3.5362,3.759,3.8953,3.9227,3.9995,4.04,4.043,4.0486,4.0507,4.0538,4.0628,4.0773,4.1033,4.2582,4.3437,4.3746,4.5176,4.5843,4.5908,4.5899,4.594,4.5997,4.5972,4.593,4.5892,4.592,4.5923,4.5926,3.4376,3.5083,0.0,0.0,3.7794,3.9539,4.2922,4.4255,4.5462,4.7156,4.8155,4.8418,0.0,0.0,0.0,0.0,0.0,4.4638,4.3767,0.0,4.3279,0.0,0.0,4.1951,0.0,3.9432,3.8593,3.8555,3.6836,3.5996,3.5996,3.5996,3.6914,3.8555,3.8555,3.9961,4.2422,4.3262,4.414,4.5115,4.6834,4.7537,4.7556,0.0,4.7011,4.6299,4.6308,0.0,0.0,4.6203,4.616,0.0,0.0,0.0,0.0,0.0,0.0,0.0,0.0,0.0,0.0,4.2205,0.0,0.0,0.0,0.0,3.5658,0.0,0.0,0.0,0.0,0.0,0.0,0.0,0.0,0.0,0.0,0.0,0.0,0.0,0.0,0.0,0.0,2.7966,2.8645,3.0343,3.1248,3.2807,3.5271,3.7018,3.8366,3.9277,4.0016,4.0434,4.0489,4.0492,4.0531,4.0603,4.0593,4.1072,4.1991,4.2898,4.3766,4.4597,4.5432,4.5844,4.5908,4.5893,4.5941,4.5994,4.5923,4.5892,4.5914,4.5963,4.5994,4.5991,0.0,0.0,0.0,0.0,0.0,3.9446,4.2368,4.4538,4.5839,4.5839,4.7107,0.0,0.0,4.6746,4.6505,0.0,0.0,4.575,4.5444,4.4878,0.0,0.0,0.0,4.2846,0.0,0.0,3.9705,3.8593,3.7422,3.6562,3.5996,3.5996,3.6933,3.8594,3.8592,4.035,0.0,0.0,0.0,0.0,0.0,4.8456,4.8397,0.0,4.706,4.6295,4.6308,4.6269,0.0,4.625,4.6215,4.6165,4.6192,4.5793,4.5237,4.4909,4.4429,4.4055,0.0,0.0,4.234,4.2918,0.0,0.0,0.0,0.0,0.0,0.0,0.0,0.0,0.0,0.0,0.0,0.0,0.0,0.0,0.0,0.0,0.0,0.0,0.0,0.0,0.0,0.0,2.8097,2.8648,3.0008,3.1418,3.2813,3.5573,3.7505,3.8358,3.9725,4.0491,4.0496,4.0496,4.0531,4.0607,4.1231,4.1685,4.2051,4.3495,4.4357,4.4708,4.5525,4.5902,4.598,4.5968,4.5989,4.6005,4.5975,4.5983,4.6013,4.5963,4.5926,4.5946,3.6189,0.0,0.0,0.0,0.0,4.0192,4.2504,4.5064,4.6635,4.6381,4.7871,0.0,4.7746,0.0,4.7401,0.0,4.6757,4.6624,4.6318,4.5771,0.0,4.501,4.4462,4.376,0.0,0.0,0.0,0.0,3.8338,3.7323,3.6464,3.6463,3.7226,3.8593,3.861,4.0503,4.3709,4.3704,4.5208,0.0,0.0,4.9155,0.0,0.0,4.7323,4.6305,0.0,4.6266,4.6247,4.6289,4.6255,4.6191,4.6193,4.5813,4.5354,4.5301,4.4681,4.4146,4.4656,4.3527,0.0,4.2932,4.0914,0.0,3.8857,0.0,3.6907,0.0,0.0,0.0,0.0,0.0,0.0,0.0,0.0,0.0,0.0,2.6242,0.0,0.0,0.0,0.0,0.0,2.7069,2.7147,2.7387,2.8997,3.0331,3.1154,3.4404,3.6631,3.747,3.9189,4.0223,4.0535,4.0531,4.0576,4.0647,4.1559,4.2167,4.255,4.3976,4.4818,4.5168,4.5676,4.5949,4.5997,4.5997,4.5994,4.6002,4.6032,4.6064,4.6093,4.6,4.5981,4.5961,3.7094,3.733,0.0,0.0,3.9511,4.1823,4.3569,4.5926,4.783,4.8691,5.023,5.0962,5.0126,5.0045,4.9381,4.7801,4.7664,4.7298,4.6429,4.6351,0.0,0.0,4.5061,4.465,4.3771,0.0,0.0,0.0,0.0,3.8236,3.7299,3.7301,3.7772,3.8593,3.8609,0.0,4.3708,4.3701,4.5203,4.7746,4.9386,4.9581,4.8897,4.8858,4.7809,4.6367,4.6325,4.6299,4.6292,4.6304,4.6269,4.6206,4.6191,4.6195,4.6197,4.6156,4.5494,4.4794,4.4755,4.353,4.227,4.2295,4.1021,0.0,0.0,0.0,3.8437,0.0,0.0,0.0,0.0,0.0,0.0,0.0,0.0,0.0,0.0,0.0,0.0,0.0,0.0,0.0,0.0,2.5497,2.5812,2.6584,2.8184,2.9517,0.0,3.3551,3.5786,3.6767,3.8433,3.9726,4.0592,4.0651,4.0708,4.0781,4.1687,4.2592,4.3498,4.4365,4.5175,4.5914,4.5917,4.5955,4.6,4.6,4.5997,4.6007,4.6071,4.61,4.6102,4.6102,4.61,4.6098,3.8128,3.9218,4.009,4.0097,4.1734,4.3612,4.5366,4.6737,4.7871,4.8687,4.92,4.9377,4.9155,4.9135,4.8959,4.853,4.848,0.0,0.0,0.0,0.0,4.5991,4.591,4.5513,4.4671,4.4185,4.2999,4.1092,0.0,0.0,3.7301,3.73,3.7771,3.8594,0.0,4.0499,4.3705,4.3695,4.5212,4.7692,4.8772,4.9045,4.8767,0.0,4.7663,4.7179,4.6523,4.6304,4.6293,4.6291,4.6284,4.627,4.6229,4.6199,4.6074,4.5421,4.5057,4.4738,4.4077,4.3551,4.3034,4.2449,4.147,4.0515,0.0,0.0,0.0,0.0,0.0,0.0,0.0,0.0,0.0,0.0,0.0,0.0,0.0,0.0,0.0,2.6642,0.0,0.0,2.5518,2.5496,2.5594,2.5781,2.7368,2.8666,2.9489,0.0,3.5258,3.6748,3.846,3.9783,4.067,4.1317,4.1664,4.1766,4.3224,4.4088,4.4397,4.5265,4.5784,4.598,4.6022,4.6052,4.6078,4.6078,4.6076,4.6078,4.6085,4.6121,4.6169,4.6113,4.6106,4.6104,3.9492,4.1048,4.2487,4.324,4.3861,4.4739,4.6094,4.734,4.8425,4.9257,4.9704,0.0,4.9941,4.9941,4.9785,4.9396,4.9365,0.0,4.8177,0.0,0.0,4.6796,4.639,4.5944,4.5495,4.51,0.0,4.2189,0.0,0.0,3.7839,3.7842,3.8139,0.0,0.0,4.0497,4.3742,4.4511,4.5909,4.7665,4.8511,4.9057,0.0,4.8861,4.8455,4.8011,4.7162,4.6621,4.6303,4.6299,4.6293,4.6285,4.6269,4.6221,4.6037,4.5182,4.4642,4.422,4.3737,4.3325,4.2917,4.2458,4.1976,4.1395,4.0566,3.998,3.9744,0.0,3.9288,3.8334,0.0,0.0,0.0,0.0,0.0,0.0,0.0,0.0,0.0,0.0,2.7632,0.0,2.6725,2.5965,2.5492,2.5508,2.7051,2.8212,2.8687,0.0,3.4563,3.6278,3.798,3.9486,4.0723,4.1616,4.2051,4.2124,4.3838,4.4682,4.4769,4.5655,4.6044,4.6056,4.6084,4.6102,4.61,4.6104,4.6093,4.6098,4.6124,4.6162,4.6199,4.6158,4.613,4.6147,4.1298,4.301,0.0,0.0,4.5839,4.5664,4.6655,4.7847,4.9017,5.0125,5.0834,5.1274,5.1372,5.1391,5.1079,5.032,5.0263,4.9892,4.9033,4.8204,4.7639,4.7405,4.6656,4.6182,4.6091,4.5396,4.4559,0.0,0.0,0.0,3.8673,3.8728,0.0,0.0,0.0,0.0,0.0,4.5681,4.6904,4.7663,4.8602,4.9422,5.0104,5.0104,4.9563,4.8692,4.7892,4.7045,4.6308,4.6305,4.63,4.6293,4.6305,4.6257,4.6054,4.523,4.434,4.3604,4.362,4.3104,4.2569,4.257,4.2578,4.2347,4.1478,4.1136,4.1034,4.1099,4.0412,3.9812,0.0,0.0,0.0,0.0,0.0,0.0,0.0,0.0,0.0,0.0,0.0,0.0,0.0,2.6732,2.5726,2.5847,2.7197,2.8149,2.8435,0.0,3.408,3.5814,3.7605,3.9328,4.097,4.1955,4.246,4.246,4.4106,4.491,4.4999,4.5767,4.6119,4.6096,4.6102,4.6113,4.6117,4.6119,4.6105,4.6113,4.6189,4.6201,4.6199,4.6202,4.6273,4.6364,4.412,4.5683,0.0,0.0,4.7165,4.7602,4.9186,4.8462,4.8562,5.0876,5.0682,5.0573,5.1258,5.1317,5.1258,5.1103,5.1133,0.0,0.0,0.0,0.0,4.7464,4.715,4.6696,4.6027,4.5833,4.5038,0.0,0.0,0.0,3.957,0.0,0.0,0.0,0.0,0.0,4.3854,4.6336,0.0,4.7653,4.9242,4.9967,5.0104,5.0104,4.956,4.8685,4.789,4.7045,4.6308,4.6308,4.6306,4.63,4.6293,4.629,4.6111,4.5257,4.4362,4.3686,4.3682,4.3573,4.3464,4.3466,4.3466,4.3231,4.2372,4.1609,4.1099,4.1094,4.0449,3.9876,3.981,0.0,0.0,0.0,0.0,0.0,0.0,0.0,0.0,0.0,0.0,2.9435,0.0,0.0,2.6956,2.7662,2.7947,2.872,3.0166,0.0,3.5032,0.0,3.9101,4.0859,0.0,0.0,4.4273,4.4348,4.5302,4.5806,4.587,4.6089,4.6149,4.6098,4.6154,4.6187,4.6183,4.6171,4.618,4.6172,4.6198,4.62,4.62,4.6196,4.6654,4.7258,4.621,0.0,0.0,0.0,4.8469,4.8751,5.0454,4.963,4.9403,5.1117,5.0988,5.0865,5.1257,5.1296,5.1296,5.1296,5.1304,5.1121,5.0693,5.0179,4.9512,4.8673,4.7684,4.6978,4.6586,4.6128,4.5346,4.4221,0.0,0.0,0.0,0.0,0.0,3.9862,0.0,4.2961,0.0,0.0,0.0,4.8812,4.9696,5.0295,5.0685,5.0759,4.9927,4.8692,4.8348,4.7372,4.624,4.6288,4.6308,4.6308,4.6308,4.6289,4.6074,4.5253,4.4374,4.3709,4.3706,4.3709,4.3691,4.3708,4.4041,4.4023,4.2692,4.2085,4.1653,4.1197,4.0787,4.0372,3.9882,3.9114,0.0,0.0,0.0,0.0,0.0,0.0,0.0,0.0,0.0,0.0,0.0,0.0,0.0,0.0,0.0,0.0,0.0,0.0,3.5324,0.0,0.0,0.0,4.2194,0.0,4.4314,4.4813,4.5658,4.608,4.6154,4.6183,4.6175,4.6148,4.6185,4.6191,4.6193,4.6201,4.621,4.6196,4.6196,4.6192,4.6203,4.6195,4.6742,4.7507,4.806,4.874,0.0,5.0242,4.9636,4.9554,5.1072,5.0556,5.0301,5.1182,5.1296,5.1294,5.1298,5.13,5.1296,5.1286,5.1232,5.1184,5.1174,5.047,4.9976,4.9805,4.8416,4.7486,4.7119,4.6477,4.5697,0.0,0.0,0.0,0.0,0.0,0.0,0.0,0.0,0.0,0.0,0.0,4.8684,4.9915,5.0151,5.062,5.1218,5.131,5.0352,4.8957,4.9016,4.7924,4.6475,4.6533,4.6436,4.6271,4.6282,4.624,4.6076,4.5431,4.4519,4.3784,4.4159,4.3982,4.3785,4.416,4.4628,4.4647,4.3261,4.2673,4.2202,4.1512,4.1235,4.0881,4.0193,4.0084,0.0,0.0,0.0,0.0,0.0,0.0,0.0,0.0,0.0,0.0,3.2553,0.0,0.0,0.0,0.0,0.0,3.1195,0.0,0.0,0.0,0.0,4.0986,4.25,0.0,4.4243,4.5112,4.5788,4.6148,4.6208,4.6192,4.6208,4.6209,4.6194,4.6215,4.6216,4.621,4.6216,4.6215,4.6212,4.6224,4.6233,4.6414,4.7028,4.7804,4.9868,0.0,5.1159,5.1177,5.0468,5.0215,5.1164,5.0564,5.0306,5.118,5.1304,5.13,5.1298,5.13,5.1284,5.1201,5.1191,5.1168,5.1114,5.0966,5.0554,4.9821,4.9574,4.872,4.7138,4.7029,4.6231,0.0,0.0,4.4132,0.0,0.0,0.0,0.0,0.0,0.0,0.0,4.865,4.9753,4.9968,5.0778,5.1122,5.1191,5.1201,5.0611,4.9787,4.9787,4.8713,4.7296,4.7372,4.6864,4.6212,4.6203,4.6206,4.6186,4.6115,4.4956,4.4031,4.5628,4.4899,4.4071,4.5668,4.5518,4.4957,4.4785,4.3535,4.2382,4.2299,4.1645,4.1072,4.0999,4.098,4.0924,0.0,0.0,0.0,0.0,0.0,3.8169,3.822,0.0,0.0,3.3457,3.248,0.0,0.0,2.9937,0.0,0.0,0.0,0.0,3.8318,4.077,4.2542,4.3543,4.4357,4.5218,4.6063,4.6146,4.6186,4.6202,4.6194,4.6195,4.6206,4.6199,4.6223,4.6283,4.6293,4.6298,4.6297,4.6287,4.6283,4.6379,4.7118,4.793,4.8781,5.0873,5.1159,5.138,5.1312,5.1009,5.0888,5.1183,5.0948,5.0843,5.1198,5.1232,5.1244,5.124,5.124,5.1203,5.1142,5.1105,5.1072,5.1043,5.0972,5.0793,5.0468,4.9973,4.9378,4.8682,4.7641,4.6793,0.0,0.0,0.0,0.0,0.0,0.0,0.0,0.0,4.7344,4.8391,4.9401,5.0113,5.0594,5.0978,5.109,5.103,5.1111,5.06,4.985,4.9894,4.916,4.8102,4.762,4.6893,4.6194,4.6197,4.6193,4.6199,4.6206,4.5345,4.4566,4.5267,4.4978,4.465,4.5351,4.565,4.5517,4.4469,4.408,4.3515,4.1933,4.1344,4.11,4.1095,4.1099,4.0929,4.04,0.0,0.0,0.0,0.0,0.0,3.782,0.0,3.6031,0.0,3.3809,0.0,0.0,0.0,0.0,0.0,0.0,0.0,3.8441,0.0,4.2234,4.3621,4.399,4.4852,4.6207,4.619,4.6194,4.62,4.6205,4.6228,4.6269,4.6253,4.6275,4.6295,4.6299,4.6297,4.6291,4.6307,4.6305,4.6402,4.72,4.8041,4.892,5.1364,5.1379,5.1445,5.1656,5.1468,5.136,5.1575,5.139,5.1192,5.1175,5.1145,5.1159,5.1178,5.1142,5.1119,5.1063,5.1033,5.0999,5.0965,5.0933,5.0898,5.0898,5.036,0.0,4.9703,4.8488,4.7754,4.7556,4.643,0.0,0.0,0.0,0.0,0.0,4.7624,4.8635,4.9795,5.0041,5.0488,5.0993,5.1046,5.0992,5.0914,5.1004,5.0662,5.0167,5.024,4.9712,4.8895,4.8037,4.7222,4.6516,4.6276,4.6191,4.619,4.6196,4.5581,4.497,4.5219,4.5133,4.503,4.5282,4.5815,4.5957,4.4735,4.474,4.4333,4.1971,4.1484,4.14,4.1156,4.1104,4.0894,4.0278,0.0,0.0,0.0,3.9258,0.0,3.7715,3.7818,3.7082,3.4841,3.486,0.0,0.0,0.0,0.0,0.0,0.0,0.0,0.0,0.0,0.0,4.3994,4.4065,4.4809,4.623,4.6237,4.6221,4.6221,4.6237,4.6261,4.6308,4.6306,4.6304,4.6305,4.6307,4.6303,4.6333,4.6587,4.6683,4.6816,4.7873,4.8654,4.9315,5.13,5.13,5.1573,5.2428,5.1869,5.1581,5.2457,5.1792,5.117,5.1108,5.1047,5.103,5.1096,5.1043,5.1006,5.0993,5.1009,5.0971,5.0906,5.0898,5.0898,0.0,0.0,5.0515,4.9722,4.9684,4.9243,4.8395,0.0,0.0,4.8464,0.0,4.8501,4.8519,4.9388,4.9739,4.9754,5.0621,5.0989,5.1009,5.1009,5.096,5.0898,5.0902,5.0933,5.0993,5.1067,5.052,4.9668,4.8854,4.8054,4.7244,4.6454,4.6209,4.6193,4.6192,4.5574,4.5092,4.5946,4.5562,4.5118,4.5971,4.6198,4.6213,4.6251,4.5614,4.4507,4.2754,4.2382,4.2126,4.1264,4.1093,4.1109,4.1096,0.0,0.0,0.0,4.1077,0.0,3.869,3.924,3.8425,3.5036,3.5485,0.0,0.0,0.0,0.0,0.0,0.0,0.0,4.0994,4.1924,0.0,4.4973,4.4989,4.5438,4.6301,4.6301,4.6301,4.6301,4.6296,4.6296,4.6301,4.6296,4.6293,4.6293,4.63,4.6299,4.639,4.7248,4.7575,4.7783,4.9453,5.0083,5.0209,5.1296,5.1775,5.2273,5.2546,5.2331,5.221,5.2487,5.1694,5.1063,5.102,5.1455,5.1751,5.178,5.1265,5.0905,0.0,5.0909,5.0917,0.0,5.0905,5.0898,5.0898,5.0898,5.0782,5.0515,4.9974,4.9568,4.9301,0.0,0.0,0.0,4.9126,4.9375,4.935,5.0174,5.0546,5.0534,5.0805,5.0921,5.0921,5.0921,5.0914,5.0898,5.0898,5.0963,5.1064,5.1094,5.0943,5.0527,4.9093,4.8437,4.7977,4.6565,4.6166,4.621,4.6196,4.6003,4.5852,4.6122,4.6009,4.5858,4.6125,4.619,4.6061,4.553,4.4748,4.4116,4.416,4.3222,4.2321,4.2041,4.1507,4.1109,4.1101,4.1107,0.0,4.1098,0.0,4.061,3.9441,3.9559,3.9098,3.7456,3.7535,0.0,0.0,0.0,0.0,0.0,0.0,0.0,0.0,4.2519,0.0,4.4997,4.4998,4.5446,4.6301,4.6306,4.6308,4.6308,4.6305,4.6305,4.6305,4.6293,4.6291,4.6298,4.6241,4.6257,4.6323,4.6554,4.7007,4.7665,4.8804,4.955,5.0153,5.168,5.2206,5.2779,5.3351,5.2902,5.2564,5.2822,5.2061,5.1447,5.1417,5.2073,5.2544,5.2526,5.2053,5.1628,5.1272,5.1294,5.119,5.0919,5.0905,5.0905,5.0898,5.0898,5.0898,5.0898,5.0418,0.0,5.0148,4.9655,4.9396,4.9417,4.9954,5.0185,5.0162,5.0678,5.0898,5.0898,5.0898,5.0898,5.0898,5.0898,5.0898,5.0898,5.0898,5.0963,5.106,5.1094,5.1137,5.0954,4.9568,4.8871,4.8353,4.7018,4.6411,4.6208,4.6196,4.6192,4.6192,4.619,4.6209,4.6209,4.6206,4.6195,4.6071,4.5607,4.5061,4.4741,4.4961,4.4121,4.3279,4.2959,4.2448,4.2072,4.2081,4.2071,4.2077,4.2036,0.0,4.1166,0.0,0.0,0.0,0.0,3.9271,3.9566,0.0,0.0,0.0,0.0,0.0,4.1375,4.2535,4.3629,4.4607,4.5488,4.5487,4.5761,4.6308,4.6308,4.6308,4.6307,4.6305,4.6282,4.6258,4.6263,4.6262,4.6252,4.6212,4.6228,4.6313,4.6933,4.7501,4.8139,4.9337,5.0082,5.0562,5.2417,5.2687,5.3203,5.4656,5.3605,5.2793,5.3487,5.2841,5.2249,5.2186,5.2881,5.3364,5.3309,5.3332,5.305,5.2233,0.0,0.0,5.1026,5.0938,5.0897,5.0898,5.0898,5.0937,5.0999,5.0999,5.0999,5.0999,5.0999,5.0956,5.0898,5.0898,5.0898,5.0898,5.0898,5.0898,5.0898,5.0898,5.0898,5.0898,5.0898,5.0898,5.0898,5.0898,5.0929,5.1016,5.1087,5.1105,5.0988,5.0167,4.936,4.8547,4.7675,4.6885,4.6267,4.6229,4.6204,4.6193,4.6192,4.6202,4.6195,4.6196,4.6195,4.6223,4.6285,4.6297,4.6069,4.5254,4.5039,4.4746,4.394,4.374,4.3694,4.3695,4.3703,4.3672,4.3617,4.2899,4.2088,0.0,0.0,0.0,4.0211,4.0797,4.0957,0.0,0.0,0.0,0.0,0.0,4.3378,4.4932,4.5049,4.5477,4.6291,4.6293,4.6295,4.6296,4.6305,4.6308,4.6301,4.6296,4.6265,4.6208,4.6206,4.6206,4.6208,4.6196,4.6194,4.6361,4.8054,4.8746,4.8991,5.0685,5.1306,5.1294,5.331,5.3955,5.4488,5.4904,5.4553,5.4293,5.4479,5.3677,5.3029,5.3026,5.373,5.4209,5.4189,5.4741,5.4785,5.3973,5.2738,5.1957,5.1824,5.1245,5.0897,5.0898,5.0898,5.1211,5.1877,5.1896,5.1896,5.1896,5.1896,5.1544,5.0898,5.0898,5.0898,5.0898,5.0898,5.0898,5.0898,5.0898,5.0898,5.0898,5.0898,5.0898,5.0898,5.0898,5.0967,5.1087,5.1094,5.1137,5.1054,5.0192,4.9768,4.9342,4.7869,4.7266,4.6999,4.6382,4.6202,4.6208,4.6199,4.6202,4.6196,4.6195,4.6238,4.6282,4.63,4.6295,4.6245,4.6034,4.5468,4.4941,4.4724,4.4157,4.3705,4.3694,4.3699,4.3681,4.3687,4.3448,4.3218,0.0,4.3177,4.3135,4.2748,4.2893,4.3198,0.0,0.0,4.4062,4.4941,4.5184,4.5182,4.4934,4.5561,4.6013,4.6214,4.6273,4.6305,4.6308,4.6307,4.6305,4.6301,4.6252,4.6223,4.6199,4.6201,4.6204,4.6197,4.6201,4.6195,4.6306,4.7322,4.8138,4.8853,4.9935,5.0715,5.123,5.4039,5.4558,5.4842,5.4815,5.4758,5.4549,5.4136,5.3937,5.3841,5.3841,5.4547,5.5054,5.5054,5.546,5.5572,5.5129,5.3903,5.2839,5.2153,5.1681,5.1283,5.0917,5.0898,5.1308,5.2186,5.2206,5.2399,5.2786,5.2399,5.1954,5.1486,5.1095,5.0898,5.0898,5.0898,5.0898,5.0898,5.0898,5.0898,5.0898,5.0898,5.0898,5.0898,5.0898,5.0971,5.1097,5.1097,5.1144,5.1122,5.0658,5.0226,4.9734,4.8831,4.8261,4.7789,4.698,4.6471,4.6154,4.6181,4.6202,4.6192,4.6198,4.6221,4.6262,4.6297,4.6291,4.63,4.6304,4.5916,4.5586,4.5585,4.5213,4.4897,4.4889,4.4897,4.4883,4.4891,4.4489,4.4189,4.4191,4.4176,4.416,4.4143,4.4179,4.4384,4.485,4.4568,0.0,4.561,4.5655,4.5603,4.5493,4.5943,4.6206,4.624,4.6259,4.6249,4.6248,4.6243,4.6254,4.6244,4.6218,4.6191,4.6219,4.6613,4.6577,4.6256,4.7054,4.7145,4.6925,4.8151,4.8894,4.9393,5.0264,5.0875,5.1243,5.4756,5.4934,5.4933,5.4823,5.478,5.4501,5.3714,5.4218,5.4699,5.471,5.5306,5.573,5.573,5.5776,5.5821,5.5821,5.5157,5.4097,5.2587,5.2245,5.1805,5.113,5.1095,5.1505,5.238,5.2631,5.3076,5.3695,5.296,5.2457,5.2186,5.1447,5.1037,5.0898,5.0898,5.0898,5.0898,5.0898,5.0898,5.0898,5.0898,5.0898,5.0898,5.0898,5.0971,5.1097,5.1097,5.1144,5.1199,5.1199,5.0717,5.0065,4.9931,4.9301,4.8431,4.7638,4.6796,4.613,4.6185,4.6206,4.6204,4.6198,4.6217,4.6236,4.6294,4.6306,4.6295,4.6301,4.6305,4.6307,4.6308,4.6307,4.6302,4.6296,4.6308,4.6299,4.6307,0.0,4.5108,4.5101,4.5045,4.5011,4.5004,4.5069,4.5092,4.5092,4.4458,4.4397,4.5148,4.5176,4.549,4.6187,4.6208,4.6221,4.6297,4.6247,4.6211,4.6227,4.6219,4.6221,4.6211,4.62,4.6192,4.6246,4.7124,4.7085,4.6519,4.814,4.8369,4.7864,4.9476,5.0075,5.0123,5.0975,5.1301,5.1302,5.5636,5.5749,5.572,5.5691,5.5596,5.5506,5.541,5.5512,5.5618,5.5678,5.5798,5.5875,5.5875,5.588,5.5885,5.5885,5.5813,5.5358,5.4363,5.2919,5.2079,5.2008,5.1993,5.2418,5.3289,5.4697,5.5142,5.46,5.4465,5.3637,5.2206,5.2051,5.1602,5.0898,5.0898,5.0898,5.0898,5.0898,5.0898,5.0898,5.0898,5.0898,5.0898,5.0898,5.0971,5.1097,5.1097,5.1144,5.1199,5.1199,5.1102,5.0872,5.0123,4.9304,4.8431,4.7638,4.6826,4.6185,4.6191,4.6196,4.6198,4.6203,4.6245,4.6283,4.6307,4.6302,4.6295,4.6301,4.6305,4.6307,4.6308,4.6308,4.6308,4.6302,4.6296,4.6306,4.6308,0.0,4.6,4.5992,4.5981,4.5988,4.5988,4.5986,4.6006,4.6006,4.5886,4.5863,4.6016,4.6018,4.6077,4.6206,4.6196,4.6235,4.6308,4.6289,4.6287,4.6287,4.6285,4.6277,4.6282,4.6234,4.6209,4.6242,4.712,4.7411,4.7372,4.8386,4.8718,4.8698,4.9714,5.0083,5.0178,5.1005,5.1291,5.1305,5.576,5.5817,5.5657,5.5214,5.5448,5.556,5.5163,5.5476,5.5756,5.5796,5.5796,5.5796,5.5796,5.5865,5.59,5.59,5.5967,5.5821,5.5434,5.3799,5.2878,5.2902,5.2457,5.2825,5.4175,5.5369,5.5814,5.5451,5.5006,5.4155,5.2883,5.2418,5.1738,5.0898,5.0898,5.0898,5.0898,5.0898,5.0898,5.0898,5.0898,5.0898,5.0898,5.0898,5.0971,5.1097,5.1097,5.1144,5.1199,5.1199,5.1199,5.1122,5.0736,5.0312,4.9833,4.9041,4.7577,4.6204,4.6204,4.6197,4.6191,4.6191,4.6215,4.6255,4.6255,4.6274,4.6309,4.6296,4.6301,4.6305,4.6308,4.6308,4.6306,4.6302,4.6295,4.6307,4.6308,4.6234,4.6191,4.6194,4.6198,4.6204,4.6194,4.6197,4.6194,4.62,4.6237,4.6244,4.6258,4.6243,4.6251,4.624,4.624,4.6265,4.6308,4.6308,4.6301,4.6301,4.6256,4.6248,4.6255,4.6704,4.6904,4.697,4.8327,4.8621,4.8294,4.9646,4.9913,4.9583,5.0469,5.0798,5.085,5.1222,5.1328,5.1292,5.5724,5.5708,5.5516,5.4895,5.5285,5.5502,5.4897,5.532,5.573,5.574,5.5745,5.5745,5.5745,5.5831,5.59,5.59,5.5953,5.5976,5.5976,5.4583,5.3758,5.3758,5.3129,5.3505,5.5047,5.5675,5.6008,5.6008,5.5374,5.4639,5.3768,5.2902,5.2047,5.1192,5.0999,5.0898,5.0898,5.0898,5.0898,5.0898,5.0898,5.0898,5.0902,5.0914,5.0998,5.1097,5.1107,5.1131,5.1199,5.1199,5.1199,5.1199,5.1199,5.1067,5.0786,5.0162,4.8453,4.6734,4.652,4.635,4.6199,4.6203,4.6207,4.6207,4.6211,4.6268,4.6303,4.6291,4.6298,4.6303,4.6306,4.6308,4.6304,4.6305,0.0,4.6296,4.6305,4.624,4.6218,4.6227,4.622,4.621,4.6228,4.6219,4.6222,4.6212,4.6265,4.6307,4.6305,4.6307,4.6308,4.6308,4.6308,4.6308,4.6308,4.65,4.6493,4.6306,4.6651,4.6722,4.6557,4.7424,4.7823,4.7908,4.9441,4.9714,4.9211,5.0757,5.1001,5.047,5.1148,5.1399,5.1405,5.1395,5.1365,5.1323,5.5708,5.5708,5.5689,5.5612,5.567,5.5705,5.5699,5.5748,5.5802,5.588,5.5885,5.5885,5.5885,5.5895,5.59,5.59,5.59,5.5905,5.5905,5.5036,5.452,5.452,5.4528,5.4956,5.5883,5.5967,5.6008,5.6008,5.593,5.5505,5.4697,5.3807,5.2941,5.207,5.125,5.0898,5.0898,5.0898,5.0898,5.0898,5.0898,5.0898,5.0906,5.0967,5.1046,5.1104,5.1102,5.1133,5.1199,5.1199,5.1199,5.1199,5.1199,5.0659,4.9984,4.9928,4.9243,4.8344,4.7527,4.6765,4.6203,4.6198,4.6195,4.621,4.6281,4.6292,4.6303,4.6291,4.6298,4.6303,4.6306,4.6308,4.6308,4.6308,0.0,0.0,4.6308,4.623,4.6211,4.6288,4.6289,4.6288,4.6289,4.6289,4.6287,4.6286,4.6304,4.6301,4.6295,4.6295,4.6295,4.6295,4.6308,4.6307,4.6307,4.7105,4.7102,4.632,4.7921,4.8273,4.753,4.841,4.8801,4.886,4.9717,5.0065,5.008,5.1003,5.1368,5.1315,5.1365,5.1402,5.1391,5.1401,5.1397,5.1372,5.5708,5.5708,5.5708,5.5708,5.5708,5.5714,5.5735,5.574,5.5745,5.5766,5.5785,5.5785,5.5785,5.5816,5.5836,5.5836,5.5836,5.5836,5.5836,5.5498,5.5079,5.4622,5.5175,5.5666,5.5994,5.6005,5.6008,5.6008,5.6008,5.5582,5.4793,5.4465,5.356,5.2186,5.1854,5.1409,5.0898,5.0898,5.0898,5.0898,5.0898,5.0898,5.0906,5.0971,5.1016,5.103,5.1088,5.1124,5.1133,5.1133,5.1165,5.1199,5.1199,5.097,5.0708,5.0704,5.013,4.9437,4.9106,4.8421,4.7818,4.7816,4.7404,4.701,4.7041,4.6663,4.6305,4.6297,4.6301,4.6302,4.6304,4.6307,4.6288,4.6243,0.0,4.6307,4.6301,4.6284,4.6265,4.6301,4.6303,4.6305,4.6307,4.6308,4.6308,4.6307,4.6306,4.6305,4.6303,4.6811,4.6851,4.6326,4.7342,4.7382,4.6308,4.7695,4.7967,4.7126,4.8337,4.8726,4.8431,4.927,4.9641,4.9699,5.0535,5.0904,5.0921,5.1255,5.1407,5.1395,5.1406,5.1403,5.1393,5.141,5.1404,5.1396,5.5703,5.5676,5.5635,5.5657,5.5682,5.5682,5.5682,5.5692,5.5708,5.5708,5.5708,5.5708,5.5708,5.574,5.5766,5.5766,5.5766,5.5766,5.5766,5.573,5.5355,5.4593,5.5442,5.5817,5.5528,5.5825,5.5973,5.6005,5.6005,5.5724,5.518,5.4892,5.4143,5.2999,5.2712,5.2093,5.1308,5.1308,5.1153,5.0898,5.0898,5.091,5.0945,5.1009,5.1023,5.105,5.1114,5.1121,5.1098,5.1127,5.1165,5.1199,5.1199,5.1203,5.1197,5.1201,5.0821,5.0417,5.0412,5.0016,4.9464,4.8935,4.8347,4.7913,4.7906,4.7486,4.7083,4.7092,4.7095,4.7096,4.7094,4.71,4.7061,4.7025,4.7055,4.7099,4.7083,4.7089,4.6997,4.6744,4.696,4.7003,4.6737,4.6953,4.7129,4.7127,4.7126,4.7008,4.6714,4.728,4.732,4.6736,4.8373,4.8587,4.7125,4.8553,4.8847,4.8027,4.914,4.955,4.9333,5.0133,5.0504,5.0543,5.1146,5.1397,5.1396,5.1398,5.1393,5.1404,5.1391,5.1407,5.1399,5.1395,5.141,5.1403,5.5692,5.559,5.5522,5.5585,5.5596,5.5596,5.5596,5.5671,5.5708,5.5708,5.5708,5.5708,5.5708,5.5708,5.5708,5.5708,5.5708,5.5708,5.5689,5.5708,5.5343,5.453,5.5337,5.5406,5.454,5.5413,5.5924,5.5994,5.5994,5.6002,5.5988,5.5109,5.4746,5.4755,5.3838,5.2953,5.2206,5.2206,5.1699,5.0917,5.0898,5.0948,5.1009,5.1064,5.1097,5.1107,5.1175,5.1162,5.1101,5.1171,5.1199,5.1199,5.1199,5.1203,5.1197,5.1201,5.1249,5.13,5.1303,5.1292,5.0906,4.9243,4.8811,4.8806,4.8816,4.8798,4.8794,4.8801,4.8809,4.8794,4.8801,4.8796,4.8799,4.8804,4.8802,4.879,4.8803,4.8793,4.8502,4.7704,4.837,4.857,4.7695,4.8398,4.8905,4.8905,4.8901,4.8525,4.7659,4.7619,4.7619,4.7619,4.9247,4.9718,4.8917,4.9718,4.9702,4.8924,5.0604,5.0976,5.0234,5.1035,5.1406,5.1406,5.1406,5.1406,5.1405,5.1406,5.1405,5.1398,5.1398,5.1395,5.1408,5.1398,5.1394,5.1413,5.5556,5.5527,5.5522,5.5585,5.5596,5.5613,5.5657,5.5698,5.5708,5.5708,5.5708,5.5708,5.5708,5.5708,5.5708,5.5708,5.5708,5.5458,5.4895,5.5401,5.5068,5.3645,5.501,5.5676,5.5426,5.5721,5.5924,5.5994,5.5994,5.6002,5.5988,5.5724,5.5318,5.4793,5.451,5.3911,5.3076,5.2457,5.2051,5.1757,5.1153,5.091,5.0945,5.1005,5.1005,5.0967,5.1085,5.1124,5.1101,5.1118,5.1165,5.1199,5.1199,5.1203,5.1197,5.1201,5.1249,5.13,5.1303,5.132,5.1255,5.0743,5.0129,4.9653,4.9707,4.9235,4.8799,4.8803,4.8795,4.8801,4.8807,4.8791,4.881,4.8806,4.8799,4.8793,4.8795,4.8832,4.8789,4.8545,4.8745,4.8807,4.8535,4.8749,4.8904,4.8901,4.8857,4.8715,4.8459,4.9025,4.9106,4.8524,5.0138,5.0605,4.9751,5.0599,5.0603,4.9822,5.0898,5.1269,5.1055,5.1289,5.1406,5.1405,5.1405,5.1404,5.1401,5.1404,5.1403,5.1398,5.1398,5.1397,5.1395,5.1401,5.1789,5.2301,5.5498,5.5482,5.5476,5.5545,5.5562,5.5579,5.564,5.5673,5.5708,5.5708,5.5708,5.5708,5.5708,5.5708,5.5708,5.5708,5.5708,5.5497,5.5016,5.5439,5.5241,5.4222,5.4893,5.512,5.4774,5.4804,5.5027,5.545,5.5103,5.5308,5.5988,5.5642,5.5236,5.4793,5.4772,5.4293,5.3463,5.2941,5.2709,5.267,5.2144,5.1745,5.1451,5.1497,5.1288,5.0998,5.1062,5.1101,5.1108,5.1124,5.1165,5.1202,5.1197,5.1203,5.1212,5.1237,5.1272,5.1304,5.1333,5.1345,5.137,5.1386,5.0965,5.0558,5.0576,5.0163,4.9791,4.9793,4.9786,4.9793,4.9796,4.9793,4.979,4.9799,4.9817,4.9837,4.9827,4.9852,4.9751,4.9424,4.9684,4.9765,4.9453,4.9706,4.9899,4.9892,4.9536,4.9317,4.9314,4.9802,4.9881,4.9393,5.0695,5.1142,5.0617,5.1141,5.1166,5.0678,5.1168,5.1404,5.1405,5.1405,5.1405,5.1406,5.1406,5.1406,5.1405,5.1406,5.1406,5.1423,5.1774,5.191,5.1967,5.2309,5.2754,5.3204,5.5474,5.5447,5.5409,5.548,5.5504,5.5533,5.5596,5.5651,5.5708,5.5708,5.5708,5.5708,5.5708,5.5708,5.5708,5.5708,5.5708,5.567,5.5593,5.567,5.5631,5.5478,5.4857,5.4049,5.3112,5.3169,5.3629,5.4486,5.3695,5.417,5.5756,5.4959,5.4635,5.4677,5.4611,5.4233,5.3618,5.354,5.354,5.3598,5.3444,5.2941,5.2276,5.2202,5.1721,5.1097,5.1102,5.1098,5.1101,5.1171,5.1202,5.1192,5.1203,5.119,5.1218,5.1284,5.13,5.1312,5.1369,5.1341,5.131,5.1362,5.1385,5.1377,5.1302,5.129,5.13,5.1298,5.1292,5.1301,5.1302,5.1298,5.1298,5.1302,5.1353,5.1394,5.1396,5.1392,5.1119,5.0304,5.0915,5.1112,5.0371,5.0976,5.1402,5.1391,5.0667,5.0213,5.0222,5.022,5.0216,5.0225,5.0997,5.1408,5.1399,5.1399,5.1408,5.1409,5.139,5.1393,5.1398,5.1398,5.1398,5.1398,5.1398,5.144,5.1522,5.1518,5.156,5.1719,5.2519,5.2812,5.2908,5.3705,5.4051,5.4123,5.5422,5.5403,5.5427,5.5486,5.5545,5.5596,5.5676,5.5698,5.5708,5.5708,5.5708,5.5708,5.5708,5.5708,5.5708,5.5708,5.5708,5.5439,5.4799,5.5343,5.5107,5.3799,5.4222,5.38,5.2281,5.294,5.3379,5.3575,5.3457,5.3617,5.4039,5.3857,5.376,5.3788,5.3779,5.4031,5.4465,5.3788,5.3884,5.4407,5.3037,5.2384,5.2144,5.1517,5.1167,5.1027,5.1076,5.1098,5.1101,5.1171,5.12,5.1203,5.1208,5.1245,5.1284,5.1308,5.1308,5.1292,5.1328,5.1314,5.128,5.1245,5.1241,5.1239,5.1227,5.121,5.1212,5.1227,5.1267,5.1308,5.1298,5.1306,5.1308,5.1301,5.1362,5.1399,5.1391,5.1403,5.1339,5.1144,5.1287,5.1328,5.1152,5.1308,5.1402,5.1391,5.1214,5.1112,5.1121,5.1113,5.1127,5.1124,5.1302,5.1401,5.1399,5.1403,5.1395,5.1409,5.1395,5.1397,5.1398,5.1398,5.1398,5.1398,5.1398,5.1792,5.242,5.2416,5.2829,5.3457,5.3633,5.3711,5.373,5.3921,5.4425,5.5124,5.5403,5.5396,5.5432,5.5533,5.5573,5.5618,5.5698,5.5708,5.5708,5.5708,5.5708,5.5708,5.5708,5.5708,5.5708,5.5708,5.5343,5.4953,5.453,5.4491,5.4299,5.3837,5.3882,5.3701,5.3205,5.2887,5.2731,5.2738,5.2374,5.2644,5.3482,5.3076,5.2883,5.2883,5.2883,5.3366,5.4155,5.3695,5.4213,5.5296,5.4387,5.3788,5.339,5.2965,5.2317,5.1622,5.1697,5.1473,5.1139,5.1196,5.1203,5.1189,5.1153,5.1207,5.1251,5.1251,5.126,5.1295,5.1298,5.128,5.1247,5.1213,5.1482,5.168,5.1285,5.1201,5.1213,5.1247,5.128,5.1295,5.1296,5.1304,5.144,5.1853,5.1637,5.1556,5.1961,5.1659,5.1398,5.1398,5.1405,5.1406,5.1406,5.1406,5.1403,5.1395,5.1391,5.1403,5.1408,5.1401,5.1392,5.136,5.1385,5.1385,5.1358,5.1385,5.1395,5.1408,5.1393,5.1398,5.1403,5.1403,5.1621,5.2014,5.2018,5.2511,5.3316,5.3311,5.3588,5.4042,5.4452,5.4628,5.4668,5.5097,5.5523,5.5985,5.5408,5.5414,5.5456,5.5579,5.5607,5.5649,5.5698,5.5708,5.5708,5.5708,5.5708,5.5708,5.5708,5.5708,5.5708,5.5708,5.5093,5.4703,5.4703,5.403,5.39,5.4468,5.3855,5.3755,5.4294,5.3,5.2252,5.2097,5.1294,5.1643,5.3033,5.2322,5.1974,5.1974,5.1974,5.2535,5.3502,5.3502,5.4465,5.5988,5.5853,5.5397,5.4771,5.4642,5.3723,5.2512,5.2585,5.2159,5.1554,5.1424,5.1374,5.1358,5.116,5.1156,5.1201,5.1202,5.1247,5.1278,5.1282,5.1337,5.141,5.141,5.2039,5.2463,5.1794,5.1643,5.1663,5.1725,5.1734,5.1724,5.1738,5.1728,5.1966,5.2709,5.2261,5.2083,5.2819,5.2165,5.1612,5.1613,5.1483,5.1406,5.1406,5.1405,5.1403,5.1397,5.1393,5.1403,5.1402,5.1397,5.1364,5.1317,5.1366,5.1364,5.1292,5.1364,5.137,5.137,5.1523,5.161,5.1608,5.1611,5.2106,5.2916,5.2926,5.3423,5.4229,5.4221,5.4305,5.4528,5.5246,5.5522,5.5603,5.6328,5.6599,5.6591,5.5408,5.545,5.551,5.5585,5.564,5.5698,5.5703,5.5708,5.5708,5.5708,5.5708,5.5708,5.5708,5.5708,5.5708,5.5708,5.5593,5.5535,5.5535,5.5439,5.5095,5.4525,5.4409,5.4087,5.3562,5.3344,5.2846,5.2097,5.128,5.101,5.125,5.1134,5.1076,5.1076,5.1076,5.1985,5.3502,5.3502,5.4465,5.593,5.5238,5.4896,5.4719,5.4021,5.3591,5.3356,5.3416,5.329,5.3003,5.231,5.2094,5.2032,5.1328,5.115,5.12,5.1198,5.1215,5.1207,5.1208,5.1702,5.2244,5.2244,5.2938,5.358,5.3477,5.3446,5.3451,5.3453,5.3453,5.347,5.3467,5.347,5.3524,5.3703,5.3626,5.3625,5.3796,5.3077,5.2524,5.2511,5.1854,5.1406,5.1405,5.1405,5.1402,5.1392,5.139,5.1405,5.1393,5.1391,5.1396,5.1391,5.1341,5.1315,5.1292,5.1315,5.1315,5.1315,5.2077,5.2437,5.2449,5.2503,5.2998,5.3818,5.3812,5.4311,5.512,5.5111,5.5566,5.6261,5.6372,5.6416,5.6444,5.656,5.6594,5.6591,5.5444,5.551,5.5579,5.5635,5.5687,5.5708,5.5708,5.5708,5.5708,5.5708,5.5708,5.5535,5.5074,5.4607,5.4491,5.4991,5.4587,5.4507,5.5,5.4615,5.4197,5.3846,5.387,5.3728,5.3406,5.2921,5.2487,5.2101,5.1732,5.1567,5.1567,5.0994,5.0736,5.0741,5.0812,5.1784,5.3387,5.3383,5.4387,5.5913,5.5518,5.5368,5.5314,5.5017,5.4585,5.4108,5.3646,5.348,5.339,5.3046,5.2975,5.296,5.2551,5.2495,5.2433,5.1967,5.2184,5.2487,5.1992,5.2485,5.3131,5.3166,5.3821,5.4486,5.4514,5.4894,5.4994,5.4051,5.382,5.3803,5.3853,5.3857,5.4011,5.4538,5.4246,5.4145,5.4646,5.3978,5.3422,5.3428,5.2653,5.2129,5.2129,5.1697,5.1399,5.1391,5.1404,5.1394,5.1395,5.1401,5.137,5.1343,5.1325,5.1301,5.1292,5.1301,5.1548,5.2035,5.2415,5.26,5.2628,5.3133,5.3847,5.4676,5.4715,5.5212,5.6035,5.6031,5.6248,5.6606,5.6602,5.6591,5.66,5.6598,5.6593,5.6591]}]]